<?xml version="1.0" encoding="UTF-8" standalone="no" ?>
<gpx xmlns="http://www.topografix.com/GPX/1/1" xmlns:xsi="http://www.w3.org/2001/XMLSchema-instance" xsi:schemaLocation="http://www.topografix.com/GPX/1/1 http://www.topografix.com/GPX/1/1/gpx.xsd" version="1.1" creator="VisuGPX - https://www.visugpx.com">
  <metadata>
    <name>RANDO AVEIZE 22KM</name>
    <desc><![CDATA[RANDO EN BOUCLE 22KM DEPART AVEIZE.LAC LA GIMOND]]></desc>
  </metadata>
  <trk>
    <name><![CDATA[AAAAAAA17 16:17:53]]></name>
    <trkseg>
      <trkpt lat="45.68336" lon="4.47724">
        <ele>785.05</ele>
        <time>2017-02-12T08:23:02Z</time>
      </trkpt>
      <trkpt lat="45.68332" lon="4.47726">
        <ele>791.3</ele>
        <time>2017-02-12T08:23:26Z</time>
      </trkpt>
      <trkpt lat="45.68332" lon="4.47724">
        <ele>792.74</ele>
        <time>2017-02-12T08:23:51Z</time>
      </trkpt>
      <trkpt lat="45.68332" lon="4.47724">
        <ele>791.78</ele>
        <time>2017-02-12T08:24:11Z</time>
      </trkpt>
      <trkpt lat="45.68333" lon="4.47724">
        <ele>790.82</ele>
        <time>2017-02-12T08:24:26Z</time>
      </trkpt>
      <trkpt lat="45.68333" lon="4.47724">
        <ele>791.3</ele>
        <time>2017-02-12T08:25:01Z</time>
      </trkpt>
      <trkpt lat="45.68333" lon="4.47724">
        <ele>790.82</ele>
        <time>2017-02-12T08:25:16Z</time>
      </trkpt>
      <trkpt lat="45.68333" lon="4.47724">
        <ele>790.82</ele>
        <time>2017-02-12T08:25:29Z</time>
      </trkpt>
      <trkpt lat="45.68332" lon="4.47723">
        <ele>790.82</ele>
        <time>2017-02-12T08:25:45Z</time>
      </trkpt>
      <trkpt lat="45.68332" lon="4.47721">
        <ele>790.34</ele>
        <time>2017-02-12T08:25:56Z</time>
      </trkpt>
      <trkpt lat="45.68332" lon="4.4772">
        <ele>790.34</ele>
        <time>2017-02-12T08:26:10Z</time>
      </trkpt>
      <trkpt lat="45.68331" lon="4.47722">
        <ele>789.38</ele>
        <time>2017-02-12T08:26:33Z</time>
      </trkpt>
      <trkpt lat="45.68332" lon="4.47722">
        <ele>789.86</ele>
        <time>2017-02-12T08:26:49Z</time>
      </trkpt>
      <trkpt lat="45.68332" lon="4.47723">
        <ele>789.86</ele>
        <time>2017-02-12T08:27:02Z</time>
      </trkpt>
      <trkpt lat="45.68332" lon="4.47722">
        <ele>790.34</ele>
        <time>2017-02-12T08:27:18Z</time>
      </trkpt>
      <trkpt lat="45.68331" lon="4.47722">
        <ele>790.34</ele>
        <time>2017-02-12T08:27:32Z</time>
      </trkpt>
      <trkpt lat="45.6833" lon="4.4772">
        <ele>790.82</ele>
        <time>2017-02-12T08:27:43Z</time>
      </trkpt>
      <trkpt lat="45.6833" lon="4.4772">
        <ele>790.82</ele>
        <time>2017-02-12T08:28:06Z</time>
      </trkpt>
      <trkpt lat="45.68331" lon="4.47719">
        <ele>789.38</ele>
        <time>2017-02-12T08:28:34Z</time>
      </trkpt>
      <trkpt lat="45.6833" lon="4.47718">
        <ele>788.9</ele>
        <time>2017-02-12T08:28:46Z</time>
      </trkpt>
      <trkpt lat="45.6833" lon="4.47719">
        <ele>789.38</ele>
        <time>2017-02-12T08:28:57Z</time>
      </trkpt>
      <trkpt lat="45.6833" lon="4.4772">
        <ele>789.38</ele>
        <time>2017-02-12T08:29:08Z</time>
      </trkpt>
      <trkpt lat="45.6833" lon="4.4772">
        <ele>789.38</ele>
        <time>2017-02-12T08:29:22Z</time>
      </trkpt>
      <trkpt lat="45.6833" lon="4.47721">
        <ele>789.38</ele>
        <time>2017-02-12T08:29:35Z</time>
      </trkpt>
      <trkpt lat="45.68329" lon="4.47721">
        <ele>789.38</ele>
        <time>2017-02-12T08:29:48Z</time>
      </trkpt>
      <trkpt lat="45.68332" lon="4.4772">
        <ele>789.86</ele>
        <time>2017-02-12T08:30:04Z</time>
      </trkpt>
      <trkpt lat="45.68332" lon="4.4772">
        <ele>789.86</ele>
        <time>2017-02-12T08:30:26Z</time>
      </trkpt>
      <trkpt lat="45.68332" lon="4.47719">
        <ele>789.38</ele>
        <time>2017-02-12T08:30:47Z</time>
      </trkpt>
      <trkpt lat="45.68332" lon="4.47719">
        <ele>788.42</ele>
        <time>2017-02-12T08:31:14Z</time>
      </trkpt>
      <trkpt lat="45.68332" lon="4.4772">
        <ele>788.42</ele>
        <time>2017-02-12T08:31:35Z</time>
      </trkpt>
      <trkpt lat="45.68332" lon="4.4772">
        <ele>787.94</ele>
        <time>2017-02-12T08:31:52Z</time>
      </trkpt>
      <trkpt lat="45.6833" lon="4.4772">
        <ele>787.94</ele>
        <time>2017-02-12T08:32:07Z</time>
      </trkpt>
      <trkpt lat="45.68316" lon="4.47735">
        <ele>789.38</ele>
        <time>2017-02-12T08:32:23Z</time>
      </trkpt>
      <trkpt lat="45.68297" lon="4.47728">
        <ele>787.94</ele>
        <time>2017-02-12T08:32:41Z</time>
      </trkpt>
      <trkpt lat="45.68297" lon="4.47727">
        <ele>788.42</ele>
        <time>2017-02-12T08:32:51Z</time>
      </trkpt>
      <trkpt lat="45.68296" lon="4.47726">
        <ele>788.42</ele>
        <time>2017-02-12T08:33:07Z</time>
      </trkpt>
      <trkpt lat="45.68295" lon="4.47726">
        <ele>788.9</ele>
        <time>2017-02-12T08:33:23Z</time>
      </trkpt>
      <trkpt lat="45.68294" lon="4.47727">
        <ele>790.82</ele>
        <time>2017-02-12T08:33:36Z</time>
      </trkpt>
      <trkpt lat="45.68294" lon="4.47727">
        <ele>792.26</ele>
        <time>2017-02-12T08:33:56Z</time>
      </trkpt>
      <trkpt lat="45.68294" lon="4.47726">
        <ele>792.26</ele>
        <time>2017-02-12T08:34:09Z</time>
      </trkpt>
      <trkpt lat="45.68295" lon="4.47726">
        <ele>792.26</ele>
        <time>2017-02-12T08:34:27Z</time>
      </trkpt>
      <trkpt lat="45.68295" lon="4.47727">
        <ele>792.26</ele>
        <time>2017-02-12T08:34:38Z</time>
      </trkpt>
      <trkpt lat="45.68293" lon="4.47727">
        <ele>792.74</ele>
        <time>2017-02-12T08:34:50Z</time>
      </trkpt>
      <trkpt lat="45.68288" lon="4.47721">
        <ele>794.19</ele>
        <time>2017-02-12T08:35:02Z</time>
      </trkpt>
      <trkpt lat="45.68288" lon="4.47714">
        <ele>793.71</ele>
        <time>2017-02-12T08:35:12Z</time>
      </trkpt>
      <trkpt lat="45.68287" lon="4.47712">
        <ele>794.19</ele>
        <time>2017-02-12T08:35:24Z</time>
      </trkpt>
      <trkpt lat="45.68285" lon="4.47712">
        <ele>793.71</ele>
        <time>2017-02-12T08:35:40Z</time>
      </trkpt>
      <trkpt lat="45.68285" lon="4.47714">
        <ele>793.22</ele>
        <time>2017-02-12T08:35:53Z</time>
      </trkpt>
      <trkpt lat="45.68285" lon="4.47717">
        <ele>793.22</ele>
        <time>2017-02-12T08:36:04Z</time>
      </trkpt>
      <trkpt lat="45.68285" lon="4.47718">
        <ele>792.74</ele>
        <time>2017-02-12T08:36:23Z</time>
      </trkpt>
      <trkpt lat="45.68285" lon="4.47719">
        <ele>792.74</ele>
        <time>2017-02-12T08:36:32Z</time>
      </trkpt>
      <trkpt lat="45.68285" lon="4.4772">
        <ele>792.74</ele>
        <time>2017-02-12T08:36:46Z</time>
      </trkpt>
      <trkpt lat="45.68284" lon="4.47721">
        <ele>792.26</ele>
        <time>2017-02-12T08:37:03Z</time>
      </trkpt>
      <trkpt lat="45.68285" lon="4.47721">
        <ele>792.74</ele>
        <time>2017-02-12T08:37:13Z</time>
      </trkpt>
      <trkpt lat="45.68285" lon="4.47722">
        <ele>792.74</ele>
        <time>2017-02-12T08:37:31Z</time>
      </trkpt>
      <trkpt lat="45.68286" lon="4.47722">
        <ele>793.22</ele>
        <time>2017-02-12T08:37:41Z</time>
      </trkpt>
      <trkpt lat="45.68286" lon="4.47722">
        <ele>793.22</ele>
        <time>2017-02-12T08:37:53Z</time>
      </trkpt>
      <trkpt lat="45.68284" lon="4.47721">
        <ele>793.71</ele>
        <time>2017-02-12T08:37:55Z</time>
      </trkpt>
      <trkpt lat="45.6827" lon="4.47738">
        <ele>795.15</ele>
        <time>2017-02-12T08:38:13Z</time>
      </trkpt>
      <trkpt lat="45.68265" lon="4.47769">
        <ele>793.71</ele>
        <time>2017-02-12T08:38:29Z</time>
      </trkpt>
      <trkpt lat="45.68259" lon="4.47799">
        <ele>796.59</ele>
        <time>2017-02-12T08:38:46Z</time>
      </trkpt>
      <trkpt lat="45.68258" lon="4.47833">
        <ele>797.07</ele>
        <time>2017-02-12T08:39:05Z</time>
      </trkpt>
      <trkpt lat="45.68272" lon="4.47858">
        <ele>796.11</ele>
        <time>2017-02-12T08:39:22Z</time>
      </trkpt>
      <trkpt lat="45.68291" lon="4.47876">
        <ele>794.67</ele>
        <time>2017-02-12T08:39:39Z</time>
      </trkpt>
      <trkpt lat="45.68297" lon="4.47882">
        <ele>798.51</ele>
        <time>2017-02-12T08:39:50Z</time>
      </trkpt>
      <trkpt lat="45.68303" lon="4.47917">
        <ele>795.15</ele>
        <time>2017-02-12T08:40:09Z</time>
      </trkpt>
      <trkpt lat="45.68308" lon="4.47949">
        <ele>788.9</ele>
        <time>2017-02-12T08:40:26Z</time>
      </trkpt>
      <trkpt lat="45.6831" lon="4.47978">
        <ele>786.02</ele>
        <time>2017-02-12T08:40:42Z</time>
      </trkpt>
      <trkpt lat="45.68309" lon="4.48017">
        <ele>782.17</ele>
        <time>2017-02-12T08:41:03Z</time>
      </trkpt>
      <trkpt lat="45.68309" lon="4.48019">
        <ele>781.69</ele>
        <time>2017-02-12T08:41:04Z</time>
      </trkpt>
      <trkpt lat="45.68309" lon="4.48049">
        <ele>779.77</ele>
        <time>2017-02-12T08:41:19Z</time>
      </trkpt>
      <trkpt lat="45.68315" lon="4.48068">
        <ele>780.25</ele>
        <time>2017-02-12T08:41:30Z</time>
      </trkpt>
      <trkpt lat="45.68317" lon="4.48078">
        <ele>779.77</ele>
        <time>2017-02-12T08:41:35Z</time>
      </trkpt>
      <trkpt lat="45.68324" lon="4.48108">
        <ele>775.92</ele>
        <time>2017-02-12T08:41:53Z</time>
      </trkpt>
      <trkpt lat="45.68332" lon="4.4814">
        <ele>770.63</ele>
        <time>2017-02-12T08:42:12Z</time>
      </trkpt>
      <trkpt lat="45.68332" lon="4.48143">
        <ele>770.15</ele>
        <time>2017-02-12T08:42:14Z</time>
      </trkpt>
      <trkpt lat="45.68343" lon="4.48168">
        <ele>767.27</ele>
        <time>2017-02-12T08:42:30Z</time>
      </trkpt>
      <trkpt lat="45.68357" lon="4.48195">
        <ele>763.9</ele>
        <time>2017-02-12T08:42:48Z</time>
      </trkpt>
      <trkpt lat="45.68361" lon="4.48201">
        <ele>763.9</ele>
        <time>2017-02-12T08:42:52Z</time>
      </trkpt>
      <trkpt lat="45.68375" lon="4.48219">
        <ele>763.9</ele>
        <time>2017-02-12T08:43:07Z</time>
      </trkpt>
      <trkpt lat="45.68387" lon="4.48242">
        <ele>761.98</ele>
        <time>2017-02-12T08:43:23Z</time>
      </trkpt>
      <trkpt lat="45.68396" lon="4.48263">
        <ele>760.54</ele>
        <time>2017-02-12T08:43:35Z</time>
      </trkpt>
      <trkpt lat="45.68411" lon="4.48285">
        <ele>759.58</ele>
        <time>2017-02-12T08:43:50Z</time>
      </trkpt>
      <trkpt lat="45.68414" lon="4.48289">
        <ele>759.58</ele>
        <time>2017-02-12T08:43:53Z</time>
      </trkpt>
      <trkpt lat="45.68426" lon="4.48308">
        <ele>760.06</ele>
        <time>2017-02-12T08:44:06Z</time>
      </trkpt>
      <trkpt lat="45.68436" lon="4.48325">
        <ele>759.1</ele>
        <time>2017-02-12T08:44:17Z</time>
      </trkpt>
      <trkpt lat="45.6844" lon="4.48329">
        <ele>759.1</ele>
        <time>2017-02-12T08:44:21Z</time>
      </trkpt>
      <trkpt lat="45.68441" lon="4.48331">
        <ele>758.62</ele>
        <time>2017-02-12T08:44:23Z</time>
      </trkpt>
      <trkpt lat="45.68456" lon="4.48354">
        <ele>757.18</ele>
        <time>2017-02-12T08:44:38Z</time>
      </trkpt>
      <trkpt lat="45.68465" lon="4.48367">
        <ele>756.21</ele>
        <time>2017-02-12T08:44:49Z</time>
      </trkpt>
      <trkpt lat="45.68471" lon="4.48376">
        <ele>757.66</ele>
        <time>2017-02-12T08:44:56Z</time>
      </trkpt>
      <trkpt lat="45.68476" lon="4.48383">
        <ele>757.18</ele>
        <time>2017-02-12T08:45:00Z</time>
      </trkpt>
      <trkpt lat="45.68481" lon="4.48393">
        <ele>756.69</ele>
        <time>2017-02-12T08:45:10Z</time>
      </trkpt>
      <trkpt lat="45.68483" lon="4.48399">
        <ele>756.69</ele>
        <time>2017-02-12T08:45:13Z</time>
      </trkpt>
      <trkpt lat="45.68485" lon="4.48403">
        <ele>757.18</ele>
        <time>2017-02-12T08:45:15Z</time>
      </trkpt>
      <trkpt lat="45.68488" lon="4.48407">
        <ele>757.18</ele>
        <time>2017-02-12T08:45:18Z</time>
      </trkpt>
      <trkpt lat="45.68493" lon="4.48413">
        <ele>758.62</ele>
        <time>2017-02-12T08:45:24Z</time>
      </trkpt>
      <trkpt lat="45.68503" lon="4.48434">
        <ele>759.1</ele>
        <time>2017-02-12T08:45:38Z</time>
      </trkpt>
      <trkpt lat="45.68509" lon="4.48444">
        <ele>759.1</ele>
        <time>2017-02-12T08:45:44Z</time>
      </trkpt>
      <trkpt lat="45.68518" lon="4.48468">
        <ele>758.14</ele>
        <time>2017-02-12T08:45:58Z</time>
      </trkpt>
      <trkpt lat="45.68528" lon="4.48496">
        <ele>756.21</ele>
        <time>2017-02-12T08:46:10Z</time>
      </trkpt>
      <trkpt lat="45.68532" lon="4.48504">
        <ele>754.29</ele>
        <time>2017-02-12T08:46:15Z</time>
      </trkpt>
      <trkpt lat="45.68543" lon="4.48537">
        <ele>750.93</ele>
        <time>2017-02-12T08:46:28Z</time>
      </trkpt>
      <trkpt lat="45.68545" lon="4.48545">
        <ele>750.93</ele>
        <time>2017-02-12T08:46:39Z</time>
      </trkpt>
      <trkpt lat="45.6855" lon="4.4856">
        <ele>754.77</ele>
        <time>2017-02-12T08:46:50Z</time>
      </trkpt>
      <trkpt lat="45.68553" lon="4.48577">
        <ele>754.77</ele>
        <time>2017-02-12T08:46:59Z</time>
      </trkpt>
      <trkpt lat="45.68549" lon="4.48612">
        <ele>744.2</ele>
        <time>2017-02-12T08:47:16Z</time>
      </trkpt>
      <trkpt lat="45.68551" lon="4.48638">
        <ele>744.2</ele>
        <time>2017-02-12T08:47:30Z</time>
      </trkpt>
      <trkpt lat="45.68552" lon="4.48665">
        <ele>738.43</ele>
        <time>2017-02-12T08:47:45Z</time>
      </trkpt>
      <trkpt lat="45.6856" lon="4.48689">
        <ele>737.95</ele>
        <time>2017-02-12T08:47:58Z</time>
      </trkpt>
      <trkpt lat="45.68561" lon="4.48715">
        <ele>731.22</ele>
        <time>2017-02-12T08:48:12Z</time>
      </trkpt>
      <trkpt lat="45.68567" lon="4.48728">
        <ele>727.86</ele>
        <time>2017-02-12T08:48:21Z</time>
      </trkpt>
      <trkpt lat="45.68571" lon="4.48732">
        <ele>725.45</ele>
        <time>2017-02-12T08:48:32Z</time>
      </trkpt>
      <trkpt lat="45.6858" lon="4.48759">
        <ele>727.37</ele>
        <time>2017-02-12T08:48:49Z</time>
      </trkpt>
      <trkpt lat="45.68596" lon="4.48781">
        <ele>725.93</ele>
        <time>2017-02-12T08:49:05Z</time>
      </trkpt>
      <trkpt lat="45.68615" lon="4.48799">
        <ele>724.01</ele>
        <time>2017-02-12T08:49:22Z</time>
      </trkpt>
      <trkpt lat="45.68637" lon="4.4881">
        <ele>722.57</ele>
        <time>2017-02-12T08:49:40Z</time>
      </trkpt>
      <trkpt lat="45.68655" lon="4.48825">
        <ele>724.01</ele>
        <time>2017-02-12T08:49:56Z</time>
      </trkpt>
      <trkpt lat="45.68679" lon="4.48829">
        <ele>723.05</ele>
        <time>2017-02-12T08:50:15Z</time>
      </trkpt>
      <trkpt lat="45.68699" lon="4.48822">
        <ele>723.05</ele>
        <time>2017-02-12T08:50:32Z</time>
      </trkpt>
      <trkpt lat="45.68722" lon="4.48816">
        <ele>717.76</ele>
        <time>2017-02-12T08:50:49Z</time>
      </trkpt>
      <trkpt lat="45.68742" lon="4.48818">
        <ele>717.76</ele>
        <time>2017-02-12T08:51:05Z</time>
      </trkpt>
      <trkpt lat="45.68762" lon="4.48835">
        <ele>717.28</ele>
        <time>2017-02-12T08:51:22Z</time>
      </trkpt>
      <trkpt lat="45.68773" lon="4.48874">
        <ele>716.8</ele>
        <time>2017-02-12T08:51:43Z</time>
      </trkpt>
      <trkpt lat="45.68774" lon="4.48894">
        <ele>715.84</ele>
        <time>2017-02-12T08:51:54Z</time>
      </trkpt>
      <trkpt lat="45.68776" lon="4.48905">
        <ele>714.88</ele>
        <time>2017-02-12T08:52:01Z</time>
      </trkpt>
      <trkpt lat="45.68771" lon="4.48926">
        <ele>714.4</ele>
        <time>2017-02-12T08:52:15Z</time>
      </trkpt>
      <trkpt lat="45.68767" lon="4.48939">
        <ele>713.92</ele>
        <time>2017-02-12T08:52:30Z</time>
      </trkpt>
      <trkpt lat="45.68762" lon="4.48961">
        <ele>715.36</ele>
        <time>2017-02-12T08:52:43Z</time>
      </trkpt>
      <trkpt lat="45.6876" lon="4.48975">
        <ele>715.84</ele>
        <time>2017-02-12T08:52:51Z</time>
      </trkpt>
      <trkpt lat="45.68759" lon="4.48981">
        <ele>714.4</ele>
        <time>2017-02-12T08:52:54Z</time>
      </trkpt>
      <trkpt lat="45.68758" lon="4.48999">
        <ele>712.47</ele>
        <time>2017-02-12T08:53:03Z</time>
      </trkpt>
      <trkpt lat="45.68757" lon="4.49003">
        <ele>712.95</ele>
        <time>2017-02-12T08:53:05Z</time>
      </trkpt>
      <trkpt lat="45.68758" lon="4.49014">
        <ele>714.4</ele>
        <time>2017-02-12T08:53:11Z</time>
      </trkpt>
      <trkpt lat="45.68757" lon="4.49039">
        <ele>715.84</ele>
        <time>2017-02-12T08:53:26Z</time>
      </trkpt>
      <trkpt lat="45.68769" lon="4.49058">
        <ele>713.92</ele>
        <time>2017-02-12T08:53:42Z</time>
      </trkpt>
      <trkpt lat="45.68785" lon="4.49072">
        <ele>710.07</ele>
        <time>2017-02-12T08:53:56Z</time>
      </trkpt>
      <trkpt lat="45.68805" lon="4.49084">
        <ele>705.26</ele>
        <time>2017-02-12T08:54:10Z</time>
      </trkpt>
      <trkpt lat="45.68823" lon="4.49089">
        <ele>700.94</ele>
        <time>2017-02-12T08:54:26Z</time>
      </trkpt>
      <trkpt lat="45.68838" lon="4.49096">
        <ele>694.69</ele>
        <time>2017-02-12T08:54:41Z</time>
      </trkpt>
      <trkpt lat="45.6885" lon="4.49109">
        <ele>691.81</ele>
        <time>2017-02-12T08:54:55Z</time>
      </trkpt>
      <trkpt lat="45.68865" lon="4.49123">
        <ele>687</ele>
        <time>2017-02-12T08:55:10Z</time>
      </trkpt>
      <trkpt lat="45.68878" lon="4.49136">
        <ele>682.67</ele>
        <time>2017-02-12T08:55:24Z</time>
      </trkpt>
      <trkpt lat="45.68891" lon="4.49153">
        <ele>678.83</ele>
        <time>2017-02-12T08:55:37Z</time>
      </trkpt>
      <trkpt lat="45.68904" lon="4.49172">
        <ele>676.91</ele>
        <time>2017-02-12T08:55:51Z</time>
      </trkpt>
      <trkpt lat="45.6891" lon="4.49178">
        <ele>676.91</ele>
        <time>2017-02-12T08:55:57Z</time>
      </trkpt>
      <trkpt lat="45.68921" lon="4.49194">
        <ele>672.1</ele>
        <time>2017-02-12T08:56:12Z</time>
      </trkpt>
      <trkpt lat="45.68929" lon="4.49208">
        <ele>672.58</ele>
        <time>2017-02-12T08:56:24Z</time>
      </trkpt>
      <trkpt lat="45.68935" lon="4.49224">
        <ele>672.1</ele>
        <time>2017-02-12T08:56:34Z</time>
      </trkpt>
      <trkpt lat="45.68944" lon="4.49244">
        <ele>671.62</ele>
        <time>2017-02-12T08:56:46Z</time>
      </trkpt>
      <trkpt lat="45.6895" lon="4.49263">
        <ele>669.7</ele>
        <time>2017-02-12T08:56:59Z</time>
      </trkpt>
      <trkpt lat="45.68951" lon="4.49264">
        <ele>669.7</ele>
        <time>2017-02-12T08:57:00Z</time>
      </trkpt>
      <trkpt lat="45.68958" lon="4.49276">
        <ele>670.66</ele>
        <time>2017-02-12T08:57:11Z</time>
      </trkpt>
      <trkpt lat="45.68964" lon="4.49288">
        <ele>674.5</ele>
        <time>2017-02-12T08:57:21Z</time>
      </trkpt>
      <trkpt lat="45.68964" lon="4.49289">
        <ele>674.5</ele>
        <time>2017-02-12T08:57:22Z</time>
      </trkpt>
      <trkpt lat="45.68971" lon="4.49312">
        <ele>676.91</ele>
        <time>2017-02-12T08:57:37Z</time>
      </trkpt>
      <trkpt lat="45.68973" lon="4.4933">
        <ele>674.02</ele>
        <time>2017-02-12T08:57:49Z</time>
      </trkpt>
      <trkpt lat="45.68973" lon="4.49336">
        <ele>672.58</ele>
        <time>2017-02-12T08:57:55Z</time>
      </trkpt>
      <trkpt lat="45.68972" lon="4.49339">
        <ele>672.58</ele>
        <time>2017-02-12T08:57:57Z</time>
      </trkpt>
      <trkpt lat="45.68973" lon="4.4935">
        <ele>670.66</ele>
        <time>2017-02-12T08:58:06Z</time>
      </trkpt>
      <trkpt lat="45.68973" lon="4.49353">
        <ele>670.66</ele>
        <time>2017-02-12T08:58:07Z</time>
      </trkpt>
      <trkpt lat="45.68976" lon="4.49375">
        <ele>666.81</ele>
        <time>2017-02-12T08:58:16Z</time>
      </trkpt>
      <trkpt lat="45.68979" lon="4.49392">
        <ele>664.41</ele>
        <time>2017-02-12T08:58:28Z</time>
      </trkpt>
      <trkpt lat="45.68983" lon="4.49417">
        <ele>657.2</ele>
        <time>2017-02-12T08:58:41Z</time>
      </trkpt>
      <trkpt lat="45.6899" lon="4.49433">
        <ele>653.83</ele>
        <time>2017-02-12T08:58:52Z</time>
      </trkpt>
      <trkpt lat="45.68995" lon="4.49444">
        <ele>651.91</ele>
        <time>2017-02-12T08:59:03Z</time>
      </trkpt>
      <trkpt lat="45.69004" lon="4.49464">
        <ele>648.07</ele>
        <time>2017-02-12T08:59:16Z</time>
      </trkpt>
      <trkpt lat="45.69008" lon="4.49473">
        <ele>646.14</ele>
        <time>2017-02-12T08:59:23Z</time>
      </trkpt>
      <trkpt lat="45.69013" lon="4.49482">
        <ele>645.18</ele>
        <time>2017-02-12T08:59:30Z</time>
      </trkpt>
      <trkpt lat="45.69019" lon="4.49497">
        <ele>640.38</ele>
        <time>2017-02-12T08:59:43Z</time>
      </trkpt>
      <trkpt lat="45.69021" lon="4.49501">
        <ele>638.93</ele>
        <time>2017-02-12T08:59:47Z</time>
      </trkpt>
      <trkpt lat="45.69026" lon="4.49518">
        <ele>634.61</ele>
        <time>2017-02-12T08:59:58Z</time>
      </trkpt>
      <trkpt lat="45.69026" lon="4.49519">
        <ele>634.61</ele>
        <time>2017-02-12T08:59:59Z</time>
      </trkpt>
      <trkpt lat="45.69032" lon="4.49528">
        <ele>632.68</ele>
        <time>2017-02-12T09:00:06Z</time>
      </trkpt>
      <trkpt lat="45.69041" lon="4.49545">
        <ele>630.28</ele>
        <time>2017-02-12T09:00:21Z</time>
      </trkpt>
      <trkpt lat="45.69049" lon="4.49559">
        <ele>628.84</ele>
        <time>2017-02-12T09:00:35Z</time>
      </trkpt>
      <trkpt lat="45.6905" lon="4.49562">
        <ele>627.4</ele>
        <time>2017-02-12T09:00:55Z</time>
      </trkpt>
      <trkpt lat="45.69051" lon="4.49563">
        <ele>626.44</ele>
        <time>2017-02-12T09:01:18Z</time>
      </trkpt>
      <trkpt lat="45.69052" lon="4.49567">
        <ele>624.99</ele>
        <time>2017-02-12T09:01:43Z</time>
      </trkpt>
      <trkpt lat="45.69053" lon="4.49567">
        <ele>623.55</ele>
        <time>2017-02-12T09:02:08Z</time>
      </trkpt>
      <trkpt lat="45.69052" lon="4.49565">
        <ele>624.03</ele>
        <time>2017-02-12T09:02:29Z</time>
      </trkpt>
      <trkpt lat="45.69053" lon="4.49566">
        <ele>624.03</ele>
        <time>2017-02-12T09:02:42Z</time>
      </trkpt>
      <trkpt lat="45.69053" lon="4.49563">
        <ele>624.03</ele>
        <time>2017-02-12T09:02:45Z</time>
      </trkpt>
      <trkpt lat="45.69055" lon="4.49545">
        <ele>629.8</ele>
        <time>2017-02-12T09:02:59Z</time>
      </trkpt>
      <trkpt lat="45.69055" lon="4.49527">
        <ele>637.01</ele>
        <time>2017-02-12T09:03:14Z</time>
      </trkpt>
      <trkpt lat="45.69052" lon="4.49506">
        <ele>639.89</ele>
        <time>2017-02-12T09:03:27Z</time>
      </trkpt>
      <trkpt lat="45.69051" lon="4.4949">
        <ele>638.93</ele>
        <time>2017-02-12T09:03:35Z</time>
      </trkpt>
      <trkpt lat="45.69049" lon="4.4948">
        <ele>637.49</ele>
        <time>2017-02-12T09:03:41Z</time>
      </trkpt>
      <trkpt lat="45.69047" lon="4.49463">
        <ele>636.05</ele>
        <time>2017-02-12T09:03:50Z</time>
      </trkpt>
      <trkpt lat="45.69046" lon="4.49434">
        <ele>635.57</ele>
        <time>2017-02-12T09:04:05Z</time>
      </trkpt>
      <trkpt lat="45.69053" lon="4.49409">
        <ele>633.65</ele>
        <time>2017-02-12T09:04:19Z</time>
      </trkpt>
      <trkpt lat="45.69062" lon="4.49381">
        <ele>629.32</ele>
        <time>2017-02-12T09:04:34Z</time>
      </trkpt>
      <trkpt lat="45.69068" lon="4.4935">
        <ele>623.55</ele>
        <time>2017-02-12T09:04:50Z</time>
      </trkpt>
      <trkpt lat="45.69074" lon="4.49328">
        <ele>621.63</ele>
        <time>2017-02-12T09:05:05Z</time>
      </trkpt>
      <trkpt lat="45.69083" lon="4.4931">
        <ele>620.67</ele>
        <time>2017-02-12T09:05:19Z</time>
      </trkpt>
      <trkpt lat="45.69094" lon="4.49295">
        <ele>613.46</ele>
        <time>2017-02-12T09:05:35Z</time>
      </trkpt>
      <trkpt lat="45.69096" lon="4.4929">
        <ele>607.21</ele>
        <time>2017-02-12T09:05:53Z</time>
      </trkpt>
      <trkpt lat="45.69097" lon="4.49288">
        <ele>607.21</ele>
        <time>2017-02-12T09:06:14Z</time>
      </trkpt>
      <trkpt lat="45.691" lon="4.49286">
        <ele>607.21</ele>
        <time>2017-02-12T09:06:25Z</time>
      </trkpt>
      <trkpt lat="45.69102" lon="4.49284">
        <ele>607.21</ele>
        <time>2017-02-12T09:06:28Z</time>
      </trkpt>
      <trkpt lat="45.69118" lon="4.4927">
        <ele>604.81</ele>
        <time>2017-02-12T09:06:44Z</time>
      </trkpt>
      <trkpt lat="45.69128" lon="4.49254">
        <ele>603.85</ele>
        <time>2017-02-12T09:06:57Z</time>
      </trkpt>
      <trkpt lat="45.69131" lon="4.49245">
        <ele>602.4</ele>
        <time>2017-02-12T09:07:02Z</time>
      </trkpt>
      <trkpt lat="45.69136" lon="4.4922">
        <ele>602.88</ele>
        <time>2017-02-12T09:07:18Z</time>
      </trkpt>
      <trkpt lat="45.69138" lon="4.49212">
        <ele>600</ele>
        <time>2017-02-12T09:07:32Z</time>
      </trkpt>
      <trkpt lat="45.69138" lon="4.49219">
        <ele>599.04</ele>
        <time>2017-02-12T09:07:39Z</time>
      </trkpt>
      <trkpt lat="45.69136" lon="4.49236">
        <ele>598.56</ele>
        <time>2017-02-12T09:07:54Z</time>
      </trkpt>
      <trkpt lat="45.69135" lon="4.49237">
        <ele>597.6</ele>
        <time>2017-02-12T09:08:09Z</time>
      </trkpt>
      <trkpt lat="45.69134" lon="4.49238">
        <ele>595.19</ele>
        <time>2017-02-12T09:08:31Z</time>
      </trkpt>
      <trkpt lat="45.69135" lon="4.49237">
        <ele>594.23</ele>
        <time>2017-02-12T09:08:46Z</time>
      </trkpt>
      <trkpt lat="45.69136" lon="4.49238">
        <ele>595.19</ele>
        <time>2017-02-12T09:09:02Z</time>
      </trkpt>
      <trkpt lat="45.69136" lon="4.49236">
        <ele>595.67</ele>
        <time>2017-02-12T09:09:15Z</time>
      </trkpt>
      <trkpt lat="45.69138" lon="4.49218">
        <ele>597.6</ele>
        <time>2017-02-12T09:09:28Z</time>
      </trkpt>
      <trkpt lat="45.69131" lon="4.49188">
        <ele>597.6</ele>
        <time>2017-02-12T09:09:46Z</time>
      </trkpt>
      <trkpt lat="45.69121" lon="4.49167">
        <ele>596.64</ele>
        <time>2017-02-12T09:10:00Z</time>
      </trkpt>
      <trkpt lat="45.69113" lon="4.49145">
        <ele>595.67</ele>
        <time>2017-02-12T09:10:15Z</time>
      </trkpt>
      <trkpt lat="45.69108" lon="4.49122">
        <ele>598.08</ele>
        <time>2017-02-12T09:10:27Z</time>
      </trkpt>
      <trkpt lat="45.69107" lon="4.49099">
        <ele>603.36</ele>
        <time>2017-02-12T09:10:39Z</time>
      </trkpt>
      <trkpt lat="45.69114" lon="4.49065">
        <ele>602.4</ele>
        <time>2017-02-12T09:10:54Z</time>
      </trkpt>
      <trkpt lat="45.69119" lon="4.49026">
        <ele>595.67</ele>
        <time>2017-02-12T09:11:12Z</time>
      </trkpt>
      <trkpt lat="45.69129" lon="4.49">
        <ele>592.31</ele>
        <time>2017-02-12T09:11:27Z</time>
      </trkpt>
      <trkpt lat="45.69149" lon="4.48962">
        <ele>588.46</ele>
        <time>2017-02-12T09:11:48Z</time>
      </trkpt>
      <trkpt lat="45.69158" lon="4.4893">
        <ele>588.46</ele>
        <time>2017-02-12T09:12:06Z</time>
      </trkpt>
      <trkpt lat="45.69162" lon="4.48901">
        <ele>593.27</ele>
        <time>2017-02-12T09:12:23Z</time>
      </trkpt>
      <trkpt lat="45.69165" lon="4.4888">
        <ele>592.79</ele>
        <time>2017-02-12T09:12:36Z</time>
      </trkpt>
      <trkpt lat="45.69174" lon="4.4886">
        <ele>590.39</ele>
        <time>2017-02-12T09:12:48Z</time>
      </trkpt>
      <trkpt lat="45.69182" lon="4.48843">
        <ele>589.43</ele>
        <time>2017-02-12T09:12:59Z</time>
      </trkpt>
      <trkpt lat="45.69189" lon="4.4883">
        <ele>587.5</ele>
        <time>2017-02-12T09:13:07Z</time>
      </trkpt>
      <trkpt lat="45.69198" lon="4.488">
        <ele>579.81</ele>
        <time>2017-02-12T09:13:22Z</time>
      </trkpt>
      <trkpt lat="45.69199" lon="4.48782">
        <ele>578.85</ele>
        <time>2017-02-12T09:13:32Z</time>
      </trkpt>
      <trkpt lat="45.69197" lon="4.48772">
        <ele>577.89</ele>
        <time>2017-02-12T09:13:38Z</time>
      </trkpt>
      <trkpt lat="45.69193" lon="4.48758">
        <ele>578.37</ele>
        <time>2017-02-12T09:13:45Z</time>
      </trkpt>
      <trkpt lat="45.69191" lon="4.48747">
        <ele>577.89</ele>
        <time>2017-02-12T09:13:50Z</time>
      </trkpt>
      <trkpt lat="45.69182" lon="4.48721">
        <ele>576.45</ele>
        <time>2017-02-12T09:14:05Z</time>
      </trkpt>
      <trkpt lat="45.69173" lon="4.48709">
        <ele>575.01</ele>
        <time>2017-02-12T09:14:15Z</time>
      </trkpt>
      <trkpt lat="45.69157" lon="4.48695">
        <ele>575.01</ele>
        <time>2017-02-12T09:14:31Z</time>
      </trkpt>
      <trkpt lat="45.69148" lon="4.48688">
        <ele>574.53</ele>
        <time>2017-02-12T09:14:41Z</time>
      </trkpt>
      <trkpt lat="45.69137" lon="4.48679">
        <ele>574.53</ele>
        <time>2017-02-12T09:14:52Z</time>
      </trkpt>
      <trkpt lat="45.69124" lon="4.48671">
        <ele>573.56</ele>
        <time>2017-02-12T09:15:02Z</time>
      </trkpt>
      <trkpt lat="45.69106" lon="4.48658">
        <ele>577.89</ele>
        <time>2017-02-12T09:15:15Z</time>
      </trkpt>
      <trkpt lat="45.69104" lon="4.48647">
        <ele>580.29</ele>
        <time>2017-02-12T09:15:20Z</time>
      </trkpt>
      <trkpt lat="45.69111" lon="4.48638">
        <ele>579.81</ele>
        <time>2017-02-12T09:15:27Z</time>
      </trkpt>
      <trkpt lat="45.69121" lon="4.48632">
        <ele>579.81</ele>
        <time>2017-02-12T09:15:38Z</time>
      </trkpt>
      <trkpt lat="45.69124" lon="4.48631">
        <ele>580.77</ele>
        <time>2017-02-12T09:15:41Z</time>
      </trkpt>
      <trkpt lat="45.69138" lon="4.48627">
        <ele>583.18</ele>
        <time>2017-02-12T09:15:55Z</time>
      </trkpt>
      <trkpt lat="45.69156" lon="4.48624">
        <ele>588.46</ele>
        <time>2017-02-12T09:16:09Z</time>
      </trkpt>
      <trkpt lat="45.69168" lon="4.48623">
        <ele>591.83</ele>
        <time>2017-02-12T09:16:21Z</time>
      </trkpt>
      <trkpt lat="45.69186" lon="4.48624">
        <ele>587.5</ele>
        <time>2017-02-12T09:16:34Z</time>
      </trkpt>
      <trkpt lat="45.69204" lon="4.48621">
        <ele>583.66</ele>
        <time>2017-02-12T09:16:44Z</time>
      </trkpt>
      <trkpt lat="45.69227" lon="4.48625">
        <ele>581.25</ele>
        <time>2017-02-12T09:17:00Z</time>
      </trkpt>
      <trkpt lat="45.69249" lon="4.48614">
        <ele>577.41</ele>
        <time>2017-02-12T09:17:16Z</time>
      </trkpt>
      <trkpt lat="45.6926" lon="4.48589">
        <ele>577.41</ele>
        <time>2017-02-12T09:17:33Z</time>
      </trkpt>
      <trkpt lat="45.69262" lon="4.48584">
        <ele>577.41</ele>
        <time>2017-02-12T09:17:37Z</time>
      </trkpt>
      <trkpt lat="45.69269" lon="4.48563">
        <ele>578.37</ele>
        <time>2017-02-12T09:17:51Z</time>
      </trkpt>
      <trkpt lat="45.69286" lon="4.48541">
        <ele>581.25</ele>
        <time>2017-02-12T09:18:08Z</time>
      </trkpt>
      <trkpt lat="45.693" lon="4.48527">
        <ele>583.18</ele>
        <time>2017-02-12T09:18:23Z</time>
      </trkpt>
      <trkpt lat="45.69315" lon="4.48503">
        <ele>581.73</ele>
        <time>2017-02-12T09:18:41Z</time>
      </trkpt>
      <trkpt lat="45.6932" lon="4.48491">
        <ele>581.25</ele>
        <time>2017-02-12T09:18:48Z</time>
      </trkpt>
      <trkpt lat="45.69323" lon="4.48483">
        <ele>581.73</ele>
        <time>2017-02-12T09:18:54Z</time>
      </trkpt>
      <trkpt lat="45.69331" lon="4.48464">
        <ele>582.22</ele>
        <time>2017-02-12T09:19:06Z</time>
      </trkpt>
      <trkpt lat="45.69338" lon="4.48436">
        <ele>582.22</ele>
        <time>2017-02-12T09:19:21Z</time>
      </trkpt>
      <trkpt lat="45.6935" lon="4.48407">
        <ele>583.18</ele>
        <time>2017-02-12T09:19:39Z</time>
      </trkpt>
      <trkpt lat="45.69352" lon="4.484">
        <ele>583.18</ele>
        <time>2017-02-12T09:19:43Z</time>
      </trkpt>
      <trkpt lat="45.69365" lon="4.48369">
        <ele>585.1</ele>
        <time>2017-02-12T09:20:03Z</time>
      </trkpt>
      <trkpt lat="45.69367" lon="4.48361">
        <ele>585.1</ele>
        <time>2017-02-12T09:20:08Z</time>
      </trkpt>
      <trkpt lat="45.69367" lon="4.48338">
        <ele>586.54</ele>
        <time>2017-02-12T09:20:22Z</time>
      </trkpt>
      <trkpt lat="45.69357" lon="4.48307">
        <ele>584.14</ele>
        <time>2017-02-12T09:20:39Z</time>
      </trkpt>
      <trkpt lat="45.69348" lon="4.48293">
        <ele>583.66</ele>
        <time>2017-02-12T09:20:49Z</time>
      </trkpt>
      <trkpt lat="45.69347" lon="4.4829">
        <ele>584.14</ele>
        <time>2017-02-12T09:20:51Z</time>
      </trkpt>
      <trkpt lat="45.69339" lon="4.48278">
        <ele>584.14</ele>
        <time>2017-02-12T09:21:01Z</time>
      </trkpt>
      <trkpt lat="45.69329" lon="4.48255">
        <ele>586.06</ele>
        <time>2017-02-12T09:21:17Z</time>
      </trkpt>
      <trkpt lat="45.69323" lon="4.48237">
        <ele>588.46</ele>
        <time>2017-02-12T09:21:29Z</time>
      </trkpt>
      <trkpt lat="45.69317" lon="4.48217">
        <ele>593.75</ele>
        <time>2017-02-12T09:21:43Z</time>
      </trkpt>
      <trkpt lat="45.69316" lon="4.48179">
        <ele>596.64</ele>
        <time>2017-02-12T09:21:58Z</time>
      </trkpt>
      <trkpt lat="45.6932" lon="4.48154">
        <ele>594.23</ele>
        <time>2017-02-12T09:22:11Z</time>
      </trkpt>
      <trkpt lat="45.69317" lon="4.48132">
        <ele>594.23</ele>
        <time>2017-02-12T09:22:25Z</time>
      </trkpt>
      <trkpt lat="45.69314" lon="4.48123">
        <ele>596.15</ele>
        <time>2017-02-12T09:22:32Z</time>
      </trkpt>
      <trkpt lat="45.69312" lon="4.48115">
        <ele>596.64</ele>
        <time>2017-02-12T09:22:36Z</time>
      </trkpt>
      <trkpt lat="45.69311" lon="4.48109">
        <ele>597.12</ele>
        <time>2017-02-12T09:22:39Z</time>
      </trkpt>
      <trkpt lat="45.69316" lon="4.48087">
        <ele>596.15</ele>
        <time>2017-02-12T09:22:50Z</time>
      </trkpt>
      <trkpt lat="45.69323" lon="4.48083">
        <ele>599.04</ele>
        <time>2017-02-12T09:22:56Z</time>
      </trkpt>
      <trkpt lat="45.6934" lon="4.48073">
        <ele>602.4</ele>
        <time>2017-02-12T09:23:10Z</time>
      </trkpt>
      <trkpt lat="45.6936" lon="4.48061">
        <ele>601.92</ele>
        <time>2017-02-12T09:23:24Z</time>
      </trkpt>
      <trkpt lat="45.6938" lon="4.48046">
        <ele>600</ele>
        <time>2017-02-12T09:23:39Z</time>
      </trkpt>
      <trkpt lat="45.69405" lon="4.48029">
        <ele>595.19</ele>
        <time>2017-02-12T09:23:56Z</time>
      </trkpt>
      <trkpt lat="45.69428" lon="4.48019">
        <ele>591.83</ele>
        <time>2017-02-12T09:24:15Z</time>
      </trkpt>
      <trkpt lat="45.69448" lon="4.48009">
        <ele>591.83</ele>
        <time>2017-02-12T09:24:32Z</time>
      </trkpt>
      <trkpt lat="45.69467" lon="4.47998">
        <ele>590.39</ele>
        <time>2017-02-12T09:24:47Z</time>
      </trkpt>
      <trkpt lat="45.69482" lon="4.47975">
        <ele>589.43</ele>
        <time>2017-02-12T09:25:04Z</time>
      </trkpt>
      <trkpt lat="45.6949" lon="4.47941">
        <ele>587.98</ele>
        <time>2017-02-12T09:25:23Z</time>
      </trkpt>
      <trkpt lat="45.69494" lon="4.47916">
        <ele>587.5</ele>
        <time>2017-02-12T09:25:36Z</time>
      </trkpt>
      <trkpt lat="45.69497" lon="4.47899">
        <ele>587.5</ele>
        <time>2017-02-12T09:25:45Z</time>
      </trkpt>
      <trkpt lat="45.69499" lon="4.47876">
        <ele>587.5</ele>
        <time>2017-02-12T09:25:57Z</time>
      </trkpt>
      <trkpt lat="45.695" lon="4.47861">
        <ele>586.06</ele>
        <time>2017-02-12T09:26:09Z</time>
      </trkpt>
      <trkpt lat="45.69501" lon="4.47847">
        <ele>586.06</ele>
        <time>2017-02-12T09:26:21Z</time>
      </trkpt>
      <trkpt lat="45.69501" lon="4.47839">
        <ele>585.58</ele>
        <time>2017-02-12T09:26:29Z</time>
      </trkpt>
      <trkpt lat="45.69501" lon="4.47836">
        <ele>585.1</ele>
        <time>2017-02-12T09:26:39Z</time>
      </trkpt>
      <trkpt lat="45.69502" lon="4.47811">
        <ele>585.58</ele>
        <time>2017-02-12T09:26:53Z</time>
      </trkpt>
      <trkpt lat="45.69498" lon="4.47785">
        <ele>583.66</ele>
        <time>2017-02-12T09:27:08Z</time>
      </trkpt>
      <trkpt lat="45.69485" lon="4.47758">
        <ele>578.85</ele>
        <time>2017-02-12T09:27:26Z</time>
      </trkpt>
      <trkpt lat="45.69472" lon="4.4774">
        <ele>575.49</ele>
        <time>2017-02-12T09:27:42Z</time>
      </trkpt>
      <trkpt lat="45.69467" lon="4.47736">
        <ele>574.04</ele>
        <time>2017-02-12T09:27:48Z</time>
      </trkpt>
      <trkpt lat="45.69455" lon="4.47725">
        <ele>573.08</ele>
        <time>2017-02-12T09:28:03Z</time>
      </trkpt>
      <trkpt lat="45.69444" lon="4.47709">
        <ele>571.64</ele>
        <time>2017-02-12T09:28:14Z</time>
      </trkpt>
      <trkpt lat="45.6944" lon="4.47705">
        <ele>571.64</ele>
        <time>2017-02-12T09:28:18Z</time>
      </trkpt>
      <trkpt lat="45.69427" lon="4.47692">
        <ele>569.24</ele>
        <time>2017-02-12T09:28:31Z</time>
      </trkpt>
      <trkpt lat="45.69414" lon="4.47677">
        <ele>570.68</ele>
        <time>2017-02-12T09:28:45Z</time>
      </trkpt>
      <trkpt lat="45.69408" lon="4.47665">
        <ele>569.24</ele>
        <time>2017-02-12T09:28:54Z</time>
      </trkpt>
      <trkpt lat="45.69409" lon="4.47639">
        <ele>567.8</ele>
        <time>2017-02-12T09:29:09Z</time>
      </trkpt>
      <trkpt lat="45.69414" lon="4.47619">
        <ele>565.39</ele>
        <time>2017-02-12T09:29:22Z</time>
      </trkpt>
      <trkpt lat="45.69423" lon="4.47594">
        <ele>563.95</ele>
        <time>2017-02-12T09:29:36Z</time>
      </trkpt>
      <trkpt lat="45.69428" lon="4.47579">
        <ele>562.99</ele>
        <time>2017-02-12T09:29:45Z</time>
      </trkpt>
      <trkpt lat="45.69432" lon="4.47568">
        <ele>562.51</ele>
        <time>2017-02-12T09:29:52Z</time>
      </trkpt>
      <trkpt lat="45.69439" lon="4.47548">
        <ele>560.11</ele>
        <time>2017-02-12T09:30:04Z</time>
      </trkpt>
      <trkpt lat="45.69442" lon="4.47532">
        <ele>558.66</ele>
        <time>2017-02-12T09:30:13Z</time>
      </trkpt>
      <trkpt lat="45.69442" lon="4.47509">
        <ele>556.26</ele>
        <time>2017-02-12T09:30:28Z</time>
      </trkpt>
      <trkpt lat="45.69441" lon="4.47496">
        <ele>555.3</ele>
        <time>2017-02-12T09:30:35Z</time>
      </trkpt>
      <trkpt lat="45.6944" lon="4.47487">
        <ele>554.34</ele>
        <time>2017-02-12T09:30:40Z</time>
      </trkpt>
      <trkpt lat="45.69433" lon="4.47456">
        <ele>550.49</ele>
        <time>2017-02-12T09:30:58Z</time>
      </trkpt>
      <trkpt lat="45.69431" lon="4.47448">
        <ele>549.53</ele>
        <time>2017-02-12T09:31:03Z</time>
      </trkpt>
      <trkpt lat="45.6943" lon="4.47444">
        <ele>549.53</ele>
        <time>2017-02-12T09:31:05Z</time>
      </trkpt>
      <trkpt lat="45.69427" lon="4.47422">
        <ele>547.13</ele>
        <time>2017-02-12T09:31:17Z</time>
      </trkpt>
      <trkpt lat="45.69422" lon="4.47406">
        <ele>546.17</ele>
        <time>2017-02-12T09:31:30Z</time>
      </trkpt>
      <trkpt lat="45.69409" lon="4.47388">
        <ele>548.09</ele>
        <time>2017-02-12T09:31:45Z</time>
      </trkpt>
      <trkpt lat="45.69389" lon="4.47377">
        <ele>551.45</ele>
        <time>2017-02-12T09:32:02Z</time>
      </trkpt>
      <trkpt lat="45.69384" lon="4.47376">
        <ele>551.93</ele>
        <time>2017-02-12T09:32:15Z</time>
      </trkpt>
      <trkpt lat="45.69384" lon="4.47376">
        <ele>551.45</ele>
        <time>2017-02-12T09:32:35Z</time>
      </trkpt>
      <trkpt lat="45.69384" lon="4.47377">
        <ele>550.97</ele>
        <time>2017-02-12T09:32:58Z</time>
      </trkpt>
      <trkpt lat="45.69383" lon="4.47377">
        <ele>550.01</ele>
        <time>2017-02-12T09:33:20Z</time>
      </trkpt>
      <trkpt lat="45.69383" lon="4.47377">
        <ele>549.05</ele>
        <time>2017-02-12T09:33:41Z</time>
      </trkpt>
      <trkpt lat="45.69382" lon="4.47377">
        <ele>549.53</ele>
        <time>2017-02-12T09:33:57Z</time>
      </trkpt>
      <trkpt lat="45.69366" lon="4.47367">
        <ele>553.38</ele>
        <time>2017-02-12T09:34:12Z</time>
      </trkpt>
      <trkpt lat="45.69346" lon="4.47368">
        <ele>553.38</ele>
        <time>2017-02-12T09:34:30Z</time>
      </trkpt>
      <trkpt lat="45.69329" lon="4.47368">
        <ele>553.38</ele>
        <time>2017-02-12T09:34:45Z</time>
      </trkpt>
      <trkpt lat="45.69312" lon="4.47368">
        <ele>554.34</ele>
        <time>2017-02-12T09:35:00Z</time>
      </trkpt>
      <trkpt lat="45.69294" lon="4.47365">
        <ele>555.78</ele>
        <time>2017-02-12T09:35:16Z</time>
      </trkpt>
      <trkpt lat="45.69272" lon="4.47363">
        <ele>556.74</ele>
        <time>2017-02-12T09:35:33Z</time>
      </trkpt>
      <trkpt lat="45.69248" lon="4.47359">
        <ele>557.22</ele>
        <time>2017-02-12T09:35:51Z</time>
      </trkpt>
      <trkpt lat="45.6923" lon="4.47353">
        <ele>558.18</ele>
        <time>2017-02-12T09:36:05Z</time>
      </trkpt>
      <trkpt lat="45.69216" lon="4.47346">
        <ele>558.66</ele>
        <time>2017-02-12T09:36:16Z</time>
      </trkpt>
      <trkpt lat="45.692" lon="4.47332">
        <ele>560.59</ele>
        <time>2017-02-12T09:36:31Z</time>
      </trkpt>
      <trkpt lat="45.69191" lon="4.47304">
        <ele>561.07</ele>
        <time>2017-02-12T09:36:48Z</time>
      </trkpt>
      <trkpt lat="45.69192" lon="4.47275">
        <ele>560.59</ele>
        <time>2017-02-12T09:37:04Z</time>
      </trkpt>
      <trkpt lat="45.69196" lon="4.47255">
        <ele>561.55</ele>
        <time>2017-02-12T09:37:19Z</time>
      </trkpt>
      <trkpt lat="45.69198" lon="4.47232">
        <ele>564.43</ele>
        <time>2017-02-12T09:37:34Z</time>
      </trkpt>
      <trkpt lat="45.69198" lon="4.47222">
        <ele>565.39</ele>
        <time>2017-02-12T09:37:40Z</time>
      </trkpt>
      <trkpt lat="45.69198" lon="4.47193">
        <ele>566.83</ele>
        <time>2017-02-12T09:37:56Z</time>
      </trkpt>
      <trkpt lat="45.69198" lon="4.47169">
        <ele>569.24</ele>
        <time>2017-02-12T09:38:10Z</time>
      </trkpt>
      <trkpt lat="45.692" lon="4.47148">
        <ele>569.24</ele>
        <time>2017-02-12T09:38:24Z</time>
      </trkpt>
      <trkpt lat="45.69207" lon="4.47136">
        <ele>573.08</ele>
        <time>2017-02-12T09:38:37Z</time>
      </trkpt>
      <trkpt lat="45.69212" lon="4.47115">
        <ele>574.53</ele>
        <time>2017-02-12T09:38:50Z</time>
      </trkpt>
      <trkpt lat="45.69209" lon="4.47077">
        <ele>578.85</ele>
        <time>2017-02-12T09:39:07Z</time>
      </trkpt>
      <trkpt lat="45.69202" lon="4.47056">
        <ele>582.7</ele>
        <time>2017-02-12T09:39:23Z</time>
      </trkpt>
      <trkpt lat="45.69196" lon="4.47043">
        <ele>583.66</ele>
        <time>2017-02-12T09:39:36Z</time>
      </trkpt>
      <trkpt lat="45.69186" lon="4.47027">
        <ele>581.25</ele>
        <time>2017-02-12T09:39:49Z</time>
      </trkpt>
      <trkpt lat="45.69178" lon="4.47013">
        <ele>579.81</ele>
        <time>2017-02-12T09:40:00Z</time>
      </trkpt>
      <trkpt lat="45.69161" lon="4.46992">
        <ele>579.81</ele>
        <time>2017-02-12T09:40:17Z</time>
      </trkpt>
      <trkpt lat="45.69149" lon="4.46983">
        <ele>581.25</ele>
        <time>2017-02-12T09:40:30Z</time>
      </trkpt>
      <trkpt lat="45.69136" lon="4.46971">
        <ele>583.66</ele>
        <time>2017-02-12T09:40:43Z</time>
      </trkpt>
      <trkpt lat="45.69125" lon="4.46959">
        <ele>584.62</ele>
        <time>2017-02-12T09:40:55Z</time>
      </trkpt>
      <trkpt lat="45.69106" lon="4.46947">
        <ele>580.77</ele>
        <time>2017-02-12T09:41:09Z</time>
      </trkpt>
      <trkpt lat="45.69095" lon="4.46932">
        <ele>580.77</ele>
        <time>2017-02-12T09:41:19Z</time>
      </trkpt>
      <trkpt lat="45.69075" lon="4.46917">
        <ele>579.81</ele>
        <time>2017-02-12T09:41:34Z</time>
      </trkpt>
      <trkpt lat="45.69058" lon="4.46907">
        <ele>580.77</ele>
        <time>2017-02-12T09:41:48Z</time>
      </trkpt>
      <trkpt lat="45.6905" lon="4.46899">
        <ele>583.66</ele>
        <time>2017-02-12T09:41:57Z</time>
      </trkpt>
      <trkpt lat="45.69038" lon="4.46888">
        <ele>585.1</ele>
        <time>2017-02-12T09:42:11Z</time>
      </trkpt>
      <trkpt lat="45.69022" lon="4.4688">
        <ele>587.98</ele>
        <time>2017-02-12T09:42:27Z</time>
      </trkpt>
      <trkpt lat="45.69011" lon="4.46874">
        <ele>592.79</ele>
        <time>2017-02-12T09:42:42Z</time>
      </trkpt>
      <trkpt lat="45.69006" lon="4.4687">
        <ele>595.67</ele>
        <time>2017-02-12T09:42:51Z</time>
      </trkpt>
      <trkpt lat="45.69003" lon="4.46861">
        <ele>598.56</ele>
        <time>2017-02-12T09:43:02Z</time>
      </trkpt>
      <trkpt lat="45.68989" lon="4.46858">
        <ele>598.56</ele>
        <time>2017-02-12T09:43:10Z</time>
      </trkpt>
      <trkpt lat="45.68982" lon="4.46848">
        <ele>599.04</ele>
        <time>2017-02-12T09:43:23Z</time>
      </trkpt>
      <trkpt lat="45.68978" lon="4.46834">
        <ele>596.15</ele>
        <time>2017-02-12T09:43:39Z</time>
      </trkpt>
      <trkpt lat="45.68977" lon="4.46827">
        <ele>593.27</ele>
        <time>2017-02-12T09:43:45Z</time>
      </trkpt>
      <trkpt lat="45.68978" lon="4.46816">
        <ele>592.31</ele>
        <time>2017-02-12T09:43:56Z</time>
      </trkpt>
      <trkpt lat="45.68979" lon="4.46799">
        <ele>589.43</ele>
        <time>2017-02-12T09:44:19Z</time>
      </trkpt>
      <trkpt lat="45.68979" lon="4.46798">
        <ele>588.95</ele>
        <time>2017-02-12T09:44:40Z</time>
      </trkpt>
      <trkpt lat="45.68979" lon="4.46793">
        <ele>586.06</ele>
        <time>2017-02-12T09:45:08Z</time>
      </trkpt>
      <trkpt lat="45.68979" lon="4.46789">
        <ele>584.14</ele>
        <time>2017-02-12T09:45:26Z</time>
      </trkpt>
      <trkpt lat="45.6898" lon="4.46787">
        <ele>583.18</ele>
        <time>2017-02-12T09:45:46Z</time>
      </trkpt>
      <trkpt lat="45.6898" lon="4.46787">
        <ele>582.22</ele>
        <time>2017-02-12T09:46:02Z</time>
      </trkpt>
      <trkpt lat="45.6898" lon="4.46786">
        <ele>581.73</ele>
        <time>2017-02-12T09:46:19Z</time>
      </trkpt>
      <trkpt lat="45.68981" lon="4.46784">
        <ele>581.25</ele>
        <time>2017-02-12T09:46:38Z</time>
      </trkpt>
      <trkpt lat="45.68981" lon="4.46784">
        <ele>581.25</ele>
        <time>2017-02-12T09:47:01Z</time>
      </trkpt>
      <trkpt lat="45.68981" lon="4.46784">
        <ele>581.25</ele>
        <time>2017-02-12T09:47:21Z</time>
      </trkpt>
      <trkpt lat="45.68981" lon="4.46784">
        <ele>580.29</ele>
        <time>2017-02-12T09:47:33Z</time>
      </trkpt>
      <trkpt lat="45.68981" lon="4.46784">
        <ele>579.81</ele>
        <time>2017-02-12T09:47:48Z</time>
      </trkpt>
      <trkpt lat="45.6898" lon="4.46783">
        <ele>579.33</ele>
        <time>2017-02-12T09:48:04Z</time>
      </trkpt>
      <trkpt lat="45.68981" lon="4.46783">
        <ele>578.37</ele>
        <time>2017-02-12T09:48:22Z</time>
      </trkpt>
      <trkpt lat="45.68981" lon="4.46783">
        <ele>577.89</ele>
        <time>2017-02-12T09:48:38Z</time>
      </trkpt>
      <trkpt lat="45.68981" lon="4.46781">
        <ele>576.45</ele>
        <time>2017-02-12T09:49:00Z</time>
      </trkpt>
      <trkpt lat="45.68982" lon="4.4678">
        <ele>575.49</ele>
        <time>2017-02-12T09:49:22Z</time>
      </trkpt>
      <trkpt lat="45.68982" lon="4.4678">
        <ele>575.01</ele>
        <time>2017-02-12T09:49:43Z</time>
      </trkpt>
      <trkpt lat="45.68982" lon="4.46781">
        <ele>575.01</ele>
        <time>2017-02-12T09:50:01Z</time>
      </trkpt>
      <trkpt lat="45.68986" lon="4.46777">
        <ele>576.93</ele>
        <time>2017-02-12T09:50:14Z</time>
      </trkpt>
      <trkpt lat="45.68992" lon="4.46771">
        <ele>578.85</ele>
        <time>2017-02-12T09:50:26Z</time>
      </trkpt>
      <trkpt lat="45.69004" lon="4.46761">
        <ele>581.73</ele>
        <time>2017-02-12T09:50:39Z</time>
      </trkpt>
      <trkpt lat="45.69019" lon="4.46749">
        <ele>579.81</ele>
        <time>2017-02-12T09:50:52Z</time>
      </trkpt>
      <trkpt lat="45.69033" lon="4.46736">
        <ele>577.41</ele>
        <time>2017-02-12T09:51:04Z</time>
      </trkpt>
      <trkpt lat="45.69046" lon="4.46727">
        <ele>574.04</ele>
        <time>2017-02-12T09:51:16Z</time>
      </trkpt>
      <trkpt lat="45.69055" lon="4.46713">
        <ele>568.76</ele>
        <time>2017-02-12T09:51:31Z</time>
      </trkpt>
      <trkpt lat="45.69065" lon="4.46699">
        <ele>566.83</ele>
        <time>2017-02-12T09:51:42Z</time>
      </trkpt>
      <trkpt lat="45.69072" lon="4.46678">
        <ele>562.99</ele>
        <time>2017-02-12T09:51:56Z</time>
      </trkpt>
      <trkpt lat="45.69073" lon="4.46675">
        <ele>562.03</ele>
        <time>2017-02-12T09:51:58Z</time>
      </trkpt>
      <trkpt lat="45.69077" lon="4.46654">
        <ele>556.74</ele>
        <time>2017-02-12T09:52:11Z</time>
      </trkpt>
      <trkpt lat="45.69078" lon="4.46649">
        <ele>555.78</ele>
        <time>2017-02-12T09:52:14Z</time>
      </trkpt>
      <trkpt lat="45.6908" lon="4.46622">
        <ele>551.45</ele>
        <time>2017-02-12T09:52:30Z</time>
      </trkpt>
      <trkpt lat="45.69078" lon="4.466">
        <ele>548.57</ele>
        <time>2017-02-12T09:52:45Z</time>
      </trkpt>
      <trkpt lat="45.69076" lon="4.4659">
        <ele>545.69</ele>
        <time>2017-02-12T09:52:53Z</time>
      </trkpt>
      <trkpt lat="45.69075" lon="4.46585">
        <ele>544.72</ele>
        <time>2017-02-12T09:52:57Z</time>
      </trkpt>
      <trkpt lat="45.69065" lon="4.46561">
        <ele>538.48</ele>
        <time>2017-02-12T09:53:14Z</time>
      </trkpt>
      <trkpt lat="45.69056" lon="4.46539">
        <ele>533.19</ele>
        <time>2017-02-12T09:53:31Z</time>
      </trkpt>
      <trkpt lat="45.69049" lon="4.46515">
        <ele>530.79</ele>
        <time>2017-02-12T09:53:48Z</time>
      </trkpt>
      <trkpt lat="45.69048" lon="4.46498">
        <ele>525.98</ele>
        <time>2017-02-12T09:54:02Z</time>
      </trkpt>
      <trkpt lat="45.69041" lon="4.4648">
        <ele>523.58</ele>
        <time>2017-02-12T09:54:18Z</time>
      </trkpt>
      <trkpt lat="45.69037" lon="4.46468">
        <ele>522.13</ele>
        <time>2017-02-12T09:54:30Z</time>
      </trkpt>
      <trkpt lat="45.69034" lon="4.46457">
        <ele>517.81</ele>
        <time>2017-02-12T09:54:43Z</time>
      </trkpt>
      <trkpt lat="45.69027" lon="4.46442">
        <ele>513.48</ele>
        <time>2017-02-12T09:54:56Z</time>
      </trkpt>
      <trkpt lat="45.69021" lon="4.46423">
        <ele>513.48</ele>
        <time>2017-02-12T09:55:07Z</time>
      </trkpt>
      <trkpt lat="45.69012" lon="4.46401">
        <ele>513</ele>
        <time>2017-02-12T09:55:22Z</time>
      </trkpt>
      <trkpt lat="45.69017" lon="4.46386">
        <ele>510.6</ele>
        <time>2017-02-12T09:55:36Z</time>
      </trkpt>
      <trkpt lat="45.69018" lon="4.46384">
        <ele>511.08</ele>
        <time>2017-02-12T09:55:42Z</time>
      </trkpt>
      <trkpt lat="45.69025" lon="4.46377">
        <ele>513.48</ele>
        <time>2017-02-12T09:55:53Z</time>
      </trkpt>
      <trkpt lat="45.69033" lon="4.46371">
        <ele>514.92</ele>
        <time>2017-02-12T09:56:01Z</time>
      </trkpt>
      <trkpt lat="45.69045" lon="4.46364">
        <ele>519.73</ele>
        <time>2017-02-12T09:56:10Z</time>
      </trkpt>
      <trkpt lat="45.69051" lon="4.4636">
        <ele>520.69</ele>
        <time>2017-02-12T09:56:20Z</time>
      </trkpt>
      <trkpt lat="45.69052" lon="4.4636">
        <ele>520.69</ele>
        <time>2017-02-12T09:56:21Z</time>
      </trkpt>
      <trkpt lat="45.69063" lon="4.46353">
        <ele>519.25</ele>
        <time>2017-02-12T09:56:33Z</time>
      </trkpt>
      <trkpt lat="45.69074" lon="4.46344">
        <ele>519.73</ele>
        <time>2017-02-12T09:56:42Z</time>
      </trkpt>
      <trkpt lat="45.69083" lon="4.46341">
        <ele>519.73</ele>
        <time>2017-02-12T09:56:52Z</time>
      </trkpt>
      <trkpt lat="45.69094" lon="4.46328">
        <ele>519.25</ele>
        <time>2017-02-12T09:57:02Z</time>
      </trkpt>
      <trkpt lat="45.69108" lon="4.46309">
        <ele>514.44</ele>
        <time>2017-02-12T09:57:15Z</time>
      </trkpt>
      <trkpt lat="45.69121" lon="4.46298">
        <ele>512.04</ele>
        <time>2017-02-12T09:57:27Z</time>
      </trkpt>
      <trkpt lat="45.69131" lon="4.46287">
        <ele>513</ele>
        <time>2017-02-12T09:57:38Z</time>
      </trkpt>
      <trkpt lat="45.69142" lon="4.46272">
        <ele>512.04</ele>
        <time>2017-02-12T09:57:49Z</time>
      </trkpt>
      <trkpt lat="45.69148" lon="4.46266">
        <ele>512.04</ele>
        <time>2017-02-12T09:57:53Z</time>
      </trkpt>
      <trkpt lat="45.69162" lon="4.46247">
        <ele>510.6</ele>
        <time>2017-02-12T09:58:06Z</time>
      </trkpt>
      <trkpt lat="45.69166" lon="4.46244">
        <ele>512.04</ele>
        <time>2017-02-12T09:58:11Z</time>
      </trkpt>
      <trkpt lat="45.69177" lon="4.46234">
        <ele>513.96</ele>
        <time>2017-02-12T09:58:22Z</time>
      </trkpt>
      <trkpt lat="45.69184" lon="4.46225">
        <ele>514.44</ele>
        <time>2017-02-12T09:58:32Z</time>
      </trkpt>
      <trkpt lat="45.6919" lon="4.46209">
        <ele>512.52</ele>
        <time>2017-02-12T09:58:39Z</time>
      </trkpt>
      <trkpt lat="45.692" lon="4.46174">
        <ele>503.39</ele>
        <time>2017-02-12T09:58:50Z</time>
      </trkpt>
      <trkpt lat="45.692" lon="4.46172">
        <ele>503.39</ele>
        <time>2017-02-12T09:58:51Z</time>
      </trkpt>
      <trkpt lat="45.69201" lon="4.46166">
        <ele>501.95</ele>
        <time>2017-02-12T09:58:54Z</time>
      </trkpt>
      <trkpt lat="45.69201" lon="4.46138">
        <ele>498.1</ele>
        <time>2017-02-12T09:59:10Z</time>
      </trkpt>
      <trkpt lat="45.69201" lon="4.46114">
        <ele>494.26</ele>
        <time>2017-02-12T09:59:25Z</time>
      </trkpt>
      <trkpt lat="45.69201" lon="4.46104">
        <ele>492.81</ele>
        <time>2017-02-12T09:59:32Z</time>
      </trkpt>
      <trkpt lat="45.69201" lon="4.46101">
        <ele>492.33</ele>
        <time>2017-02-12T09:59:34Z</time>
      </trkpt>
      <trkpt lat="45.69202" lon="4.46077">
        <ele>489.93</ele>
        <time>2017-02-12T09:59:47Z</time>
      </trkpt>
      <trkpt lat="45.69205" lon="4.46071">
        <ele>488.97</ele>
        <time>2017-02-12T10:00:02Z</time>
      </trkpt>
      <trkpt lat="45.69205" lon="4.46069">
        <ele>488.49</ele>
        <time>2017-02-12T10:00:19Z</time>
      </trkpt>
      <trkpt lat="45.69204" lon="4.46057">
        <ele>487.53</ele>
        <time>2017-02-12T10:00:35Z</time>
      </trkpt>
      <trkpt lat="45.69203" lon="4.4605">
        <ele>487.05</ele>
        <time>2017-02-12T10:00:39Z</time>
      </trkpt>
      <trkpt lat="45.69198" lon="4.46035">
        <ele>486.08</ele>
        <time>2017-02-12T10:00:49Z</time>
      </trkpt>
      <trkpt lat="45.69189" lon="4.46003">
        <ele>486.56</ele>
        <time>2017-02-12T10:01:06Z</time>
      </trkpt>
      <trkpt lat="45.69179" lon="4.45974">
        <ele>485.12</ele>
        <time>2017-02-12T10:01:23Z</time>
      </trkpt>
      <trkpt lat="45.69169" lon="4.45951">
        <ele>484.64</ele>
        <time>2017-02-12T10:01:39Z</time>
      </trkpt>
      <trkpt lat="45.69161" lon="4.45928">
        <ele>487.05</ele>
        <time>2017-02-12T10:01:55Z</time>
      </trkpt>
      <trkpt lat="45.69145" lon="4.45902">
        <ele>483.68</ele>
        <time>2017-02-12T10:02:11Z</time>
      </trkpt>
      <trkpt lat="45.69143" lon="4.45898">
        <ele>482.72</ele>
        <time>2017-02-12T10:02:14Z</time>
      </trkpt>
      <trkpt lat="45.69142" lon="4.45895">
        <ele>482.72</ele>
        <time>2017-02-12T10:02:17Z</time>
      </trkpt>
      <trkpt lat="45.69128" lon="4.45873">
        <ele>480.8</ele>
        <time>2017-02-12T10:02:33Z</time>
      </trkpt>
      <trkpt lat="45.69114" lon="4.45853">
        <ele>478.87</ele>
        <time>2017-02-12T10:02:46Z</time>
      </trkpt>
      <trkpt lat="45.69103" lon="4.45833">
        <ele>476.95</ele>
        <time>2017-02-12T10:02:57Z</time>
      </trkpt>
      <trkpt lat="45.69095" lon="4.45814">
        <ele>476.47</ele>
        <time>2017-02-12T10:03:10Z</time>
      </trkpt>
      <trkpt lat="45.69099" lon="4.45807">
        <ele>475.03</ele>
        <time>2017-02-12T10:03:15Z</time>
      </trkpt>
      <trkpt lat="45.69118" lon="4.45782">
        <ele>474.07</ele>
        <time>2017-02-12T10:03:32Z</time>
      </trkpt>
      <trkpt lat="45.69126" lon="4.45758">
        <ele>474.07</ele>
        <time>2017-02-12T10:03:46Z</time>
      </trkpt>
      <trkpt lat="45.69133" lon="4.45737">
        <ele>474.55</ele>
        <time>2017-02-12T10:04:00Z</time>
      </trkpt>
      <trkpt lat="45.6914" lon="4.45712">
        <ele>473.59</ele>
        <time>2017-02-12T10:04:15Z</time>
      </trkpt>
      <trkpt lat="45.69152" lon="4.45685">
        <ele>474.07</ele>
        <time>2017-02-12T10:04:32Z</time>
      </trkpt>
      <trkpt lat="45.69159" lon="4.45668">
        <ele>475.03</ele>
        <time>2017-02-12T10:04:45Z</time>
      </trkpt>
      <trkpt lat="45.69159" lon="4.45667">
        <ele>475.51</ele>
        <time>2017-02-12T10:04:46Z</time>
      </trkpt>
      <trkpt lat="45.69156" lon="4.45639">
        <ele>475.99</ele>
        <time>2017-02-12T10:05:01Z</time>
      </trkpt>
      <trkpt lat="45.69153" lon="4.45633">
        <ele>475.99</ele>
        <time>2017-02-12T10:05:05Z</time>
      </trkpt>
      <trkpt lat="45.6915" lon="4.45617">
        <ele>476.47</ele>
        <time>2017-02-12T10:05:14Z</time>
      </trkpt>
      <trkpt lat="45.69148" lon="4.45611">
        <ele>476.95</ele>
        <time>2017-02-12T10:05:18Z</time>
      </trkpt>
      <trkpt lat="45.69141" lon="4.45583">
        <ele>476.47</ele>
        <time>2017-02-12T10:05:35Z</time>
      </trkpt>
      <trkpt lat="45.69138" lon="4.45568">
        <ele>476.47</ele>
        <time>2017-02-12T10:05:47Z</time>
      </trkpt>
      <trkpt lat="45.69136" lon="4.45546">
        <ele>475.99</ele>
        <time>2017-02-12T10:06:00Z</time>
      </trkpt>
      <trkpt lat="45.69134" lon="4.45529">
        <ele>475.51</ele>
        <time>2017-02-12T10:06:12Z</time>
      </trkpt>
      <trkpt lat="45.69132" lon="4.4551">
        <ele>475.51</ele>
        <time>2017-02-12T10:06:22Z</time>
      </trkpt>
      <trkpt lat="45.69129" lon="4.45503">
        <ele>475.51</ele>
        <time>2017-02-12T10:06:27Z</time>
      </trkpt>
      <trkpt lat="45.69124" lon="4.45495">
        <ele>474.07</ele>
        <time>2017-02-12T10:06:34Z</time>
      </trkpt>
      <trkpt lat="45.69112" lon="4.45472">
        <ele>472.63</ele>
        <time>2017-02-12T10:06:49Z</time>
      </trkpt>
      <trkpt lat="45.69103" lon="4.45446">
        <ele>471.18</ele>
        <time>2017-02-12T10:07:05Z</time>
      </trkpt>
      <trkpt lat="45.69094" lon="4.4543">
        <ele>469.74</ele>
        <time>2017-02-12T10:07:16Z</time>
      </trkpt>
      <trkpt lat="45.69094" lon="4.45423">
        <ele>468.78</ele>
        <time>2017-02-12T10:07:20Z</time>
      </trkpt>
      <trkpt lat="45.69101" lon="4.45406">
        <ele>463.01</ele>
        <time>2017-02-12T10:07:33Z</time>
      </trkpt>
      <trkpt lat="45.69103" lon="4.45402">
        <ele>459.65</ele>
        <time>2017-02-12T10:07:38Z</time>
      </trkpt>
      <trkpt lat="45.69108" lon="4.45378">
        <ele>449.07</ele>
        <time>2017-02-12T10:07:51Z</time>
      </trkpt>
      <trkpt lat="45.69111" lon="4.45357">
        <ele>450.52</ele>
        <time>2017-02-12T10:08:02Z</time>
      </trkpt>
      <trkpt lat="45.69124" lon="4.45323">
        <ele>454.84</ele>
        <time>2017-02-12T10:08:19Z</time>
      </trkpt>
      <trkpt lat="45.69128" lon="4.45312">
        <ele>454.84</ele>
        <time>2017-02-12T10:08:26Z</time>
      </trkpt>
      <trkpt lat="45.69128" lon="4.45307">
        <ele>454.36</ele>
        <time>2017-02-12T10:08:29Z</time>
      </trkpt>
      <trkpt lat="45.69116" lon="4.45289">
        <ele>454.84</ele>
        <time>2017-02-12T10:08:45Z</time>
      </trkpt>
      <trkpt lat="45.69097" lon="4.45281">
        <ele>454.36</ele>
        <time>2017-02-12T10:09:00Z</time>
      </trkpt>
      <trkpt lat="45.69068" lon="4.45282">
        <ele>454.36</ele>
        <time>2017-02-12T10:09:21Z</time>
      </trkpt>
      <trkpt lat="45.69049" lon="4.45284">
        <ele>455.8</ele>
        <time>2017-02-12T10:09:37Z</time>
      </trkpt>
      <trkpt lat="45.69025" lon="4.45292">
        <ele>456.76</ele>
        <time>2017-02-12T10:09:55Z</time>
      </trkpt>
      <trkpt lat="45.69001" lon="4.4529">
        <ele>457.24</ele>
        <time>2017-02-12T10:10:13Z</time>
      </trkpt>
      <trkpt lat="45.68982" lon="4.45282">
        <ele>459.17</ele>
        <time>2017-02-12T10:10:29Z</time>
      </trkpt>
      <trkpt lat="45.68967" lon="4.45266">
        <ele>459.65</ele>
        <time>2017-02-12T10:10:43Z</time>
      </trkpt>
      <trkpt lat="45.68954" lon="4.45252">
        <ele>459.17</ele>
        <time>2017-02-12T10:10:56Z</time>
      </trkpt>
      <trkpt lat="45.6894" lon="4.45234">
        <ele>458.21</ele>
        <time>2017-02-12T10:11:11Z</time>
      </trkpt>
      <trkpt lat="45.68927" lon="4.45221">
        <ele>456.76</ele>
        <time>2017-02-12T10:11:22Z</time>
      </trkpt>
      <trkpt lat="45.68916" lon="4.45207">
        <ele>459.65</ele>
        <time>2017-02-12T10:11:35Z</time>
      </trkpt>
      <trkpt lat="45.68904" lon="4.45183">
        <ele>460.13</ele>
        <time>2017-02-12T10:11:51Z</time>
      </trkpt>
      <trkpt lat="45.68903" lon="4.4518">
        <ele>459.65</ele>
        <time>2017-02-12T10:11:53Z</time>
      </trkpt>
      <trkpt lat="45.68898" lon="4.45151">
        <ele>459.65</ele>
        <time>2017-02-12T10:12:09Z</time>
      </trkpt>
      <trkpt lat="45.68896" lon="4.45124">
        <ele>461.09</ele>
        <time>2017-02-12T10:12:23Z</time>
      </trkpt>
      <trkpt lat="45.68892" lon="4.45093">
        <ele>461.09</ele>
        <time>2017-02-12T10:12:40Z</time>
      </trkpt>
      <trkpt lat="45.68886" lon="4.45067">
        <ele>463.01</ele>
        <time>2017-02-12T10:12:55Z</time>
      </trkpt>
      <trkpt lat="45.68874" lon="4.45041">
        <ele>464.93</ele>
        <time>2017-02-12T10:13:13Z</time>
      </trkpt>
      <trkpt lat="45.68872" lon="4.4504">
        <ele>465.42</ele>
        <time>2017-02-12T10:13:15Z</time>
      </trkpt>
      <trkpt lat="45.68854" lon="4.45036">
        <ele>464.45</ele>
        <time>2017-02-12T10:13:28Z</time>
      </trkpt>
      <trkpt lat="45.68834" lon="4.45035">
        <ele>466.38</ele>
        <time>2017-02-12T10:13:46Z</time>
      </trkpt>
      <trkpt lat="45.68818" lon="4.45034">
        <ele>467.82</ele>
        <time>2017-02-12T10:14:00Z</time>
      </trkpt>
      <trkpt lat="45.68799" lon="4.45038">
        <ele>468.78</ele>
        <time>2017-02-12T10:14:17Z</time>
      </trkpt>
      <trkpt lat="45.68782" lon="4.45049">
        <ele>470.7</ele>
        <time>2017-02-12T10:14:35Z</time>
      </trkpt>
      <trkpt lat="45.68773" lon="4.45069">
        <ele>472.63</ele>
        <time>2017-02-12T10:14:49Z</time>
      </trkpt>
      <trkpt lat="45.68763" lon="4.45094">
        <ele>474.07</ele>
        <time>2017-02-12T10:15:05Z</time>
      </trkpt>
      <trkpt lat="45.68757" lon="4.4511">
        <ele>475.51</ele>
        <time>2017-02-12T10:15:17Z</time>
      </trkpt>
      <trkpt lat="45.68754" lon="4.45122">
        <ele>477.91</ele>
        <time>2017-02-12T10:15:26Z</time>
      </trkpt>
      <trkpt lat="45.6875" lon="4.45126">
        <ele>478.39</ele>
        <time>2017-02-12T10:15:30Z</time>
      </trkpt>
      <trkpt lat="45.68732" lon="4.45124">
        <ele>476.95</ele>
        <time>2017-02-12T10:15:46Z</time>
      </trkpt>
      <trkpt lat="45.68721" lon="4.45118">
        <ele>476.95</ele>
        <time>2017-02-12T10:15:57Z</time>
      </trkpt>
      <trkpt lat="45.6871" lon="4.45105">
        <ele>479.84</ele>
        <time>2017-02-12T10:16:11Z</time>
      </trkpt>
      <trkpt lat="45.68697" lon="4.45089">
        <ele>483.68</ele>
        <time>2017-02-12T10:16:26Z</time>
      </trkpt>
      <trkpt lat="45.68681" lon="4.45076">
        <ele>488.49</ele>
        <time>2017-02-12T10:16:43Z</time>
      </trkpt>
      <trkpt lat="45.68666" lon="4.45065">
        <ele>488.49</ele>
        <time>2017-02-12T10:16:57Z</time>
      </trkpt>
      <trkpt lat="45.68649" lon="4.45054">
        <ele>487.53</ele>
        <time>2017-02-12T10:17:12Z</time>
      </trkpt>
      <trkpt lat="45.68643" lon="4.4505">
        <ele>486.56</ele>
        <time>2017-02-12T10:17:17Z</time>
      </trkpt>
      <trkpt lat="45.68625" lon="4.45039">
        <ele>488.49</ele>
        <time>2017-02-12T10:17:34Z</time>
      </trkpt>
      <trkpt lat="45.68615" lon="4.45035">
        <ele>491.85</ele>
        <time>2017-02-12T10:17:45Z</time>
      </trkpt>
      <trkpt lat="45.68604" lon="4.45041">
        <ele>492.81</ele>
        <time>2017-02-12T10:17:59Z</time>
      </trkpt>
      <trkpt lat="45.68605" lon="4.45046">
        <ele>495.22</ele>
        <time>2017-02-12T10:18:04Z</time>
      </trkpt>
      <trkpt lat="45.68615" lon="4.45064">
        <ele>496.66</ele>
        <time>2017-02-12T10:18:19Z</time>
      </trkpt>
      <trkpt lat="45.68627" lon="4.4508">
        <ele>497.62</ele>
        <time>2017-02-12T10:18:34Z</time>
      </trkpt>
      <trkpt lat="45.6864" lon="4.45098">
        <ele>497.62</ele>
        <time>2017-02-12T10:18:49Z</time>
      </trkpt>
      <trkpt lat="45.68654" lon="4.45119">
        <ele>498.1</ele>
        <time>2017-02-12T10:19:07Z</time>
      </trkpt>
      <trkpt lat="45.68673" lon="4.45142">
        <ele>496.66</ele>
        <time>2017-02-12T10:19:27Z</time>
      </trkpt>
      <trkpt lat="45.68675" lon="4.45161">
        <ele>495.22</ele>
        <time>2017-02-12T10:19:39Z</time>
      </trkpt>
      <trkpt lat="45.68655" lon="4.45163">
        <ele>498.58</ele>
        <time>2017-02-12T10:19:58Z</time>
      </trkpt>
      <trkpt lat="45.68645" lon="4.45162">
        <ele>500.02</ele>
        <time>2017-02-12T10:20:12Z</time>
      </trkpt>
      <trkpt lat="45.68631" lon="4.45163">
        <ele>502.43</ele>
        <time>2017-02-12T10:20:26Z</time>
      </trkpt>
      <trkpt lat="45.68625" lon="4.45164">
        <ele>503.87</ele>
        <time>2017-02-12T10:20:41Z</time>
      </trkpt>
      <trkpt lat="45.68617" lon="4.45168">
        <ele>504.35</ele>
        <time>2017-02-12T10:20:55Z</time>
      </trkpt>
      <trkpt lat="45.6861" lon="4.4517">
        <ele>505.31</ele>
        <time>2017-02-12T10:21:04Z</time>
      </trkpt>
      <trkpt lat="45.686" lon="4.45176">
        <ele>508.67</ele>
        <time>2017-02-12T10:21:18Z</time>
      </trkpt>
      <trkpt lat="45.6859" lon="4.45181">
        <ele>513.96</ele>
        <time>2017-02-12T10:21:34Z</time>
      </trkpt>
      <trkpt lat="45.68583" lon="4.45184">
        <ele>517.81</ele>
        <time>2017-02-12T10:21:45Z</time>
      </trkpt>
      <trkpt lat="45.68573" lon="4.45187">
        <ele>520.21</ele>
        <time>2017-02-12T10:22:00Z</time>
      </trkpt>
      <trkpt lat="45.68563" lon="4.45192">
        <ele>522.61</ele>
        <time>2017-02-12T10:22:14Z</time>
      </trkpt>
      <trkpt lat="45.68555" lon="4.45195">
        <ele>523.58</ele>
        <time>2017-02-12T10:22:28Z</time>
      </trkpt>
      <trkpt lat="45.68549" lon="4.452">
        <ele>521.65</ele>
        <time>2017-02-12T10:22:42Z</time>
      </trkpt>
      <trkpt lat="45.68544" lon="4.45204">
        <ele>521.65</ele>
        <time>2017-02-12T10:22:55Z</time>
      </trkpt>
      <trkpt lat="45.68541" lon="4.45205">
        <ele>521.17</ele>
        <time>2017-02-12T10:23:07Z</time>
      </trkpt>
      <trkpt lat="45.68537" lon="4.45208">
        <ele>520.69</ele>
        <time>2017-02-12T10:23:19Z</time>
      </trkpt>
      <trkpt lat="45.68524" lon="4.45211">
        <ele>522.61</ele>
        <time>2017-02-12T10:23:32Z</time>
      </trkpt>
      <trkpt lat="45.6851" lon="4.45212">
        <ele>524.54</ele>
        <time>2017-02-12T10:23:47Z</time>
      </trkpt>
      <trkpt lat="45.68494" lon="4.45209">
        <ele>528.38</ele>
        <time>2017-02-12T10:24:03Z</time>
      </trkpt>
      <trkpt lat="45.68479" lon="4.45205">
        <ele>532.71</ele>
        <time>2017-02-12T10:24:17Z</time>
      </trkpt>
      <trkpt lat="45.68468" lon="4.452">
        <ele>536.07</ele>
        <time>2017-02-12T10:24:28Z</time>
      </trkpt>
      <trkpt lat="45.68446" lon="4.45198">
        <ele>538.48</ele>
        <time>2017-02-12T10:24:46Z</time>
      </trkpt>
      <trkpt lat="45.68431" lon="4.45198">
        <ele>536.07</ele>
        <time>2017-02-12T10:25:01Z</time>
      </trkpt>
      <trkpt lat="45.68428" lon="4.45198">
        <ele>536.07</ele>
        <time>2017-02-12T10:25:15Z</time>
      </trkpt>
      <trkpt lat="45.68428" lon="4.45196">
        <ele>535.11</ele>
        <time>2017-02-12T10:25:37Z</time>
      </trkpt>
      <trkpt lat="45.68426" lon="4.45198">
        <ele>534.15</ele>
        <time>2017-02-12T10:26:08Z</time>
      </trkpt>
      <trkpt lat="45.68426" lon="4.45198">
        <ele>532.71</ele>
        <time>2017-02-12T10:26:39Z</time>
      </trkpt>
      <trkpt lat="45.68425" lon="4.45199">
        <ele>532.23</ele>
        <time>2017-02-12T10:27:07Z</time>
      </trkpt>
      <trkpt lat="45.68425" lon="4.45198">
        <ele>531.75</ele>
        <time>2017-02-12T10:27:26Z</time>
      </trkpt>
      <trkpt lat="45.68424" lon="4.45198">
        <ele>531.27</ele>
        <time>2017-02-12T10:27:48Z</time>
      </trkpt>
      <trkpt lat="45.68424" lon="4.45198">
        <ele>530.79</ele>
        <time>2017-02-12T10:28:08Z</time>
      </trkpt>
      <trkpt lat="45.68419" lon="4.45195">
        <ele>531.27</ele>
        <time>2017-02-12T10:28:20Z</time>
      </trkpt>
      <trkpt lat="45.68409" lon="4.45185">
        <ele>530.79</ele>
        <time>2017-02-12T10:28:34Z</time>
      </trkpt>
      <trkpt lat="45.68399" lon="4.4518">
        <ele>531.75</ele>
        <time>2017-02-12T10:28:46Z</time>
      </trkpt>
      <trkpt lat="45.68391" lon="4.45172">
        <ele>532.71</ele>
        <time>2017-02-12T10:28:58Z</time>
      </trkpt>
      <trkpt lat="45.68381" lon="4.45166">
        <ele>533.67</ele>
        <time>2017-02-12T10:29:10Z</time>
      </trkpt>
      <trkpt lat="45.68365" lon="4.45156">
        <ele>535.59</ele>
        <time>2017-02-12T10:29:23Z</time>
      </trkpt>
      <trkpt lat="45.6835" lon="4.45147">
        <ele>538.48</ele>
        <time>2017-02-12T10:29:36Z</time>
      </trkpt>
      <trkpt lat="45.68338" lon="4.45141">
        <ele>542.32</ele>
        <time>2017-02-12T10:29:48Z</time>
      </trkpt>
      <trkpt lat="45.68324" lon="4.45133">
        <ele>545.2</ele>
        <time>2017-02-12T10:30:01Z</time>
      </trkpt>
      <trkpt lat="45.68304" lon="4.45125">
        <ele>543.76</ele>
        <time>2017-02-12T10:30:17Z</time>
      </trkpt>
      <trkpt lat="45.68292" lon="4.45116">
        <ele>543.28</ele>
        <time>2017-02-12T10:30:30Z</time>
      </trkpt>
      <trkpt lat="45.6829" lon="4.45115">
        <ele>542.32</ele>
        <time>2017-02-12T10:30:43Z</time>
      </trkpt>
      <trkpt lat="45.68288" lon="4.45114">
        <ele>540.88</ele>
        <time>2017-02-12T10:30:56Z</time>
      </trkpt>
      <trkpt lat="45.68281" lon="4.45108">
        <ele>538.96</ele>
        <time>2017-02-12T10:31:10Z</time>
      </trkpt>
      <trkpt lat="45.68273" lon="4.451">
        <ele>534.63</ele>
        <time>2017-02-12T10:31:22Z</time>
      </trkpt>
      <trkpt lat="45.68272" lon="4.45099">
        <ele>535.11</ele>
        <time>2017-02-12T10:31:36Z</time>
      </trkpt>
      <trkpt lat="45.6827" lon="4.45097">
        <ele>535.59</ele>
        <time>2017-02-12T10:31:44Z</time>
      </trkpt>
      <trkpt lat="45.68261" lon="4.451">
        <ele>533.19</ele>
        <time>2017-02-12T10:31:56Z</time>
      </trkpt>
      <trkpt lat="45.68258" lon="4.45095">
        <ele>531.75</ele>
        <time>2017-02-12T10:32:03Z</time>
      </trkpt>
      <trkpt lat="45.68256" lon="4.45086">
        <ele>531.27</ele>
        <time>2017-02-12T10:32:10Z</time>
      </trkpt>
      <trkpt lat="45.68251" lon="4.45068">
        <ele>531.75</ele>
        <time>2017-02-12T10:32:24Z</time>
      </trkpt>
      <trkpt lat="45.68247" lon="4.4506">
        <ele>532.23</ele>
        <time>2017-02-12T10:32:38Z</time>
      </trkpt>
      <trkpt lat="45.68245" lon="4.45053">
        <ele>532.71</ele>
        <time>2017-02-12T10:32:54Z</time>
      </trkpt>
      <trkpt lat="45.68245" lon="4.45051">
        <ele>533.19</ele>
        <time>2017-02-12T10:33:05Z</time>
      </trkpt>
      <trkpt lat="45.68242" lon="4.45043">
        <ele>537.03</ele>
        <time>2017-02-12T10:33:18Z</time>
      </trkpt>
      <trkpt lat="45.68237" lon="4.45037">
        <ele>539.92</ele>
        <time>2017-02-12T10:33:32Z</time>
      </trkpt>
      <trkpt lat="45.6823" lon="4.45029">
        <ele>541.36</ele>
        <time>2017-02-12T10:33:43Z</time>
      </trkpt>
      <trkpt lat="45.68223" lon="4.45025">
        <ele>543.28</ele>
        <time>2017-02-12T10:33:54Z</time>
      </trkpt>
      <trkpt lat="45.68221" lon="4.45024">
        <ele>543.76</ele>
        <time>2017-02-12T10:34:03Z</time>
      </trkpt>
      <trkpt lat="45.68216" lon="4.4502">
        <ele>545.69</ele>
        <time>2017-02-12T10:34:14Z</time>
      </trkpt>
      <trkpt lat="45.68214" lon="4.45018">
        <ele>546.17</ele>
        <time>2017-02-12T10:34:20Z</time>
      </trkpt>
      <trkpt lat="45.68203" lon="4.45012">
        <ele>546.65</ele>
        <time>2017-02-12T10:34:32Z</time>
      </trkpt>
      <trkpt lat="45.68194" lon="4.45004">
        <ele>548.09</ele>
        <time>2017-02-12T10:34:46Z</time>
      </trkpt>
      <trkpt lat="45.68188" lon="4.44999">
        <ele>549.05</ele>
        <time>2017-02-12T10:34:55Z</time>
      </trkpt>
      <trkpt lat="45.68175" lon="4.44987">
        <ele>545.69</ele>
        <time>2017-02-12T10:35:05Z</time>
      </trkpt>
      <trkpt lat="45.68173" lon="4.44984">
        <ele>545.2</ele>
        <time>2017-02-12T10:35:07Z</time>
      </trkpt>
      <trkpt lat="45.68163" lon="4.44963">
        <ele>542.32</ele>
        <time>2017-02-12T10:35:21Z</time>
      </trkpt>
      <trkpt lat="45.68165" lon="4.44953">
        <ele>544.24</ele>
        <time>2017-02-12T10:35:37Z</time>
      </trkpt>
      <trkpt lat="45.68173" lon="4.44943">
        <ele>547.61</ele>
        <time>2017-02-12T10:35:51Z</time>
      </trkpt>
      <trkpt lat="45.68174" lon="4.44941">
        <ele>548.09</ele>
        <time>2017-02-12T10:35:54Z</time>
      </trkpt>
      <trkpt lat="45.68177" lon="4.44937">
        <ele>549.05</ele>
        <time>2017-02-12T10:35:59Z</time>
      </trkpt>
      <trkpt lat="45.68187" lon="4.44928">
        <ele>552.41</ele>
        <time>2017-02-12T10:36:08Z</time>
      </trkpt>
      <trkpt lat="45.68195" lon="4.44914">
        <ele>553.38</ele>
        <time>2017-02-12T10:36:23Z</time>
      </trkpt>
      <trkpt lat="45.68203" lon="4.44895">
        <ele>554.82</ele>
        <time>2017-02-12T10:36:39Z</time>
      </trkpt>
      <trkpt lat="45.68203" lon="4.44889">
        <ele>555.78</ele>
        <time>2017-02-12T10:36:52Z</time>
      </trkpt>
      <trkpt lat="45.68203" lon="4.44884">
        <ele>556.26</ele>
        <time>2017-02-12T10:36:55Z</time>
      </trkpt>
      <trkpt lat="45.68204" lon="4.4487">
        <ele>558.18</ele>
        <time>2017-02-12T10:37:06Z</time>
      </trkpt>
      <trkpt lat="45.68203" lon="4.44859">
        <ele>560.59</ele>
        <time>2017-02-12T10:37:20Z</time>
      </trkpt>
      <trkpt lat="45.68204" lon="4.44858">
        <ele>561.55</ele>
        <time>2017-02-12T10:37:39Z</time>
      </trkpt>
      <trkpt lat="45.68204" lon="4.44857">
        <ele>563.47</ele>
        <time>2017-02-12T10:37:57Z</time>
      </trkpt>
      <trkpt lat="45.68205" lon="4.44855">
        <ele>564.43</ele>
        <time>2017-02-12T10:38:19Z</time>
      </trkpt>
      <trkpt lat="45.68205" lon="4.44854">
        <ele>565.87</ele>
        <time>2017-02-12T10:38:37Z</time>
      </trkpt>
      <trkpt lat="45.68201" lon="4.44847">
        <ele>567.8</ele>
        <time>2017-02-12T10:38:50Z</time>
      </trkpt>
      <trkpt lat="45.68194" lon="4.44832">
        <ele>570.68</ele>
        <time>2017-02-12T10:39:06Z</time>
      </trkpt>
      <trkpt lat="45.68187" lon="4.44818">
        <ele>575.49</ele>
        <time>2017-02-12T10:39:21Z</time>
      </trkpt>
      <trkpt lat="45.68178" lon="4.44807">
        <ele>578.85</ele>
        <time>2017-02-12T10:39:36Z</time>
      </trkpt>
      <trkpt lat="45.68165" lon="4.44797">
        <ele>583.18</ele>
        <time>2017-02-12T10:39:52Z</time>
      </trkpt>
      <trkpt lat="45.68153" lon="4.44786">
        <ele>587.02</ele>
        <time>2017-02-12T10:40:09Z</time>
      </trkpt>
      <trkpt lat="45.68141" lon="4.44775">
        <ele>588.46</ele>
        <time>2017-02-12T10:40:22Z</time>
      </trkpt>
      <trkpt lat="45.68131" lon="4.44766">
        <ele>589.43</ele>
        <time>2017-02-12T10:40:38Z</time>
      </trkpt>
      <trkpt lat="45.68125" lon="4.4476">
        <ele>588.46</ele>
        <time>2017-02-12T10:40:53Z</time>
      </trkpt>
      <trkpt lat="45.68113" lon="4.44747">
        <ele>588.95</ele>
        <time>2017-02-12T10:41:08Z</time>
      </trkpt>
      <trkpt lat="45.68104" lon="4.44738">
        <ele>588.95</ele>
        <time>2017-02-12T10:41:20Z</time>
      </trkpt>
      <trkpt lat="45.68092" lon="4.44728">
        <ele>589.43</ele>
        <time>2017-02-12T10:41:34Z</time>
      </trkpt>
      <trkpt lat="45.68088" lon="4.44724">
        <ele>588.95</ele>
        <time>2017-02-12T10:41:38Z</time>
      </trkpt>
      <trkpt lat="45.6807" lon="4.44713">
        <ele>587.5</ele>
        <time>2017-02-12T10:41:56Z</time>
      </trkpt>
      <trkpt lat="45.68064" lon="4.44713">
        <ele>587.02</ele>
        <time>2017-02-12T10:42:02Z</time>
      </trkpt>
      <trkpt lat="45.68058" lon="4.44731">
        <ele>585.1</ele>
        <time>2017-02-12T10:42:12Z</time>
      </trkpt>
      <trkpt lat="45.6805" lon="4.44761">
        <ele>585.1</ele>
        <time>2017-02-12T10:42:29Z</time>
      </trkpt>
      <trkpt lat="45.6804" lon="4.44792">
        <ele>585.58</ele>
        <time>2017-02-12T10:42:46Z</time>
      </trkpt>
      <trkpt lat="45.68032" lon="4.44821">
        <ele>585.1</ele>
        <time>2017-02-12T10:43:02Z</time>
      </trkpt>
      <trkpt lat="45.68025" lon="4.44845">
        <ele>583.66</ele>
        <time>2017-02-12T10:43:16Z</time>
      </trkpt>
      <trkpt lat="45.68018" lon="4.44866">
        <ele>584.62</ele>
        <time>2017-02-12T10:43:30Z</time>
      </trkpt>
      <trkpt lat="45.68012" lon="4.44879">
        <ele>585.1</ele>
        <time>2017-02-12T10:43:43Z</time>
      </trkpt>
      <trkpt lat="45.68012" lon="4.4488">
        <ele>585.1</ele>
        <time>2017-02-12T10:43:56Z</time>
      </trkpt>
      <trkpt lat="45.68011" lon="4.4488">
        <ele>585.58</ele>
        <time>2017-02-12T10:43:58Z</time>
      </trkpt>
      <trkpt lat="45.67992" lon="4.44883">
        <ele>588.46</ele>
        <time>2017-02-12T10:44:14Z</time>
      </trkpt>
      <trkpt lat="45.67977" lon="4.44882">
        <ele>593.27</ele>
        <time>2017-02-12T10:44:28Z</time>
      </trkpt>
      <trkpt lat="45.67962" lon="4.44878">
        <ele>596.15</ele>
        <time>2017-02-12T10:44:43Z</time>
      </trkpt>
      <trkpt lat="45.67948" lon="4.44871">
        <ele>602.4</ele>
        <time>2017-02-12T10:44:59Z</time>
      </trkpt>
      <trkpt lat="45.67928" lon="4.44864">
        <ele>606.73</ele>
        <time>2017-02-12T10:45:15Z</time>
      </trkpt>
      <trkpt lat="45.67913" lon="4.44865">
        <ele>612.5</ele>
        <time>2017-02-12T10:45:28Z</time>
      </trkpt>
      <trkpt lat="45.67896" lon="4.4486">
        <ele>614.42</ele>
        <time>2017-02-12T10:45:42Z</time>
      </trkpt>
      <trkpt lat="45.67877" lon="4.4486">
        <ele>618.26</ele>
        <time>2017-02-12T10:45:55Z</time>
      </trkpt>
      <trkpt lat="45.6786" lon="4.44856">
        <ele>622.11</ele>
        <time>2017-02-12T10:46:09Z</time>
      </trkpt>
      <trkpt lat="45.67846" lon="4.44859">
        <ele>626.44</ele>
        <time>2017-02-12T10:46:21Z</time>
      </trkpt>
      <trkpt lat="45.67837" lon="4.44861">
        <ele>628.36</ele>
        <time>2017-02-12T10:46:31Z</time>
      </trkpt>
      <trkpt lat="45.67834" lon="4.44865">
        <ele>627.4</ele>
        <time>2017-02-12T10:46:35Z</time>
      </trkpt>
      <trkpt lat="45.67834" lon="4.44867">
        <ele>626.92</ele>
        <time>2017-02-12T10:46:37Z</time>
      </trkpt>
      <trkpt lat="45.67823" lon="4.44877">
        <ele>629.8</ele>
        <time>2017-02-12T10:46:50Z</time>
      </trkpt>
      <trkpt lat="45.67809" lon="4.44886">
        <ele>634.61</ele>
        <time>2017-02-12T10:47:04Z</time>
      </trkpt>
      <trkpt lat="45.67795" lon="4.44892">
        <ele>636.05</ele>
        <time>2017-02-12T10:47:16Z</time>
      </trkpt>
      <trkpt lat="45.67781" lon="4.44896">
        <ele>638.45</ele>
        <time>2017-02-12T10:47:29Z</time>
      </trkpt>
      <trkpt lat="45.67769" lon="4.449">
        <ele>640.86</ele>
        <time>2017-02-12T10:47:41Z</time>
      </trkpt>
      <trkpt lat="45.67757" lon="4.44894">
        <ele>642.3</ele>
        <time>2017-02-12T10:47:53Z</time>
      </trkpt>
      <trkpt lat="45.67751" lon="4.44893">
        <ele>642.78</ele>
        <time>2017-02-12T10:47:58Z</time>
      </trkpt>
      <trkpt lat="45.67744" lon="4.4489">
        <ele>643.74</ele>
        <time>2017-02-12T10:48:09Z</time>
      </trkpt>
      <trkpt lat="45.67738" lon="4.44884">
        <ele>647.1</ele>
        <time>2017-02-12T10:48:24Z</time>
      </trkpt>
      <trkpt lat="45.67737" lon="4.44883">
        <ele>648.55</ele>
        <time>2017-02-12T10:48:35Z</time>
      </trkpt>
      <trkpt lat="45.6773" lon="4.44875">
        <ele>653.35</ele>
        <time>2017-02-12T10:48:49Z</time>
      </trkpt>
      <trkpt lat="45.67705" lon="4.44868">
        <ele>662.01</ele>
        <time>2017-02-12T10:49:04Z</time>
      </trkpt>
      <trkpt lat="45.67688" lon="4.44865">
        <ele>663.93</ele>
        <time>2017-02-12T10:49:15Z</time>
      </trkpt>
      <trkpt lat="45.67674" lon="4.44862">
        <ele>664.89</ele>
        <time>2017-02-12T10:49:29Z</time>
      </trkpt>
      <trkpt lat="45.67659" lon="4.44863">
        <ele>667.29</ele>
        <time>2017-02-12T10:49:41Z</time>
      </trkpt>
      <trkpt lat="45.67642" lon="4.44871">
        <ele>668.25</ele>
        <time>2017-02-12T10:49:55Z</time>
      </trkpt>
      <trkpt lat="45.67628" lon="4.44881">
        <ele>669.22</ele>
        <time>2017-02-12T10:50:08Z</time>
      </trkpt>
      <trkpt lat="45.67618" lon="4.44894">
        <ele>667.77</ele>
        <time>2017-02-12T10:50:19Z</time>
      </trkpt>
      <trkpt lat="45.67615" lon="4.44896">
        <ele>667.29</ele>
        <time>2017-02-12T10:50:25Z</time>
      </trkpt>
      <trkpt lat="45.67608" lon="4.44915">
        <ele>673.06</ele>
        <time>2017-02-12T10:50:40Z</time>
      </trkpt>
      <trkpt lat="45.67606" lon="4.44931">
        <ele>677.39</ele>
        <time>2017-02-12T10:50:55Z</time>
      </trkpt>
      <trkpt lat="45.67606" lon="4.44936">
        <ele>680.27</ele>
        <time>2017-02-12T10:51:08Z</time>
      </trkpt>
      <trkpt lat="45.67605" lon="4.44948">
        <ele>679.31</ele>
        <time>2017-02-12T10:51:20Z</time>
      </trkpt>
      <trkpt lat="45.67605" lon="4.4495">
        <ele>677.87</ele>
        <time>2017-02-12T10:51:34Z</time>
      </trkpt>
      <trkpt lat="45.676" lon="4.44965">
        <ele>677.39</ele>
        <time>2017-02-12T10:51:47Z</time>
      </trkpt>
      <trkpt lat="45.6759" lon="4.44995">
        <ele>677.87</ele>
        <time>2017-02-12T10:52:02Z</time>
      </trkpt>
      <trkpt lat="45.67581" lon="4.4502">
        <ele>681.71</ele>
        <time>2017-02-12T10:52:16Z</time>
      </trkpt>
      <trkpt lat="45.67574" lon="4.45043">
        <ele>686.04</ele>
        <time>2017-02-12T10:52:28Z</time>
      </trkpt>
      <trkpt lat="45.67564" lon="4.45067">
        <ele>688.44</ele>
        <time>2017-02-12T10:52:42Z</time>
      </trkpt>
      <trkpt lat="45.67556" lon="4.45078">
        <ele>689.88</ele>
        <time>2017-02-12T10:52:50Z</time>
      </trkpt>
      <trkpt lat="45.67547" lon="4.45083">
        <ele>689.88</ele>
        <time>2017-02-12T10:52:58Z</time>
      </trkpt>
      <trkpt lat="45.67534" lon="4.45083">
        <ele>692.29</ele>
        <time>2017-02-12T10:53:09Z</time>
      </trkpt>
      <trkpt lat="45.67527" lon="4.45078">
        <ele>695.17</ele>
        <time>2017-02-12T10:53:19Z</time>
      </trkpt>
      <trkpt lat="45.67518" lon="4.45068">
        <ele>697.57</ele>
        <time>2017-02-12T10:53:30Z</time>
      </trkpt>
      <trkpt lat="45.67514" lon="4.45064">
        <ele>697.09</ele>
        <time>2017-02-12T10:53:34Z</time>
      </trkpt>
      <trkpt lat="45.67504" lon="4.45053">
        <ele>696.13</ele>
        <time>2017-02-12T10:53:48Z</time>
      </trkpt>
      <trkpt lat="45.67498" lon="4.45048">
        <ele>698.05</ele>
        <time>2017-02-12T10:53:55Z</time>
      </trkpt>
      <trkpt lat="45.67491" lon="4.45046">
        <ele>699.98</ele>
        <time>2017-02-12T10:54:01Z</time>
      </trkpt>
      <trkpt lat="45.67479" lon="4.45039">
        <ele>704.78</ele>
        <time>2017-02-12T10:54:14Z</time>
      </trkpt>
      <trkpt lat="45.67479" lon="4.45039">
        <ele>704.78</ele>
        <time>2017-02-12T10:54:15Z</time>
      </trkpt>
      <trkpt lat="45.67459" lon="4.45035">
        <ele>705.26</ele>
        <time>2017-02-12T10:54:29Z</time>
      </trkpt>
      <trkpt lat="45.67451" lon="4.45034">
        <ele>704.3</ele>
        <time>2017-02-12T10:54:42Z</time>
      </trkpt>
      <trkpt lat="45.67436" lon="4.45031">
        <ele>702.86</ele>
        <time>2017-02-12T10:54:55Z</time>
      </trkpt>
      <trkpt lat="45.67418" lon="4.45027">
        <ele>705.26</ele>
        <time>2017-02-12T10:55:07Z</time>
      </trkpt>
      <trkpt lat="45.674" lon="4.45028">
        <ele>711.03</ele>
        <time>2017-02-12T10:55:18Z</time>
      </trkpt>
      <trkpt lat="45.67399" lon="4.4503">
        <ele>713.44</ele>
        <time>2017-02-12T10:55:28Z</time>
      </trkpt>
      <trkpt lat="45.67397" lon="4.45031">
        <ele>714.4</ele>
        <time>2017-02-12T10:55:41Z</time>
      </trkpt>
      <trkpt lat="45.67396" lon="4.45032">
        <ele>715.84</ele>
        <time>2017-02-12T10:55:54Z</time>
      </trkpt>
      <trkpt lat="45.67396" lon="4.45032">
        <ele>715.84</ele>
        <time>2017-02-12T10:56:05Z</time>
      </trkpt>
      <trkpt lat="45.67398" lon="4.45035">
        <ele>715.84</ele>
        <time>2017-02-12T10:56:17Z</time>
      </trkpt>
      <trkpt lat="45.67397" lon="4.45035">
        <ele>715.84</ele>
        <time>2017-02-12T10:56:35Z</time>
      </trkpt>
      <trkpt lat="45.67397" lon="4.45034">
        <ele>715.84</ele>
        <time>2017-02-12T10:56:51Z</time>
      </trkpt>
      <trkpt lat="45.67396" lon="4.45034">
        <ele>715.36</ele>
        <time>2017-02-12T10:57:09Z</time>
      </trkpt>
      <trkpt lat="45.67396" lon="4.45034">
        <ele>715.36</ele>
        <time>2017-02-12T10:57:36Z</time>
      </trkpt>
      <trkpt lat="45.67396" lon="4.45034">
        <ele>714.4</ele>
        <time>2017-02-12T10:57:54Z</time>
      </trkpt>
      <trkpt lat="45.67395" lon="4.45035">
        <ele>714.4</ele>
        <time>2017-02-12T10:58:10Z</time>
      </trkpt>
      <trkpt lat="45.67394" lon="4.45035">
        <ele>714.4</ele>
        <time>2017-02-12T10:58:33Z</time>
      </trkpt>
      <trkpt lat="45.67394" lon="4.45034">
        <ele>713.92</ele>
        <time>2017-02-12T10:58:58Z</time>
      </trkpt>
      <trkpt lat="45.67393" lon="4.45035">
        <ele>714.4</ele>
        <time>2017-02-12T10:59:11Z</time>
      </trkpt>
      <trkpt lat="45.67393" lon="4.45034">
        <ele>715.36</ele>
        <time>2017-02-12T10:59:30Z</time>
      </trkpt>
      <trkpt lat="45.67393" lon="4.45034">
        <ele>715.36</ele>
        <time>2017-02-12T10:59:46Z</time>
      </trkpt>
      <trkpt lat="45.67392" lon="4.45034">
        <ele>714.88</ele>
        <time>2017-02-12T10:59:58Z</time>
      </trkpt>
      <trkpt lat="45.67393" lon="4.45033">
        <ele>716.32</ele>
        <time>2017-02-12T11:00:13Z</time>
      </trkpt>
      <trkpt lat="45.67393" lon="4.45033">
        <ele>715.84</ele>
        <time>2017-02-12T11:00:30Z</time>
      </trkpt>
      <trkpt lat="45.67392" lon="4.45033">
        <ele>715.36</ele>
        <time>2017-02-12T11:00:43Z</time>
      </trkpt>
      <trkpt lat="45.67392" lon="4.45033">
        <ele>715.36</ele>
        <time>2017-02-12T11:01:05Z</time>
      </trkpt>
      <trkpt lat="45.67387" lon="4.45023">
        <ele>716.8</ele>
        <time>2017-02-12T11:01:22Z</time>
      </trkpt>
      <trkpt lat="45.67374" lon="4.45018">
        <ele>720.16</ele>
        <time>2017-02-12T11:01:37Z</time>
      </trkpt>
      <trkpt lat="45.67361" lon="4.45013">
        <ele>722.57</ele>
        <time>2017-02-12T11:01:51Z</time>
      </trkpt>
      <trkpt lat="45.67343" lon="4.45008">
        <ele>724.49</ele>
        <time>2017-02-12T11:02:08Z</time>
      </trkpt>
      <trkpt lat="45.67323" lon="4.45009">
        <ele>724.49</ele>
        <time>2017-02-12T11:02:25Z</time>
      </trkpt>
      <trkpt lat="45.67317" lon="4.45011">
        <ele>725.45</ele>
        <time>2017-02-12T11:02:31Z</time>
      </trkpt>
      <trkpt lat="45.67301" lon="4.45019">
        <ele>725.93</ele>
        <time>2017-02-12T11:02:46Z</time>
      </trkpt>
      <trkpt lat="45.67292" lon="4.45022">
        <ele>724.97</ele>
        <time>2017-02-12T11:02:54Z</time>
      </trkpt>
      <trkpt lat="45.67274" lon="4.45031">
        <ele>724.01</ele>
        <time>2017-02-12T11:03:10Z</time>
      </trkpt>
      <trkpt lat="45.67259" lon="4.45043">
        <ele>723.05</ele>
        <time>2017-02-12T11:03:25Z</time>
      </trkpt>
      <trkpt lat="45.67243" lon="4.4506">
        <ele>722.57</ele>
        <time>2017-02-12T11:03:41Z</time>
      </trkpt>
      <trkpt lat="45.6724" lon="4.45063">
        <ele>722.09</ele>
        <time>2017-02-12T11:03:44Z</time>
      </trkpt>
      <trkpt lat="45.67233" lon="4.45073">
        <ele>722.09</ele>
        <time>2017-02-12T11:03:52Z</time>
      </trkpt>
      <trkpt lat="45.67224" lon="4.45092">
        <ele>724.97</ele>
        <time>2017-02-12T11:04:05Z</time>
      </trkpt>
      <trkpt lat="45.6722" lon="4.4511">
        <ele>727.86</ele>
        <time>2017-02-12T11:04:17Z</time>
      </trkpt>
      <trkpt lat="45.67218" lon="4.45138">
        <ele>727.37</ele>
        <time>2017-02-12T11:04:32Z</time>
      </trkpt>
      <trkpt lat="45.67218" lon="4.45165">
        <ele>727.86</ele>
        <time>2017-02-12T11:04:48Z</time>
      </trkpt>
      <trkpt lat="45.67225" lon="4.45195">
        <ele>727.37</ele>
        <time>2017-02-12T11:05:04Z</time>
      </trkpt>
      <trkpt lat="45.67233" lon="4.45223">
        <ele>726.41</ele>
        <time>2017-02-12T11:05:20Z</time>
      </trkpt>
      <trkpt lat="45.67237" lon="4.45245">
        <ele>726.41</ele>
        <time>2017-02-12T11:05:35Z</time>
      </trkpt>
      <trkpt lat="45.67238" lon="4.45251">
        <ele>726.41</ele>
        <time>2017-02-12T11:05:46Z</time>
      </trkpt>
      <trkpt lat="45.67237" lon="4.45255">
        <ele>725.45</ele>
        <time>2017-02-12T11:05:56Z</time>
      </trkpt>
      <trkpt lat="45.67229" lon="4.4527">
        <ele>724.97</ele>
        <time>2017-02-12T11:06:10Z</time>
      </trkpt>
      <trkpt lat="45.67216" lon="4.45292">
        <ele>724.01</ele>
        <time>2017-02-12T11:06:25Z</time>
      </trkpt>
      <trkpt lat="45.67204" lon="4.45296">
        <ele>724.49</ele>
        <time>2017-02-12T11:06:37Z</time>
      </trkpt>
      <trkpt lat="45.67186" lon="4.45302">
        <ele>724.01</ele>
        <time>2017-02-12T11:06:51Z</time>
      </trkpt>
      <trkpt lat="45.67168" lon="4.45315">
        <ele>722.57</ele>
        <time>2017-02-12T11:07:05Z</time>
      </trkpt>
      <trkpt lat="45.67152" lon="4.45324">
        <ele>721.61</ele>
        <time>2017-02-12T11:07:18Z</time>
      </trkpt>
      <trkpt lat="45.67151" lon="4.45325">
        <ele>721.13</ele>
        <time>2017-02-12T11:07:19Z</time>
      </trkpt>
      <trkpt lat="45.67147" lon="4.45323">
        <ele>720.65</ele>
        <time>2017-02-12T11:07:24Z</time>
      </trkpt>
      <trkpt lat="45.67143" lon="4.4531">
        <ele>724.01</ele>
        <time>2017-02-12T11:07:34Z</time>
      </trkpt>
      <trkpt lat="45.67143" lon="4.45304">
        <ele>725.93</ele>
        <time>2017-02-12T11:07:40Z</time>
      </trkpt>
      <trkpt lat="45.67137" lon="4.45289">
        <ele>726.41</ele>
        <time>2017-02-12T11:07:49Z</time>
      </trkpt>
      <trkpt lat="45.67121" lon="4.45271">
        <ele>727.86</ele>
        <time>2017-02-12T11:08:02Z</time>
      </trkpt>
      <trkpt lat="45.67113" lon="4.45268">
        <ele>728.34</ele>
        <time>2017-02-12T11:08:10Z</time>
      </trkpt>
      <trkpt lat="45.67097" lon="4.45261">
        <ele>726.41</ele>
        <time>2017-02-12T11:08:23Z</time>
      </trkpt>
      <trkpt lat="45.67075" lon="4.45257">
        <ele>726.89</ele>
        <time>2017-02-12T11:08:34Z</time>
      </trkpt>
      <trkpt lat="45.67047" lon="4.45258">
        <ele>726.89</ele>
        <time>2017-02-12T11:08:51Z</time>
      </trkpt>
      <trkpt lat="45.67028" lon="4.4526">
        <ele>727.86</ele>
        <time>2017-02-12T11:09:06Z</time>
      </trkpt>
      <trkpt lat="45.6701" lon="4.45262">
        <ele>727.86</ele>
        <time>2017-02-12T11:09:21Z</time>
      </trkpt>
      <trkpt lat="45.66988" lon="4.4527">
        <ele>730.26</ele>
        <time>2017-02-12T11:09:39Z</time>
      </trkpt>
      <trkpt lat="45.66967" lon="4.45282">
        <ele>731.7</ele>
        <time>2017-02-12T11:09:57Z</time>
      </trkpt>
      <trkpt lat="45.66949" lon="4.45297">
        <ele>731.7</ele>
        <time>2017-02-12T11:10:14Z</time>
      </trkpt>
      <trkpt lat="45.66934" lon="4.4531">
        <ele>732.66</ele>
        <time>2017-02-12T11:10:28Z</time>
      </trkpt>
      <trkpt lat="45.6692" lon="4.45323">
        <ele>732.18</ele>
        <time>2017-02-12T11:10:41Z</time>
      </trkpt>
      <trkpt lat="45.66904" lon="4.45338">
        <ele>732.66</ele>
        <time>2017-02-12T11:10:56Z</time>
      </trkpt>
      <trkpt lat="45.66892" lon="4.45351">
        <ele>733.14</ele>
        <time>2017-02-12T11:11:08Z</time>
      </trkpt>
      <trkpt lat="45.66879" lon="4.45365">
        <ele>733.14</ele>
        <time>2017-02-12T11:11:21Z</time>
      </trkpt>
      <trkpt lat="45.66861" lon="4.4538">
        <ele>732.66</ele>
        <time>2017-02-12T11:11:36Z</time>
      </trkpt>
      <trkpt lat="45.66844" lon="4.45396">
        <ele>731.7</ele>
        <time>2017-02-12T11:11:52Z</time>
      </trkpt>
      <trkpt lat="45.66831" lon="4.45408">
        <ele>731.7</ele>
        <time>2017-02-12T11:12:08Z</time>
      </trkpt>
      <trkpt lat="45.66829" lon="4.45408">
        <ele>732.66</ele>
        <time>2017-02-12T11:12:20Z</time>
      </trkpt>
      <trkpt lat="45.6683" lon="4.45412">
        <ele>733.62</ele>
        <time>2017-02-12T11:12:33Z</time>
      </trkpt>
      <trkpt lat="45.6683" lon="4.45409">
        <ele>733.14</ele>
        <time>2017-02-12T11:12:44Z</time>
      </trkpt>
      <trkpt lat="45.6683" lon="4.45408">
        <ele>733.14</ele>
        <time>2017-02-12T11:12:54Z</time>
      </trkpt>
      <trkpt lat="45.6683" lon="4.45408">
        <ele>732.66</ele>
        <time>2017-02-12T11:13:11Z</time>
      </trkpt>
      <trkpt lat="45.66829" lon="4.45409">
        <ele>732.18</ele>
        <time>2017-02-12T11:13:24Z</time>
      </trkpt>
      <trkpt lat="45.66829" lon="4.45408">
        <ele>732.66</ele>
        <time>2017-02-12T11:13:42Z</time>
      </trkpt>
      <trkpt lat="45.66829" lon="4.45407">
        <ele>732.66</ele>
        <time>2017-02-12T11:13:59Z</time>
      </trkpt>
      <trkpt lat="45.66828" lon="4.45407">
        <ele>732.66</ele>
        <time>2017-02-12T11:14:23Z</time>
      </trkpt>
      <trkpt lat="45.66826" lon="4.45413">
        <ele>734.1</ele>
        <time>2017-02-12T11:14:41Z</time>
      </trkpt>
      <trkpt lat="45.66823" lon="4.45426">
        <ele>737.47</ele>
        <time>2017-02-12T11:14:50Z</time>
      </trkpt>
      <trkpt lat="45.66819" lon="4.45434">
        <ele>737.47</ele>
        <time>2017-02-12T11:14:55Z</time>
      </trkpt>
      <trkpt lat="45.66809" lon="4.45466">
        <ele>732.66</ele>
        <time>2017-02-12T11:15:14Z</time>
      </trkpt>
      <trkpt lat="45.66805" lon="4.45499">
        <ele>729.3</ele>
        <time>2017-02-12T11:15:32Z</time>
      </trkpt>
      <trkpt lat="45.66795" lon="4.45532">
        <ele>724.97</ele>
        <time>2017-02-12T11:15:50Z</time>
      </trkpt>
      <trkpt lat="45.66786" lon="4.45555">
        <ele>721.13</ele>
        <time>2017-02-12T11:16:05Z</time>
      </trkpt>
      <trkpt lat="45.66775" lon="4.45577">
        <ele>717.76</ele>
        <time>2017-02-12T11:16:21Z</time>
      </trkpt>
      <trkpt lat="45.66762" lon="4.45598">
        <ele>713.92</ele>
        <time>2017-02-12T11:16:35Z</time>
      </trkpt>
      <trkpt lat="45.66759" lon="4.45604">
        <ele>713.44</ele>
        <time>2017-02-12T11:16:39Z</time>
      </trkpt>
      <trkpt lat="45.66749" lon="4.45631">
        <ele>711.51</ele>
        <time>2017-02-12T11:16:55Z</time>
      </trkpt>
      <trkpt lat="45.66741" lon="4.45656">
        <ele>709.59</ele>
        <time>2017-02-12T11:17:11Z</time>
      </trkpt>
      <trkpt lat="45.66731" lon="4.45684">
        <ele>706.71</ele>
        <time>2017-02-12T11:17:28Z</time>
      </trkpt>
      <trkpt lat="45.66723" lon="4.45707">
        <ele>703.34</ele>
        <time>2017-02-12T11:17:43Z</time>
      </trkpt>
      <trkpt lat="45.66713" lon="4.4573">
        <ele>698.53</ele>
        <time>2017-02-12T11:17:58Z</time>
      </trkpt>
      <trkpt lat="45.66699" lon="4.45752">
        <ele>692.29</ele>
        <time>2017-02-12T11:18:14Z</time>
      </trkpt>
      <trkpt lat="45.66682" lon="4.45766">
        <ele>689.4</ele>
        <time>2017-02-12T11:18:30Z</time>
      </trkpt>
      <trkpt lat="45.66665" lon="4.45776">
        <ele>687.48</ele>
        <time>2017-02-12T11:18:46Z</time>
      </trkpt>
      <trkpt lat="45.66645" lon="4.45779">
        <ele>687</ele>
        <time>2017-02-12T11:19:01Z</time>
      </trkpt>
      <trkpt lat="45.66629" lon="4.45774">
        <ele>685.08</ele>
        <time>2017-02-12T11:19:14Z</time>
      </trkpt>
      <trkpt lat="45.66611" lon="4.45759">
        <ele>687</ele>
        <time>2017-02-12T11:19:29Z</time>
      </trkpt>
      <trkpt lat="45.666" lon="4.45751">
        <ele>687.48</ele>
        <time>2017-02-12T11:19:39Z</time>
      </trkpt>
      <trkpt lat="45.6659" lon="4.45739">
        <ele>689.4</ele>
        <time>2017-02-12T11:19:49Z</time>
      </trkpt>
      <trkpt lat="45.66589" lon="4.45738">
        <ele>689.4</ele>
        <time>2017-02-12T11:19:50Z</time>
      </trkpt>
      <trkpt lat="45.66586" lon="4.45725">
        <ele>694.21</ele>
        <time>2017-02-12T11:19:58Z</time>
      </trkpt>
      <trkpt lat="45.66584" lon="4.45708">
        <ele>697.09</ele>
        <time>2017-02-12T11:20:08Z</time>
      </trkpt>
      <trkpt lat="45.66583" lon="4.45683">
        <ele>697.57</ele>
        <time>2017-02-12T11:20:23Z</time>
      </trkpt>
      <trkpt lat="45.66583" lon="4.45675">
        <ele>698.53</ele>
        <time>2017-02-12T11:20:27Z</time>
      </trkpt>
      <trkpt lat="45.66582" lon="4.45649">
        <ele>699.02</ele>
        <time>2017-02-12T11:20:41Z</time>
      </trkpt>
      <trkpt lat="45.66582" lon="4.45637">
        <ele>699.5</ele>
        <time>2017-02-12T11:20:48Z</time>
      </trkpt>
      <trkpt lat="45.66583" lon="4.45629">
        <ele>699.02</ele>
        <time>2017-02-12T11:20:53Z</time>
      </trkpt>
      <trkpt lat="45.66583" lon="4.45619">
        <ele>699.5</ele>
        <time>2017-02-12T11:20:59Z</time>
      </trkpt>
      <trkpt lat="45.66583" lon="4.45611">
        <ele>699.5</ele>
        <time>2017-02-12T11:21:04Z</time>
      </trkpt>
      <trkpt lat="45.66583" lon="4.45608">
        <ele>699.5</ele>
        <time>2017-02-12T11:21:06Z</time>
      </trkpt>
      <trkpt lat="45.66583" lon="4.4559">
        <ele>699.98</ele>
        <time>2017-02-12T11:21:17Z</time>
      </trkpt>
      <trkpt lat="45.66583" lon="4.45586">
        <ele>699.5</ele>
        <time>2017-02-12T11:21:20Z</time>
      </trkpt>
      <trkpt lat="45.66583" lon="4.45578">
        <ele>699.5</ele>
        <time>2017-02-12T11:21:25Z</time>
      </trkpt>
      <trkpt lat="45.66594" lon="4.45553">
        <ele>696.61</ele>
        <time>2017-02-12T11:21:41Z</time>
      </trkpt>
      <trkpt lat="45.66609" lon="4.4553">
        <ele>693.73</ele>
        <time>2017-02-12T11:21:58Z</time>
      </trkpt>
      <trkpt lat="45.66618" lon="4.45509">
        <ele>692.29</ele>
        <time>2017-02-12T11:22:12Z</time>
      </trkpt>
      <trkpt lat="45.66618" lon="4.45507">
        <ele>692.29</ele>
        <time>2017-02-12T11:22:13Z</time>
      </trkpt>
      <trkpt lat="45.66624" lon="4.45483">
        <ele>693.25</ele>
        <time>2017-02-12T11:22:29Z</time>
      </trkpt>
      <trkpt lat="45.66627" lon="4.45468">
        <ele>692.77</ele>
        <time>2017-02-12T11:22:38Z</time>
      </trkpt>
      <trkpt lat="45.66627" lon="4.45464">
        <ele>692.77</ele>
        <time>2017-02-12T11:22:41Z</time>
      </trkpt>
      <trkpt lat="45.66627" lon="4.45446">
        <ele>691.81</ele>
        <time>2017-02-12T11:22:55Z</time>
      </trkpt>
      <trkpt lat="45.66627" lon="4.45447">
        <ele>692.29</ele>
        <time>2017-02-12T11:22:57Z</time>
      </trkpt>
      <trkpt lat="45.66627" lon="4.4546">
        <ele>695.17</ele>
        <time>2017-02-12T11:23:06Z</time>
      </trkpt>
      <trkpt lat="45.66626" lon="4.45467">
        <ele>696.13</ele>
        <time>2017-02-12T11:23:15Z</time>
      </trkpt>
      <trkpt lat="45.66623" lon="4.45466">
        <ele>694.69</ele>
        <time>2017-02-12T11:23:28Z</time>
      </trkpt>
      <trkpt lat="45.66623" lon="4.45466">
        <ele>693.25</ele>
        <time>2017-02-12T11:23:59Z</time>
      </trkpt>
      <trkpt lat="45.66623" lon="4.45466">
        <ele>692.29</ele>
        <time>2017-02-12T11:24:22Z</time>
      </trkpt>
      <trkpt lat="45.66625" lon="4.45464">
        <ele>692.29</ele>
        <time>2017-02-12T11:24:24Z</time>
      </trkpt>
      <trkpt lat="45.66625" lon="4.45454">
        <ele>692.29</ele>
        <time>2017-02-12T11:24:29Z</time>
      </trkpt>
      <trkpt lat="45.66615" lon="4.45418">
        <ele>693.25</ele>
        <time>2017-02-12T11:24:42Z</time>
      </trkpt>
      <trkpt lat="45.66607" lon="4.45406">
        <ele>692.77</ele>
        <time>2017-02-12T11:24:47Z</time>
      </trkpt>
      <trkpt lat="45.66593" lon="4.45371">
        <ele>689.88</ele>
        <time>2017-02-12T11:24:59Z</time>
      </trkpt>
      <trkpt lat="45.66579" lon="4.45329">
        <ele>686.04</ele>
        <time>2017-02-12T11:25:12Z</time>
      </trkpt>
      <trkpt lat="45.66562" lon="4.45309">
        <ele>679.79</ele>
        <time>2017-02-12T11:25:22Z</time>
      </trkpt>
      <trkpt lat="45.66548" lon="4.453">
        <ele>675.46</ele>
        <time>2017-02-12T11:25:31Z</time>
      </trkpt>
      <trkpt lat="45.66544" lon="4.45284">
        <ele>673.06</ele>
        <time>2017-02-12T11:25:41Z</time>
      </trkpt>
      <trkpt lat="45.66553" lon="4.45258">
        <ele>672.1</ele>
        <time>2017-02-12T11:25:54Z</time>
      </trkpt>
      <trkpt lat="45.66556" lon="4.45251">
        <ele>673.06</ele>
        <time>2017-02-12T11:25:58Z</time>
      </trkpt>
      <trkpt lat="45.66554" lon="4.45227">
        <ele>673.06</ele>
        <time>2017-02-12T11:26:09Z</time>
      </trkpt>
      <trkpt lat="45.66554" lon="4.45219">
        <ele>672.1</ele>
        <time>2017-02-12T11:26:13Z</time>
      </trkpt>
      <trkpt lat="45.66547" lon="4.4518">
        <ele>675.46</ele>
        <time>2017-02-12T11:26:30Z</time>
      </trkpt>
      <trkpt lat="45.66545" lon="4.45149">
        <ele>676.42</ele>
        <time>2017-02-12T11:26:45Z</time>
      </trkpt>
      <trkpt lat="45.66541" lon="4.45123">
        <ele>676.91</ele>
        <time>2017-02-12T11:26:59Z</time>
      </trkpt>
      <trkpt lat="45.6653" lon="4.45093">
        <ele>674.98</ele>
        <time>2017-02-12T11:27:13Z</time>
      </trkpt>
      <trkpt lat="45.66529" lon="4.4509">
        <ele>674.5</ele>
        <time>2017-02-12T11:27:15Z</time>
      </trkpt>
      <trkpt lat="45.66525" lon="4.45077">
        <ele>674.02</ele>
        <time>2017-02-12T11:27:22Z</time>
      </trkpt>
      <trkpt lat="45.66521" lon="4.45052">
        <ele>672.58</ele>
        <time>2017-02-12T11:27:34Z</time>
      </trkpt>
      <trkpt lat="45.6652" lon="4.45018">
        <ele>668.73</ele>
        <time>2017-02-12T11:27:50Z</time>
      </trkpt>
      <trkpt lat="45.6652" lon="4.4499">
        <ele>666.33</ele>
        <time>2017-02-12T11:28:06Z</time>
      </trkpt>
      <trkpt lat="45.66517" lon="4.44957">
        <ele>667.29</ele>
        <time>2017-02-12T11:28:23Z</time>
      </trkpt>
      <trkpt lat="45.6651" lon="4.44935">
        <ele>666.81</ele>
        <time>2017-02-12T11:28:37Z</time>
      </trkpt>
      <trkpt lat="45.66496" lon="4.44914">
        <ele>664.41</ele>
        <time>2017-02-12T11:28:51Z</time>
      </trkpt>
      <trkpt lat="45.66494" lon="4.44912">
        <ele>664.41</ele>
        <time>2017-02-12T11:28:52Z</time>
      </trkpt>
      <trkpt lat="45.66486" lon="4.449">
        <ele>663.45</ele>
        <time>2017-02-12T11:29:01Z</time>
      </trkpt>
      <trkpt lat="45.66474" lon="4.44884">
        <ele>662.49</ele>
        <time>2017-02-12T11:29:14Z</time>
      </trkpt>
      <trkpt lat="45.66469" lon="4.44878">
        <ele>662.01</ele>
        <time>2017-02-12T11:29:19Z</time>
      </trkpt>
      <trkpt lat="45.66463" lon="4.44873">
        <ele>660.08</ele>
        <time>2017-02-12T11:29:24Z</time>
      </trkpt>
      <trkpt lat="45.66455" lon="4.44858">
        <ele>662.01</ele>
        <time>2017-02-12T11:29:36Z</time>
      </trkpt>
      <trkpt lat="45.66449" lon="4.44845">
        <ele>662.49</ele>
        <time>2017-02-12T11:29:44Z</time>
      </trkpt>
      <trkpt lat="45.66439" lon="4.44829">
        <ele>664.89</ele>
        <time>2017-02-12T11:29:57Z</time>
      </trkpt>
      <trkpt lat="45.66437" lon="4.44823">
        <ele>665.85</ele>
        <time>2017-02-12T11:30:01Z</time>
      </trkpt>
      <trkpt lat="45.66435" lon="4.44816">
        <ele>666.81</ele>
        <time>2017-02-12T11:30:05Z</time>
      </trkpt>
      <trkpt lat="45.66437" lon="4.44793">
        <ele>670.66</ele>
        <time>2017-02-12T11:30:18Z</time>
      </trkpt>
      <trkpt lat="45.66429" lon="4.44771">
        <ele>666.33</ele>
        <time>2017-02-12T11:30:33Z</time>
      </trkpt>
      <trkpt lat="45.66428" lon="4.44764">
        <ele>666.81</ele>
        <time>2017-02-12T11:30:46Z</time>
      </trkpt>
      <trkpt lat="45.66423" lon="4.44763">
        <ele>665.37</ele>
        <time>2017-02-12T11:30:59Z</time>
      </trkpt>
      <trkpt lat="45.66422" lon="4.44761">
        <ele>663.45</ele>
        <time>2017-02-12T11:31:13Z</time>
      </trkpt>
      <trkpt lat="45.6642" lon="4.44759">
        <ele>663.45</ele>
        <time>2017-02-12T11:31:25Z</time>
      </trkpt>
      <trkpt lat="45.66417" lon="4.44757">
        <ele>662.01</ele>
        <time>2017-02-12T11:31:36Z</time>
      </trkpt>
      <trkpt lat="45.66417" lon="4.44757">
        <ele>661.04</ele>
        <time>2017-02-12T11:31:58Z</time>
      </trkpt>
      <trkpt lat="45.66419" lon="4.44757">
        <ele>660.56</ele>
        <time>2017-02-12T11:32:10Z</time>
      </trkpt>
      <trkpt lat="45.66419" lon="4.44757">
        <ele>660.08</ele>
        <time>2017-02-12T11:32:29Z</time>
      </trkpt>
      <trkpt lat="45.6642" lon="4.44756">
        <ele>659.6</ele>
        <time>2017-02-12T11:32:42Z</time>
      </trkpt>
      <trkpt lat="45.6642" lon="4.44751">
        <ele>660.56</ele>
        <time>2017-02-12T11:32:56Z</time>
      </trkpt>
      <trkpt lat="45.66423" lon="4.44739">
        <ele>662.01</ele>
        <time>2017-02-12T11:33:08Z</time>
      </trkpt>
      <trkpt lat="45.66425" lon="4.44726">
        <ele>662.97</ele>
        <time>2017-02-12T11:33:20Z</time>
      </trkpt>
      <trkpt lat="45.66423" lon="4.44707">
        <ele>665.37</ele>
        <time>2017-02-12T11:33:36Z</time>
      </trkpt>
      <trkpt lat="45.66426" lon="4.44689">
        <ele>669.7</ele>
        <time>2017-02-12T11:33:49Z</time>
      </trkpt>
      <trkpt lat="45.66427" lon="4.4467">
        <ele>671.62</ele>
        <time>2017-02-12T11:34:04Z</time>
      </trkpt>
      <trkpt lat="45.66425" lon="4.44667">
        <ele>671.14</ele>
        <time>2017-02-12T11:34:15Z</time>
      </trkpt>
      <trkpt lat="45.66425" lon="4.44664">
        <ele>670.18</ele>
        <time>2017-02-12T11:34:17Z</time>
      </trkpt>
      <trkpt lat="45.66418" lon="4.44643">
        <ele>670.18</ele>
        <time>2017-02-12T11:34:33Z</time>
      </trkpt>
      <trkpt lat="45.66415" lon="4.44625">
        <ele>673.54</ele>
        <time>2017-02-12T11:34:45Z</time>
      </trkpt>
      <trkpt lat="45.66409" lon="4.44602">
        <ele>673.06</ele>
        <time>2017-02-12T11:34:57Z</time>
      </trkpt>
      <trkpt lat="45.66396" lon="4.44575">
        <ele>671.14</ele>
        <time>2017-02-12T11:35:13Z</time>
      </trkpt>
      <trkpt lat="45.6639" lon="4.4456">
        <ele>670.18</ele>
        <time>2017-02-12T11:35:21Z</time>
      </trkpt>
      <trkpt lat="45.66378" lon="4.44526">
        <ele>669.7</ele>
        <time>2017-02-12T11:35:39Z</time>
      </trkpt>
      <trkpt lat="45.66372" lon="4.44499">
        <ele>668.25</ele>
        <time>2017-02-12T11:35:53Z</time>
      </trkpt>
      <trkpt lat="45.66371" lon="4.44494">
        <ele>667.77</ele>
        <time>2017-02-12T11:36:06Z</time>
      </trkpt>
      <trkpt lat="45.66371" lon="4.44492">
        <ele>666.81</ele>
        <time>2017-02-12T11:36:22Z</time>
      </trkpt>
      <trkpt lat="45.66372" lon="4.44491">
        <ele>665.37</ele>
        <time>2017-02-12T11:36:43Z</time>
      </trkpt>
      <trkpt lat="45.66371" lon="4.44491">
        <ele>665.37</ele>
        <time>2017-02-12T11:36:56Z</time>
      </trkpt>
      <trkpt lat="45.66372" lon="4.4449">
        <ele>664.41</ele>
        <time>2017-02-12T11:37:11Z</time>
      </trkpt>
      <trkpt lat="45.66371" lon="4.4449">
        <ele>663.45</ele>
        <time>2017-02-12T11:37:38Z</time>
      </trkpt>
      <trkpt lat="45.6637" lon="4.44489">
        <ele>663.93</ele>
        <time>2017-02-12T11:37:59Z</time>
      </trkpt>
      <trkpt lat="45.66369" lon="4.44489">
        <ele>662.49</ele>
        <time>2017-02-12T11:38:25Z</time>
      </trkpt>
      <trkpt lat="45.66369" lon="4.44489">
        <ele>662.49</ele>
        <time>2017-02-12T11:38:50Z</time>
      </trkpt>
      <trkpt lat="45.66369" lon="4.44488">
        <ele>662.01</ele>
        <time>2017-02-12T11:39:15Z</time>
      </trkpt>
      <trkpt lat="45.66368" lon="4.44487">
        <ele>662.01</ele>
        <time>2017-02-12T11:39:43Z</time>
      </trkpt>
      <trkpt lat="45.66368" lon="4.44486">
        <ele>662.01</ele>
        <time>2017-02-12T11:40:11Z</time>
      </trkpt>
      <trkpt lat="45.66368" lon="4.44486">
        <ele>661.52</ele>
        <time>2017-02-12T11:40:40Z</time>
      </trkpt>
      <trkpt lat="45.66366" lon="4.44484">
        <ele>661.52</ele>
        <time>2017-02-12T11:41:17Z</time>
      </trkpt>
      <trkpt lat="45.66366" lon="4.44487">
        <ele>661.52</ele>
        <time>2017-02-12T11:41:52Z</time>
      </trkpt>
      <trkpt lat="45.66366" lon="4.44489">
        <ele>662.01</ele>
        <time>2017-02-12T11:42:25Z</time>
      </trkpt>
      <trkpt lat="45.66366" lon="4.44488">
        <ele>662.01</ele>
        <time>2017-02-12T11:42:47Z</time>
      </trkpt>
      <trkpt lat="45.66366" lon="4.44488">
        <ele>662.01</ele>
        <time>2017-02-12T11:43:15Z</time>
      </trkpt>
      <trkpt lat="45.66366" lon="4.44488">
        <ele>662.01</ele>
        <time>2017-02-12T11:43:44Z</time>
      </trkpt>
      <trkpt lat="45.66366" lon="4.44488">
        <ele>661.52</ele>
        <time>2017-02-12T11:44:16Z</time>
      </trkpt>
      <trkpt lat="45.66366" lon="4.44488">
        <ele>662.01</ele>
        <time>2017-02-12T11:44:42Z</time>
      </trkpt>
      <trkpt lat="45.66367" lon="4.44488">
        <ele>662.01</ele>
        <time>2017-02-12T11:45:09Z</time>
      </trkpt>
      <trkpt lat="45.66366" lon="4.44488">
        <ele>662.01</ele>
        <time>2017-02-12T11:45:38Z</time>
      </trkpt>
      <trkpt lat="45.66366" lon="4.44488">
        <ele>662.01</ele>
        <time>2017-02-12T11:46:06Z</time>
      </trkpt>
      <trkpt lat="45.66366" lon="4.44488">
        <ele>662.49</ele>
        <time>2017-02-12T11:46:36Z</time>
      </trkpt>
      <trkpt lat="45.66366" lon="4.44487">
        <ele>662.01</ele>
        <time>2017-02-12T11:47:10Z</time>
      </trkpt>
      <trkpt lat="45.66366" lon="4.44486">
        <ele>662.01</ele>
        <time>2017-02-12T11:47:46Z</time>
      </trkpt>
      <trkpt lat="45.66366" lon="4.44485">
        <ele>662.01</ele>
        <time>2017-02-12T11:48:13Z</time>
      </trkpt>
      <trkpt lat="45.66366" lon="4.44486">
        <ele>661.52</ele>
        <time>2017-02-12T11:48:46Z</time>
      </trkpt>
      <trkpt lat="45.66366" lon="4.44485">
        <ele>661.52</ele>
        <time>2017-02-12T11:49:13Z</time>
      </trkpt>
      <trkpt lat="45.66366" lon="4.44484">
        <ele>662.01</ele>
        <time>2017-02-12T11:49:39Z</time>
      </trkpt>
      <trkpt lat="45.66366" lon="4.44484">
        <ele>662.49</ele>
        <time>2017-02-12T11:50:08Z</time>
      </trkpt>
      <trkpt lat="45.66366" lon="4.44484">
        <ele>662.49</ele>
        <time>2017-02-12T11:50:38Z</time>
      </trkpt>
      <trkpt lat="45.66366" lon="4.44484">
        <ele>662.49</ele>
        <time>2017-02-12T11:51:11Z</time>
      </trkpt>
      <trkpt lat="45.66366" lon="4.44485">
        <ele>662.49</ele>
        <time>2017-02-12T11:51:46Z</time>
      </trkpt>
      <trkpt lat="45.66366" lon="4.44485">
        <ele>662.49</ele>
        <time>2017-02-12T11:52:19Z</time>
      </trkpt>
      <trkpt lat="45.66367" lon="4.44484">
        <ele>662.49</ele>
        <time>2017-02-12T11:52:52Z</time>
      </trkpt>
      <trkpt lat="45.66367" lon="4.44485">
        <ele>662.97</ele>
        <time>2017-02-12T11:53:17Z</time>
      </trkpt>
      <trkpt lat="45.66367" lon="4.44485">
        <ele>663.45</ele>
        <time>2017-02-12T11:53:47Z</time>
      </trkpt>
      <trkpt lat="45.66367" lon="4.44484">
        <ele>663.45</ele>
        <time>2017-02-12T11:54:24Z</time>
      </trkpt>
      <trkpt lat="45.66367" lon="4.44484">
        <ele>663.45</ele>
        <time>2017-02-12T11:54:55Z</time>
      </trkpt>
      <trkpt lat="45.66367" lon="4.44484">
        <ele>663.45</ele>
        <time>2017-02-12T11:55:20Z</time>
      </trkpt>
      <trkpt lat="45.66367" lon="4.44483">
        <ele>663.45</ele>
        <time>2017-02-12T11:55:52Z</time>
      </trkpt>
      <trkpt lat="45.66367" lon="4.44483">
        <ele>662.97</ele>
        <time>2017-02-12T11:56:21Z</time>
      </trkpt>
      <trkpt lat="45.66367" lon="4.44483">
        <ele>662.97</ele>
        <time>2017-02-12T11:56:57Z</time>
      </trkpt>
      <trkpt lat="45.66367" lon="4.44483">
        <ele>662.49</ele>
        <time>2017-02-12T11:57:31Z</time>
      </trkpt>
      <trkpt lat="45.66367" lon="4.44482">
        <ele>662.49</ele>
        <time>2017-02-12T11:58:02Z</time>
      </trkpt>
      <trkpt lat="45.66367" lon="4.44482">
        <ele>662.97</ele>
        <time>2017-02-12T11:58:31Z</time>
      </trkpt>
      <trkpt lat="45.66367" lon="4.44484">
        <ele>663.93</ele>
        <time>2017-02-12T11:59:03Z</time>
      </trkpt>
      <trkpt lat="45.66366" lon="4.44484">
        <ele>662.97</ele>
        <time>2017-02-12T11:59:30Z</time>
      </trkpt>
      <trkpt lat="45.66365" lon="4.44485">
        <ele>662.97</ele>
        <time>2017-02-12T12:00:00Z</time>
      </trkpt>
      <trkpt lat="45.66366" lon="4.44485">
        <ele>663.45</ele>
        <time>2017-02-12T12:00:27Z</time>
      </trkpt>
      <trkpt lat="45.66365" lon="4.44485">
        <ele>663.45</ele>
        <time>2017-02-12T12:00:57Z</time>
      </trkpt>
      <trkpt lat="45.66365" lon="4.44485">
        <ele>663.93</ele>
        <time>2017-02-12T12:01:21Z</time>
      </trkpt>
      <trkpt lat="45.66365" lon="4.44485">
        <ele>662.97</ele>
        <time>2017-02-12T12:01:51Z</time>
      </trkpt>
      <trkpt lat="45.66365" lon="4.44485">
        <ele>662.49</ele>
        <time>2017-02-12T12:02:26Z</time>
      </trkpt>
      <trkpt lat="45.66365" lon="4.44485">
        <ele>662.49</ele>
        <time>2017-02-12T12:02:58Z</time>
      </trkpt>
      <trkpt lat="45.66365" lon="4.44484">
        <ele>662.01</ele>
        <time>2017-02-12T12:03:30Z</time>
      </trkpt>
      <trkpt lat="45.66366" lon="4.44483">
        <ele>661.52</ele>
        <time>2017-02-12T12:04:03Z</time>
      </trkpt>
      <trkpt lat="45.66366" lon="4.44483">
        <ele>661.04</ele>
        <time>2017-02-12T12:04:36Z</time>
      </trkpt>
      <trkpt lat="45.66366" lon="4.44482">
        <ele>661.04</ele>
        <time>2017-02-12T12:05:02Z</time>
      </trkpt>
      <trkpt lat="45.66366" lon="4.44483">
        <ele>662.49</ele>
        <time>2017-02-12T12:05:40Z</time>
      </trkpt>
      <trkpt lat="45.66367" lon="4.44483">
        <ele>663.45</ele>
        <time>2017-02-12T12:06:20Z</time>
      </trkpt>
      <trkpt lat="45.66367" lon="4.44483">
        <ele>663.45</ele>
        <time>2017-02-12T12:06:51Z</time>
      </trkpt>
      <trkpt lat="45.66367" lon="4.44484">
        <ele>663.45</ele>
        <time>2017-02-12T12:07:22Z</time>
      </trkpt>
      <trkpt lat="45.66367" lon="4.44483">
        <ele>663.45</ele>
        <time>2017-02-12T12:07:45Z</time>
      </trkpt>
      <trkpt lat="45.66368" lon="4.44484">
        <ele>662.49</ele>
        <time>2017-02-12T12:08:07Z</time>
      </trkpt>
      <trkpt lat="45.66368" lon="4.44482">
        <ele>662.49</ele>
        <time>2017-02-12T12:08:33Z</time>
      </trkpt>
      <trkpt lat="45.66368" lon="4.44482">
        <ele>663.93</ele>
        <time>2017-02-12T12:09:01Z</time>
      </trkpt>
      <trkpt lat="45.66368" lon="4.44482">
        <ele>663.93</ele>
        <time>2017-02-12T12:09:23Z</time>
      </trkpt>
      <trkpt lat="45.66369" lon="4.44484">
        <ele>664.41</ele>
        <time>2017-02-12T12:09:46Z</time>
      </trkpt>
      <trkpt lat="45.6637" lon="4.44484">
        <ele>665.37</ele>
        <time>2017-02-12T12:10:09Z</time>
      </trkpt>
      <trkpt lat="45.66371" lon="4.44486">
        <ele>665.37</ele>
        <time>2017-02-12T12:10:35Z</time>
      </trkpt>
      <trkpt lat="45.66371" lon="4.44485">
        <ele>666.81</ele>
        <time>2017-02-12T12:11:04Z</time>
      </trkpt>
      <trkpt lat="45.66371" lon="4.44485">
        <ele>666.81</ele>
        <time>2017-02-12T12:11:25Z</time>
      </trkpt>
      <trkpt lat="45.6637" lon="4.44485">
        <ele>666.81</ele>
        <time>2017-02-12T12:11:57Z</time>
      </trkpt>
      <trkpt lat="45.6637" lon="4.44485">
        <ele>666.33</ele>
        <time>2017-02-12T12:12:28Z</time>
      </trkpt>
      <trkpt lat="45.6637" lon="4.44485">
        <ele>666.33</ele>
        <time>2017-02-12T12:13:01Z</time>
      </trkpt>
      <trkpt lat="45.6637" lon="4.44485">
        <ele>665.37</ele>
        <time>2017-02-12T12:13:32Z</time>
      </trkpt>
      <trkpt lat="45.6637" lon="4.44485">
        <ele>666.33</ele>
        <time>2017-02-12T12:14:01Z</time>
      </trkpt>
      <trkpt lat="45.6637" lon="4.44485">
        <ele>665.85</ele>
        <time>2017-02-12T12:14:38Z</time>
      </trkpt>
      <trkpt lat="45.6637" lon="4.44486">
        <ele>665.85</ele>
        <time>2017-02-12T12:15:18Z</time>
      </trkpt>
      <trkpt lat="45.6637" lon="4.44487">
        <ele>666.33</ele>
        <time>2017-02-12T12:15:58Z</time>
      </trkpt>
      <trkpt lat="45.6637" lon="4.44487">
        <ele>666.33</ele>
        <time>2017-02-12T12:16:29Z</time>
      </trkpt>
      <trkpt lat="45.6637" lon="4.44487">
        <ele>665.37</ele>
        <time>2017-02-12T12:17:06Z</time>
      </trkpt>
      <trkpt lat="45.66369" lon="4.44488">
        <ele>665.37</ele>
        <time>2017-02-12T12:17:39Z</time>
      </trkpt>
      <trkpt lat="45.66369" lon="4.44487">
        <ele>664.89</ele>
        <time>2017-02-12T12:18:11Z</time>
      </trkpt>
      <trkpt lat="45.66369" lon="4.44487">
        <ele>664.41</ele>
        <time>2017-02-12T12:18:44Z</time>
      </trkpt>
      <trkpt lat="45.66369" lon="4.44487">
        <ele>663.45</ele>
        <time>2017-02-12T12:19:17Z</time>
      </trkpt>
      <trkpt lat="45.66369" lon="4.44486">
        <ele>664.41</ele>
        <time>2017-02-12T12:19:57Z</time>
      </trkpt>
      <trkpt lat="45.66369" lon="4.44486">
        <ele>665.37</ele>
        <time>2017-02-12T12:20:34Z</time>
      </trkpt>
      <trkpt lat="45.66369" lon="4.44487">
        <ele>664.89</ele>
        <time>2017-02-12T12:21:02Z</time>
      </trkpt>
      <trkpt lat="45.66369" lon="4.44487">
        <ele>664.89</ele>
        <time>2017-02-12T12:21:34Z</time>
      </trkpt>
      <trkpt lat="45.66369" lon="4.44486">
        <ele>665.37</ele>
        <time>2017-02-12T12:22:02Z</time>
      </trkpt>
      <trkpt lat="45.66368" lon="4.44487">
        <ele>665.37</ele>
        <time>2017-02-12T12:22:38Z</time>
      </trkpt>
      <trkpt lat="45.66368" lon="4.44487">
        <ele>665.37</ele>
        <time>2017-02-12T12:23:08Z</time>
      </trkpt>
      <trkpt lat="45.66367" lon="4.44487">
        <ele>666.33</ele>
        <time>2017-02-12T12:23:36Z</time>
      </trkpt>
      <trkpt lat="45.66368" lon="4.44487">
        <ele>666.81</ele>
        <time>2017-02-12T12:24:07Z</time>
      </trkpt>
      <trkpt lat="45.66367" lon="4.44487">
        <ele>666.81</ele>
        <time>2017-02-12T12:24:43Z</time>
      </trkpt>
      <trkpt lat="45.66366" lon="4.44487">
        <ele>667.29</ele>
        <time>2017-02-12T12:25:14Z</time>
      </trkpt>
      <trkpt lat="45.66365" lon="4.44487">
        <ele>667.29</ele>
        <time>2017-02-12T12:25:42Z</time>
      </trkpt>
      <trkpt lat="45.66365" lon="4.44487">
        <ele>667.77</ele>
        <time>2017-02-12T12:26:10Z</time>
      </trkpt>
      <trkpt lat="45.66365" lon="4.44488">
        <ele>668.25</ele>
        <time>2017-02-12T12:26:42Z</time>
      </trkpt>
      <trkpt lat="45.66366" lon="4.44486">
        <ele>673.54</ele>
        <time>2017-02-12T12:27:15Z</time>
      </trkpt>
      <trkpt lat="45.66366" lon="4.44486">
        <ele>674.5</ele>
        <time>2017-02-12T12:27:38Z</time>
      </trkpt>
      <trkpt lat="45.66366" lon="4.44485">
        <ele>673.06</ele>
        <time>2017-02-12T12:27:56Z</time>
      </trkpt>
      <trkpt lat="45.66368" lon="4.44486">
        <ele>672.1</ele>
        <time>2017-02-12T12:28:10Z</time>
      </trkpt>
      <trkpt lat="45.6637" lon="4.44486">
        <ele>671.62</ele>
        <time>2017-02-12T12:28:24Z</time>
      </trkpt>
      <trkpt lat="45.66371" lon="4.44487">
        <ele>671.14</ele>
        <time>2017-02-12T12:28:42Z</time>
      </trkpt>
      <trkpt lat="45.66373" lon="4.44487">
        <ele>671.14</ele>
        <time>2017-02-12T12:28:55Z</time>
      </trkpt>
      <trkpt lat="45.66374" lon="4.44487">
        <ele>670.66</ele>
        <time>2017-02-12T12:29:10Z</time>
      </trkpt>
      <trkpt lat="45.66372" lon="4.44487">
        <ele>670.18</ele>
        <time>2017-02-12T12:29:21Z</time>
      </trkpt>
      <trkpt lat="45.66372" lon="4.44487">
        <ele>669.7</ele>
        <time>2017-02-12T12:29:37Z</time>
      </trkpt>
      <trkpt lat="45.6637" lon="4.44488">
        <ele>668.73</ele>
        <time>2017-02-12T12:29:51Z</time>
      </trkpt>
      <trkpt lat="45.6637" lon="4.44488">
        <ele>668.25</ele>
        <time>2017-02-12T12:29:54Z</time>
      </trkpt>
      <trkpt lat="45.6637" lon="4.44488">
        <ele>668.73</ele>
        <time>2017-02-12T12:30:01Z</time>
      </trkpt>
      <trkpt lat="45.66369" lon="4.44487">
        <ele>669.22</ele>
        <time>2017-02-12T12:30:16Z</time>
      </trkpt>
      <trkpt lat="45.66369" lon="4.44487">
        <ele>669.7</ele>
        <time>2017-02-12T12:30:33Z</time>
      </trkpt>
      <trkpt lat="45.66369" lon="4.44486">
        <ele>670.18</ele>
        <time>2017-02-12T12:30:53Z</time>
      </trkpt>
      <trkpt lat="45.66369" lon="4.44485">
        <ele>670.18</ele>
        <time>2017-02-12T12:31:15Z</time>
      </trkpt>
      <trkpt lat="45.6637" lon="4.44485">
        <ele>671.14</ele>
        <time>2017-02-12T12:31:29Z</time>
      </trkpt>
      <trkpt lat="45.66371" lon="4.44484">
        <ele>671.14</ele>
        <time>2017-02-12T12:31:44Z</time>
      </trkpt>
      <trkpt lat="45.66372" lon="4.44484">
        <ele>669.7</ele>
        <time>2017-02-12T12:32:09Z</time>
      </trkpt>
      <trkpt lat="45.66372" lon="4.44484">
        <ele>671.14</ele>
        <time>2017-02-12T12:32:21Z</time>
      </trkpt>
      <trkpt lat="45.66372" lon="4.44484">
        <ele>670.66</ele>
        <time>2017-02-12T12:32:40Z</time>
      </trkpt>
      <trkpt lat="45.66372" lon="4.44484">
        <ele>670.66</ele>
        <time>2017-02-12T12:32:55Z</time>
      </trkpt>
      <trkpt lat="45.66371" lon="4.44484">
        <ele>670.18</ele>
        <time>2017-02-12T12:33:08Z</time>
      </trkpt>
      <trkpt lat="45.66371" lon="4.44484">
        <ele>670.18</ele>
        <time>2017-02-12T12:33:23Z</time>
      </trkpt>
      <trkpt lat="45.66371" lon="4.44484">
        <ele>669.22</ele>
        <time>2017-02-12T12:33:46Z</time>
      </trkpt>
      <trkpt lat="45.66371" lon="4.44484">
        <ele>669.22</ele>
        <time>2017-02-12T12:34:06Z</time>
      </trkpt>
      <trkpt lat="45.66372" lon="4.44483">
        <ele>669.22</ele>
        <time>2017-02-12T12:34:17Z</time>
      </trkpt>
      <trkpt lat="45.66368" lon="4.44473">
        <ele>671.14</ele>
        <time>2017-02-12T12:34:27Z</time>
      </trkpt>
      <trkpt lat="45.66361" lon="4.4445">
        <ele>675.46</ele>
        <time>2017-02-12T12:34:42Z</time>
      </trkpt>
      <trkpt lat="45.66359" lon="4.44445">
        <ele>679.79</ele>
        <time>2017-02-12T12:34:53Z</time>
      </trkpt>
      <trkpt lat="45.66357" lon="4.44443">
        <ele>681.71</ele>
        <time>2017-02-12T12:35:03Z</time>
      </trkpt>
      <trkpt lat="45.66341" lon="4.44435">
        <ele>681.71</ele>
        <time>2017-02-12T12:35:18Z</time>
      </trkpt>
      <trkpt lat="45.66326" lon="4.44431">
        <ele>673.54</ele>
        <time>2017-02-12T12:35:33Z</time>
      </trkpt>
      <trkpt lat="45.66305" lon="4.44427">
        <ele>672.1</ele>
        <time>2017-02-12T12:35:47Z</time>
      </trkpt>
      <trkpt lat="45.66284" lon="4.44413">
        <ele>670.66</ele>
        <time>2017-02-12T12:36:03Z</time>
      </trkpt>
      <trkpt lat="45.66266" lon="4.4439">
        <ele>672.1</ele>
        <time>2017-02-12T12:36:21Z</time>
      </trkpt>
      <trkpt lat="45.6626" lon="4.4436">
        <ele>676.91</ele>
        <time>2017-02-12T12:36:37Z</time>
      </trkpt>
      <trkpt lat="45.66251" lon="4.44329">
        <ele>674.98</ele>
        <time>2017-02-12T12:36:51Z</time>
      </trkpt>
      <trkpt lat="45.6624" lon="4.44302">
        <ele>675.46</ele>
        <time>2017-02-12T12:37:05Z</time>
      </trkpt>
      <trkpt lat="45.66229" lon="4.4428">
        <ele>674.98</ele>
        <time>2017-02-12T12:37:19Z</time>
      </trkpt>
      <trkpt lat="45.6622" lon="4.44256">
        <ele>671.14</ele>
        <time>2017-02-12T12:37:36Z</time>
      </trkpt>
      <trkpt lat="45.66219" lon="4.44252">
        <ele>670.66</ele>
        <time>2017-02-12T12:37:38Z</time>
      </trkpt>
      <trkpt lat="45.66208" lon="4.4423">
        <ele>674.5</ele>
        <time>2017-02-12T12:37:54Z</time>
      </trkpt>
      <trkpt lat="45.66187" lon="4.44212">
        <ele>671.14</ele>
        <time>2017-02-12T12:38:12Z</time>
      </trkpt>
      <trkpt lat="45.66163" lon="4.44192">
        <ele>669.22</ele>
        <time>2017-02-12T12:38:30Z</time>
      </trkpt>
      <trkpt lat="45.66153" lon="4.44165">
        <ele>666.81</ele>
        <time>2017-02-12T12:38:46Z</time>
      </trkpt>
      <trkpt lat="45.6615" lon="4.44138">
        <ele>666.81</ele>
        <time>2017-02-12T12:39:02Z</time>
      </trkpt>
      <trkpt lat="45.66134" lon="4.44131">
        <ele>665.85</ele>
        <time>2017-02-12T12:39:17Z</time>
      </trkpt>
      <trkpt lat="45.66123" lon="4.44137">
        <ele>665.37</ele>
        <time>2017-02-12T12:39:30Z</time>
      </trkpt>
      <trkpt lat="45.66109" lon="4.44148">
        <ele>664.41</ele>
        <time>2017-02-12T12:39:43Z</time>
      </trkpt>
      <trkpt lat="45.661" lon="4.44143">
        <ele>661.52</ele>
        <time>2017-02-12T12:39:58Z</time>
      </trkpt>
      <trkpt lat="45.66098" lon="4.44144">
        <ele>661.04</ele>
        <time>2017-02-12T12:40:12Z</time>
      </trkpt>
      <trkpt lat="45.661" lon="4.4415">
        <ele>662.49</ele>
        <time>2017-02-12T12:40:24Z</time>
      </trkpt>
      <trkpt lat="45.661" lon="4.4415">
        <ele>661.52</ele>
        <time>2017-02-12T12:40:40Z</time>
      </trkpt>
      <trkpt lat="45.661" lon="4.4415">
        <ele>662.01</ele>
        <time>2017-02-12T12:40:42Z</time>
      </trkpt>
      <trkpt lat="45.66098" lon="4.44149">
        <ele>660.08</ele>
        <time>2017-02-12T12:40:55Z</time>
      </trkpt>
      <trkpt lat="45.66097" lon="4.44149">
        <ele>660.56</ele>
        <time>2017-02-12T12:41:04Z</time>
      </trkpt>
      <trkpt lat="45.66095" lon="4.44148">
        <ele>659.12</ele>
        <time>2017-02-12T12:41:17Z</time>
      </trkpt>
      <trkpt lat="45.66096" lon="4.4415">
        <ele>659.12</ele>
        <time>2017-02-12T12:41:38Z</time>
      </trkpt>
      <trkpt lat="45.66098" lon="4.44149">
        <ele>660.08</ele>
        <time>2017-02-12T12:41:50Z</time>
      </trkpt>
      <trkpt lat="45.661" lon="4.4415">
        <ele>659.6</ele>
        <time>2017-02-12T12:42:04Z</time>
      </trkpt>
      <trkpt lat="45.661" lon="4.44147">
        <ele>659.6</ele>
        <time>2017-02-12T12:42:21Z</time>
      </trkpt>
      <trkpt lat="45.66101" lon="4.44147">
        <ele>659.6</ele>
        <time>2017-02-12T12:42:39Z</time>
      </trkpt>
      <trkpt lat="45.66102" lon="4.44146">
        <ele>660.56</ele>
        <time>2017-02-12T12:42:59Z</time>
      </trkpt>
      <trkpt lat="45.66101" lon="4.44145">
        <ele>660.56</ele>
        <time>2017-02-12T12:43:12Z</time>
      </trkpt>
      <trkpt lat="45.66099" lon="4.44145">
        <ele>660.08</ele>
        <time>2017-02-12T12:43:26Z</time>
      </trkpt>
      <trkpt lat="45.661" lon="4.44145">
        <ele>660.08</ele>
        <time>2017-02-12T12:43:42Z</time>
      </trkpt>
      <trkpt lat="45.66099" lon="4.44147">
        <ele>660.08</ele>
        <time>2017-02-12T12:43:54Z</time>
      </trkpt>
      <trkpt lat="45.66094" lon="4.44159">
        <ele>660.08</ele>
        <time>2017-02-12T12:44:07Z</time>
      </trkpt>
      <trkpt lat="45.66093" lon="4.4416">
        <ele>660.08</ele>
        <time>2017-02-12T12:44:08Z</time>
      </trkpt>
      <trkpt lat="45.66088" lon="4.44175">
        <ele>661.04</ele>
        <time>2017-02-12T12:44:24Z</time>
      </trkpt>
      <trkpt lat="45.66078" lon="4.44196">
        <ele>661.04</ele>
        <time>2017-02-12T12:44:40Z</time>
      </trkpt>
      <trkpt lat="45.66062" lon="4.44224">
        <ele>658.64</ele>
        <time>2017-02-12T12:45:00Z</time>
      </trkpt>
      <trkpt lat="45.66047" lon="4.44249">
        <ele>659.12</ele>
        <time>2017-02-12T12:45:19Z</time>
      </trkpt>
      <trkpt lat="45.66043" lon="4.44255">
        <ele>660.08</ele>
        <time>2017-02-12T12:45:24Z</time>
      </trkpt>
      <trkpt lat="45.66043" lon="4.44258">
        <ele>659.6</ele>
        <time>2017-02-12T12:45:27Z</time>
      </trkpt>
      <trkpt lat="45.66031" lon="4.44269">
        <ele>661.04</ele>
        <time>2017-02-12T12:45:37Z</time>
      </trkpt>
      <trkpt lat="45.66027" lon="4.44278">
        <ele>661.04</ele>
        <time>2017-02-12T12:45:44Z</time>
      </trkpt>
      <trkpt lat="45.66041" lon="4.44296">
        <ele>667.77</ele>
        <time>2017-02-12T12:45:59Z</time>
      </trkpt>
      <trkpt lat="45.66058" lon="4.4431">
        <ele>671.62</ele>
        <time>2017-02-12T12:46:12Z</time>
      </trkpt>
      <trkpt lat="45.66074" lon="4.44326">
        <ele>676.91</ele>
        <time>2017-02-12T12:46:27Z</time>
      </trkpt>
      <trkpt lat="45.66089" lon="4.44345">
        <ele>678.35</ele>
        <time>2017-02-12T12:46:42Z</time>
      </trkpt>
      <trkpt lat="45.66103" lon="4.44364">
        <ele>675.94</ele>
        <time>2017-02-12T12:46:57Z</time>
      </trkpt>
      <trkpt lat="45.66105" lon="4.44366">
        <ele>675.46</ele>
        <time>2017-02-12T12:46:59Z</time>
      </trkpt>
      <trkpt lat="45.66118" lon="4.44387">
        <ele>672.1</ele>
        <time>2017-02-12T12:47:15Z</time>
      </trkpt>
      <trkpt lat="45.6613" lon="4.44407">
        <ele>670.66</ele>
        <time>2017-02-12T12:47:30Z</time>
      </trkpt>
      <trkpt lat="45.66139" lon="4.44425">
        <ele>665.85</ele>
        <time>2017-02-12T12:47:45Z</time>
      </trkpt>
      <trkpt lat="45.66147" lon="4.44442">
        <ele>666.81</ele>
        <time>2017-02-12T12:47:57Z</time>
      </trkpt>
      <trkpt lat="45.66159" lon="4.44464">
        <ele>666.81</ele>
        <time>2017-02-12T12:48:11Z</time>
      </trkpt>
      <trkpt lat="45.66172" lon="4.44484">
        <ele>664.41</ele>
        <time>2017-02-12T12:48:25Z</time>
      </trkpt>
      <trkpt lat="45.66187" lon="4.44501">
        <ele>666.33</ele>
        <time>2017-02-12T12:48:41Z</time>
      </trkpt>
      <trkpt lat="45.662" lon="4.44512">
        <ele>671.14</ele>
        <time>2017-02-12T12:48:55Z</time>
      </trkpt>
      <trkpt lat="45.66211" lon="4.44522">
        <ele>674.98</ele>
        <time>2017-02-12T12:49:03Z</time>
      </trkpt>
      <trkpt lat="45.6623" lon="4.44536">
        <ele>683.15</ele>
        <time>2017-02-12T12:49:21Z</time>
      </trkpt>
      <trkpt lat="45.6624" lon="4.4454">
        <ele>686.52</ele>
        <time>2017-02-12T12:49:34Z</time>
      </trkpt>
      <trkpt lat="45.66244" lon="4.44545">
        <ele>687.48</ele>
        <time>2017-02-12T12:49:38Z</time>
      </trkpt>
      <trkpt lat="45.66266" lon="4.44557">
        <ele>689.4</ele>
        <time>2017-02-12T12:49:55Z</time>
      </trkpt>
      <trkpt lat="45.66282" lon="4.44563">
        <ele>694.21</ele>
        <time>2017-02-12T12:50:08Z</time>
      </trkpt>
      <trkpt lat="45.66299" lon="4.44571">
        <ele>695.65</ele>
        <time>2017-02-12T12:50:21Z</time>
      </trkpt>
      <trkpt lat="45.66309" lon="4.44579">
        <ele>696.13</ele>
        <time>2017-02-12T12:50:32Z</time>
      </trkpt>
      <trkpt lat="45.66317" lon="4.44592">
        <ele>695.65</ele>
        <time>2017-02-12T12:50:46Z</time>
      </trkpt>
      <trkpt lat="45.66327" lon="4.44615">
        <ele>695.65</ele>
        <time>2017-02-12T12:51:00Z</time>
      </trkpt>
      <trkpt lat="45.66335" lon="4.44633">
        <ele>694.21</ele>
        <time>2017-02-12T12:51:12Z</time>
      </trkpt>
      <trkpt lat="45.66347" lon="4.44655">
        <ele>692.29</ele>
        <time>2017-02-12T12:51:27Z</time>
      </trkpt>
      <trkpt lat="45.66349" lon="4.44659">
        <ele>691.33</ele>
        <time>2017-02-12T12:51:30Z</time>
      </trkpt>
      <trkpt lat="45.66354" lon="4.44687">
        <ele>685.08</ele>
        <time>2017-02-12T12:51:46Z</time>
      </trkpt>
      <trkpt lat="45.66357" lon="4.44708">
        <ele>681.71</ele>
        <time>2017-02-12T12:52:00Z</time>
      </trkpt>
      <trkpt lat="45.66358" lon="4.44714">
        <ele>680.75</ele>
        <time>2017-02-12T12:52:04Z</time>
      </trkpt>
      <trkpt lat="45.66357" lon="4.44732">
        <ele>677.87</ele>
        <time>2017-02-12T12:52:15Z</time>
      </trkpt>
      <trkpt lat="45.66359" lon="4.44741">
        <ele>676.91</ele>
        <time>2017-02-12T12:52:19Z</time>
      </trkpt>
      <trkpt lat="45.66372" lon="4.44767">
        <ele>673.54</ele>
        <time>2017-02-12T12:52:37Z</time>
      </trkpt>
      <trkpt lat="45.66383" lon="4.44787">
        <ele>673.54</ele>
        <time>2017-02-12T12:52:51Z</time>
      </trkpt>
      <trkpt lat="45.66387" lon="4.44799">
        <ele>672.1</ele>
        <time>2017-02-12T12:53:00Z</time>
      </trkpt>
      <trkpt lat="45.66387" lon="4.44802">
        <ele>671.62</ele>
        <time>2017-02-12T12:53:02Z</time>
      </trkpt>
      <trkpt lat="45.66388" lon="4.44807">
        <ele>670.66</ele>
        <time>2017-02-12T12:53:06Z</time>
      </trkpt>
      <trkpt lat="45.66381" lon="4.44826">
        <ele>665.37</ele>
        <time>2017-02-12T12:53:20Z</time>
      </trkpt>
      <trkpt lat="45.66386" lon="4.44847">
        <ele>661.04</ele>
        <time>2017-02-12T12:53:34Z</time>
      </trkpt>
      <trkpt lat="45.66387" lon="4.44861">
        <ele>662.97</ele>
        <time>2017-02-12T12:53:46Z</time>
      </trkpt>
      <trkpt lat="45.66387" lon="4.44863">
        <ele>662.97</ele>
        <time>2017-02-12T12:53:47Z</time>
      </trkpt>
      <trkpt lat="45.66386" lon="4.44872">
        <ele>662.01</ele>
        <time>2017-02-12T12:53:53Z</time>
      </trkpt>
      <trkpt lat="45.66388" lon="4.4489">
        <ele>661.04</ele>
        <time>2017-02-12T12:54:06Z</time>
      </trkpt>
      <trkpt lat="45.66387" lon="4.44905">
        <ele>661.52</ele>
        <time>2017-02-12T12:54:19Z</time>
      </trkpt>
      <trkpt lat="45.66389" lon="4.44922">
        <ele>662.97</ele>
        <time>2017-02-12T12:54:32Z</time>
      </trkpt>
      <trkpt lat="45.66389" lon="4.44935">
        <ele>667.29</ele>
        <time>2017-02-12T12:54:43Z</time>
      </trkpt>
      <trkpt lat="45.66388" lon="4.44951">
        <ele>668.25</ele>
        <time>2017-02-12T12:54:57Z</time>
      </trkpt>
      <trkpt lat="45.6639" lon="4.44966">
        <ele>667.29</ele>
        <time>2017-02-12T12:55:09Z</time>
      </trkpt>
      <trkpt lat="45.66394" lon="4.44983">
        <ele>669.7</ele>
        <time>2017-02-12T12:55:23Z</time>
      </trkpt>
      <trkpt lat="45.66397" lon="4.45">
        <ele>670.18</ele>
        <time>2017-02-12T12:55:36Z</time>
      </trkpt>
      <trkpt lat="45.664" lon="4.45015">
        <ele>670.66</ele>
        <time>2017-02-12T12:55:50Z</time>
      </trkpt>
      <trkpt lat="45.66401" lon="4.45032">
        <ele>677.87</ele>
        <time>2017-02-12T12:56:05Z</time>
      </trkpt>
      <trkpt lat="45.66401" lon="4.45045">
        <ele>680.27</ele>
        <time>2017-02-12T12:56:16Z</time>
      </trkpt>
      <trkpt lat="45.66402" lon="4.45052">
        <ele>681.23</ele>
        <time>2017-02-12T12:56:22Z</time>
      </trkpt>
      <trkpt lat="45.66398" lon="4.45068">
        <ele>683.63</ele>
        <time>2017-02-12T12:56:35Z</time>
      </trkpt>
      <trkpt lat="45.66393" lon="4.45082">
        <ele>687.48</ele>
        <time>2017-02-12T12:56:49Z</time>
      </trkpt>
      <trkpt lat="45.6639" lon="4.45086">
        <ele>688.92</ele>
        <time>2017-02-12T12:56:53Z</time>
      </trkpt>
      <trkpt lat="45.66389" lon="4.45088">
        <ele>688.92</ele>
        <time>2017-02-12T12:56:55Z</time>
      </trkpt>
      <trkpt lat="45.66379" lon="4.45103">
        <ele>689.88</ele>
        <time>2017-02-12T12:57:09Z</time>
      </trkpt>
      <trkpt lat="45.66368" lon="4.45118">
        <ele>692.77</ele>
        <time>2017-02-12T12:57:24Z</time>
      </trkpt>
      <trkpt lat="45.66357" lon="4.45132">
        <ele>695.17</ele>
        <time>2017-02-12T12:57:38Z</time>
      </trkpt>
      <trkpt lat="45.66347" lon="4.45146">
        <ele>698.05</ele>
        <time>2017-02-12T12:57:52Z</time>
      </trkpt>
      <trkpt lat="45.66333" lon="4.45164">
        <ele>700.46</ele>
        <time>2017-02-12T12:58:09Z</time>
      </trkpt>
      <trkpt lat="45.6632" lon="4.4518">
        <ele>702.38</ele>
        <time>2017-02-12T12:58:25Z</time>
      </trkpt>
      <trkpt lat="45.6631" lon="4.45194">
        <ele>704.3</ele>
        <time>2017-02-12T12:58:38Z</time>
      </trkpt>
      <trkpt lat="45.66298" lon="4.45211">
        <ele>706.23</ele>
        <time>2017-02-12T12:58:53Z</time>
      </trkpt>
      <trkpt lat="45.6629" lon="4.45225">
        <ele>707.67</ele>
        <time>2017-02-12T12:59:05Z</time>
      </trkpt>
      <trkpt lat="45.66288" lon="4.45229">
        <ele>708.15</ele>
        <time>2017-02-12T12:59:08Z</time>
      </trkpt>
      <trkpt lat="45.66286" lon="4.45239">
        <ele>709.11</ele>
        <time>2017-02-12T12:59:14Z</time>
      </trkpt>
      <trkpt lat="45.66285" lon="4.45268">
        <ele>711.99</ele>
        <time>2017-02-12T12:59:31Z</time>
      </trkpt>
      <trkpt lat="45.66285" lon="4.453">
        <ele>712.95</ele>
        <time>2017-02-12T12:59:49Z</time>
      </trkpt>
      <trkpt lat="45.6628" lon="4.45338">
        <ele>711.99</ele>
        <time>2017-02-12T13:00:10Z</time>
      </trkpt>
      <trkpt lat="45.66275" lon="4.45375">
        <ele>711.51</ele>
        <time>2017-02-12T13:00:30Z</time>
      </trkpt>
      <trkpt lat="45.66275" lon="4.45407">
        <ele>711.03</ele>
        <time>2017-02-12T13:00:47Z</time>
      </trkpt>
      <trkpt lat="45.66266" lon="4.45436">
        <ele>711.51</ele>
        <time>2017-02-12T13:01:05Z</time>
      </trkpt>
      <trkpt lat="45.66251" lon="4.45457">
        <ele>711.51</ele>
        <time>2017-02-12T13:01:23Z</time>
      </trkpt>
      <trkpt lat="45.66234" lon="4.45469">
        <ele>711.99</ele>
        <time>2017-02-12T13:01:40Z</time>
      </trkpt>
      <trkpt lat="45.66232" lon="4.4547">
        <ele>711.99</ele>
        <time>2017-02-12T13:01:42Z</time>
      </trkpt>
      <trkpt lat="45.66229" lon="4.45474">
        <ele>712.95</ele>
        <time>2017-02-12T13:01:46Z</time>
      </trkpt>
      <trkpt lat="45.66227" lon="4.4549">
        <ele>715.36</ele>
        <time>2017-02-12T13:01:56Z</time>
      </trkpt>
      <trkpt lat="45.66228" lon="4.45503">
        <ele>716.8</ele>
        <time>2017-02-12T13:02:03Z</time>
      </trkpt>
      <trkpt lat="45.66229" lon="4.45513">
        <ele>717.28</ele>
        <time>2017-02-12T13:02:08Z</time>
      </trkpt>
      <trkpt lat="45.66227" lon="4.45541">
        <ele>718.24</ele>
        <time>2017-02-12T13:02:25Z</time>
      </trkpt>
      <trkpt lat="45.66223" lon="4.45568">
        <ele>720.16</ele>
        <time>2017-02-12T13:02:41Z</time>
      </trkpt>
      <trkpt lat="45.6622" lon="4.45598">
        <ele>721.61</ele>
        <time>2017-02-12T13:02:59Z</time>
      </trkpt>
      <trkpt lat="45.66222" lon="4.45634">
        <ele>724.97</ele>
        <time>2017-02-12T13:03:20Z</time>
      </trkpt>
      <trkpt lat="45.66224" lon="4.45662">
        <ele>725.93</ele>
        <time>2017-02-12T13:03:36Z</time>
      </trkpt>
      <trkpt lat="45.66225" lon="4.4569">
        <ele>727.86</ele>
        <time>2017-02-12T13:03:53Z</time>
      </trkpt>
      <trkpt lat="45.66225" lon="4.45711">
        <ele>729.3</ele>
        <time>2017-02-12T13:04:08Z</time>
      </trkpt>
      <trkpt lat="45.66223" lon="4.45717">
        <ele>728.82</ele>
        <time>2017-02-12T13:04:22Z</time>
      </trkpt>
      <trkpt lat="45.66221" lon="4.45718">
        <ele>728.82</ele>
        <time>2017-02-12T13:04:37Z</time>
      </trkpt>
      <trkpt lat="45.66221" lon="4.45719">
        <ele>728.82</ele>
        <time>2017-02-12T13:04:51Z</time>
      </trkpt>
      <trkpt lat="45.66222" lon="4.45719">
        <ele>728.82</ele>
        <time>2017-02-12T13:05:09Z</time>
      </trkpt>
      <trkpt lat="45.66221" lon="4.45718">
        <ele>728.34</ele>
        <time>2017-02-12T13:05:29Z</time>
      </trkpt>
      <trkpt lat="45.66221" lon="4.45719">
        <ele>727.37</ele>
        <time>2017-02-12T13:05:52Z</time>
      </trkpt>
      <trkpt lat="45.66221" lon="4.45718">
        <ele>727.37</ele>
        <time>2017-02-12T13:06:18Z</time>
      </trkpt>
      <trkpt lat="45.66221" lon="4.45719">
        <ele>727.86</ele>
        <time>2017-02-12T13:06:41Z</time>
      </trkpt>
      <trkpt lat="45.66221" lon="4.45719">
        <ele>727.86</ele>
        <time>2017-02-12T13:06:59Z</time>
      </trkpt>
      <trkpt lat="45.66221" lon="4.45719">
        <ele>727.86</ele>
        <time>2017-02-12T13:07:20Z</time>
      </trkpt>
      <trkpt lat="45.66221" lon="4.45719">
        <ele>727.86</ele>
        <time>2017-02-12T13:07:40Z</time>
      </trkpt>
      <trkpt lat="45.66221" lon="4.45719">
        <ele>727.86</ele>
        <time>2017-02-12T13:07:59Z</time>
      </trkpt>
      <trkpt lat="45.66221" lon="4.45724">
        <ele>727.86</ele>
        <time>2017-02-12T13:08:17Z</time>
      </trkpt>
      <trkpt lat="45.66219" lon="4.45743">
        <ele>728.34</ele>
        <time>2017-02-12T13:08:32Z</time>
      </trkpt>
      <trkpt lat="45.66219" lon="4.45768">
        <ele>730.26</ele>
        <time>2017-02-12T13:08:47Z</time>
      </trkpt>
      <trkpt lat="45.66217" lon="4.45798">
        <ele>731.7</ele>
        <time>2017-02-12T13:09:05Z</time>
      </trkpt>
      <trkpt lat="45.66216" lon="4.45824">
        <ele>732.66</ele>
        <time>2017-02-12T13:09:20Z</time>
      </trkpt>
      <trkpt lat="45.66216" lon="4.45827">
        <ele>732.66</ele>
        <time>2017-02-12T13:09:22Z</time>
      </trkpt>
      <trkpt lat="45.66215" lon="4.45838">
        <ele>732.18</ele>
        <time>2017-02-12T13:09:28Z</time>
      </trkpt>
      <trkpt lat="45.66215" lon="4.45868">
        <ele>734.58</ele>
        <time>2017-02-12T13:09:45Z</time>
      </trkpt>
      <trkpt lat="45.66215" lon="4.45891">
        <ele>735.07</ele>
        <time>2017-02-12T13:09:58Z</time>
      </trkpt>
      <trkpt lat="45.66213" lon="4.45915">
        <ele>735.55</ele>
        <time>2017-02-12T13:10:12Z</time>
      </trkpt>
      <trkpt lat="45.6621" lon="4.45939">
        <ele>737.47</ele>
        <time>2017-02-12T13:10:26Z</time>
      </trkpt>
      <trkpt lat="45.66207" lon="4.45962">
        <ele>738.91</ele>
        <time>2017-02-12T13:10:40Z</time>
      </trkpt>
      <trkpt lat="45.66209" lon="4.45986">
        <ele>741.79</ele>
        <time>2017-02-12T13:10:55Z</time>
      </trkpt>
      <trkpt lat="45.66209" lon="4.45988">
        <ele>742.76</ele>
        <time>2017-02-12T13:10:57Z</time>
      </trkpt>
      <trkpt lat="45.66209" lon="4.46006">
        <ele>744.68</ele>
        <time>2017-02-12T13:11:08Z</time>
      </trkpt>
      <trkpt lat="45.66205" lon="4.46033">
        <ele>749.49</ele>
        <time>2017-02-12T13:11:27Z</time>
      </trkpt>
      <trkpt lat="45.66201" lon="4.46053">
        <ele>752.37</ele>
        <time>2017-02-12T13:11:41Z</time>
      </trkpt>
      <trkpt lat="45.66201" lon="4.46055">
        <ele>752.85</ele>
        <time>2017-02-12T13:11:42Z</time>
      </trkpt>
      <trkpt lat="45.66199" lon="4.46062">
        <ele>752.85</ele>
        <time>2017-02-12T13:11:47Z</time>
      </trkpt>
      <trkpt lat="45.66194" lon="4.4608">
        <ele>752.37</ele>
        <time>2017-02-12T13:11:59Z</time>
      </trkpt>
      <trkpt lat="45.66198" lon="4.4611">
        <ele>750.93</ele>
        <time>2017-02-12T13:12:13Z</time>
      </trkpt>
      <trkpt lat="45.66201" lon="4.46128">
        <ele>750.45</ele>
        <time>2017-02-12T13:12:21Z</time>
      </trkpt>
      <trkpt lat="45.66207" lon="4.46163">
        <ele>749.49</ele>
        <time>2017-02-12T13:12:39Z</time>
      </trkpt>
      <trkpt lat="45.66212" lon="4.46192">
        <ele>748.52</ele>
        <time>2017-02-12T13:12:54Z</time>
      </trkpt>
      <trkpt lat="45.66214" lon="4.46197">
        <ele>748.52</ele>
        <time>2017-02-12T13:12:57Z</time>
      </trkpt>
      <trkpt lat="45.66219" lon="4.46208">
        <ele>749.49</ele>
        <time>2017-02-12T13:13:03Z</time>
      </trkpt>
      <trkpt lat="45.66221" lon="4.46215">
        <ele>749.49</ele>
        <time>2017-02-12T13:13:07Z</time>
      </trkpt>
      <trkpt lat="45.66225" lon="4.46232">
        <ele>751.89</ele>
        <time>2017-02-12T13:13:17Z</time>
      </trkpt>
      <trkpt lat="45.66228" lon="4.46237">
        <ele>751.41</ele>
        <time>2017-02-12T13:13:20Z</time>
      </trkpt>
      <trkpt lat="45.66234" lon="4.46255">
        <ele>751.89</ele>
        <time>2017-02-12T13:13:31Z</time>
      </trkpt>
      <trkpt lat="45.66235" lon="4.46262">
        <ele>751.89</ele>
        <time>2017-02-12T13:13:35Z</time>
      </trkpt>
      <trkpt lat="45.66242" lon="4.46283">
        <ele>748.52</ele>
        <time>2017-02-12T13:13:49Z</time>
      </trkpt>
      <trkpt lat="45.66251" lon="4.46305">
        <ele>748.04</ele>
        <time>2017-02-12T13:14:04Z</time>
      </trkpt>
      <trkpt lat="45.66252" lon="4.46307">
        <ele>748.04</ele>
        <time>2017-02-12T13:14:05Z</time>
      </trkpt>
      <trkpt lat="45.66256" lon="4.46326">
        <ele>749</ele>
        <time>2017-02-12T13:14:18Z</time>
      </trkpt>
      <trkpt lat="45.66258" lon="4.46335">
        <ele>749</ele>
        <time>2017-02-12T13:14:24Z</time>
      </trkpt>
      <trkpt lat="45.6626" lon="4.46345">
        <ele>748.52</ele>
        <time>2017-02-12T13:14:30Z</time>
      </trkpt>
      <trkpt lat="45.6626" lon="4.46367">
        <ele>745.64</ele>
        <time>2017-02-12T13:14:43Z</time>
      </trkpt>
      <trkpt lat="45.66259" lon="4.46371">
        <ele>745.16</ele>
        <time>2017-02-12T13:14:45Z</time>
      </trkpt>
      <trkpt lat="45.6626" lon="4.46395">
        <ele>743.24</ele>
        <time>2017-02-12T13:15:01Z</time>
      </trkpt>
      <trkpt lat="45.6626" lon="4.46413">
        <ele>742.76</ele>
        <time>2017-02-12T13:15:11Z</time>
      </trkpt>
      <trkpt lat="45.66259" lon="4.4644">
        <ele>742.76</ele>
        <time>2017-02-12T13:15:26Z</time>
      </trkpt>
      <trkpt lat="45.66263" lon="4.46464">
        <ele>746.6</ele>
        <time>2017-02-12T13:15:39Z</time>
      </trkpt>
      <trkpt lat="45.66268" lon="4.46487">
        <ele>750.93</ele>
        <time>2017-02-12T13:15:52Z</time>
      </trkpt>
      <trkpt lat="45.66274" lon="4.46509">
        <ele>756.69</ele>
        <time>2017-02-12T13:16:05Z</time>
      </trkpt>
      <trkpt lat="45.66281" lon="4.46534">
        <ele>756.21</ele>
        <time>2017-02-12T13:16:20Z</time>
      </trkpt>
      <trkpt lat="45.66281" lon="4.46549">
        <ele>761.02</ele>
        <time>2017-02-12T13:16:28Z</time>
      </trkpt>
      <trkpt lat="45.66281" lon="4.46559">
        <ele>761.98</ele>
        <time>2017-02-12T13:16:33Z</time>
      </trkpt>
      <trkpt lat="45.66284" lon="4.46581">
        <ele>760.06</ele>
        <time>2017-02-12T13:16:45Z</time>
      </trkpt>
      <trkpt lat="45.66289" lon="4.46594">
        <ele>754.29</ele>
        <time>2017-02-12T13:16:53Z</time>
      </trkpt>
      <trkpt lat="45.66296" lon="4.46619">
        <ele>746.12</ele>
        <time>2017-02-12T13:17:09Z</time>
      </trkpt>
      <trkpt lat="45.66307" lon="4.46642">
        <ele>741.79</ele>
        <time>2017-02-12T13:17:24Z</time>
      </trkpt>
      <trkpt lat="45.66327" lon="4.46664">
        <ele>735.07</ele>
        <time>2017-02-12T13:17:42Z</time>
      </trkpt>
      <trkpt lat="45.66336" lon="4.46667">
        <ele>732.18</ele>
        <time>2017-02-12T13:17:50Z</time>
      </trkpt>
      <trkpt lat="45.66353" lon="4.46678">
        <ele>729.3</ele>
        <time>2017-02-12T13:18:06Z</time>
      </trkpt>
      <trkpt lat="45.66367" lon="4.46683">
        <ele>726.41</ele>
        <time>2017-02-12T13:18:19Z</time>
      </trkpt>
      <trkpt lat="45.66384" lon="4.46693">
        <ele>723.05</ele>
        <time>2017-02-12T13:18:34Z</time>
      </trkpt>
      <trkpt lat="45.66386" lon="4.46695">
        <ele>723.05</ele>
        <time>2017-02-12T13:18:36Z</time>
      </trkpt>
      <trkpt lat="45.66397" lon="4.46712">
        <ele>721.61</ele>
        <time>2017-02-12T13:18:51Z</time>
      </trkpt>
      <trkpt lat="45.66406" lon="4.46739">
        <ele>718.24</ele>
        <time>2017-02-12T13:19:08Z</time>
      </trkpt>
      <trkpt lat="45.66409" lon="4.46754">
        <ele>714.88</ele>
        <time>2017-02-12T13:19:17Z</time>
      </trkpt>
      <trkpt lat="45.66407" lon="4.46763">
        <ele>710.55</ele>
        <time>2017-02-12T13:19:31Z</time>
      </trkpt>
      <trkpt lat="45.66409" lon="4.46765">
        <ele>708.15</ele>
        <time>2017-02-12T13:19:48Z</time>
      </trkpt>
      <trkpt lat="45.66408" lon="4.46765">
        <ele>706.23</ele>
        <time>2017-02-12T13:20:04Z</time>
      </trkpt>
      <trkpt lat="45.66409" lon="4.46763">
        <ele>702.38</ele>
        <time>2017-02-12T13:20:25Z</time>
      </trkpt>
      <trkpt lat="45.66409" lon="4.46764">
        <ele>701.9</ele>
        <time>2017-02-12T13:20:49Z</time>
      </trkpt>
      <trkpt lat="45.66408" lon="4.46764">
        <ele>702.38</ele>
        <time>2017-02-12T13:21:12Z</time>
      </trkpt>
      <trkpt lat="45.66408" lon="4.46764">
        <ele>701.42</ele>
        <time>2017-02-12T13:21:24Z</time>
      </trkpt>
      <trkpt lat="45.66407" lon="4.46765">
        <ele>701.9</ele>
        <time>2017-02-12T13:21:47Z</time>
      </trkpt>
      <trkpt lat="45.66407" lon="4.46766">
        <ele>701.9</ele>
        <time>2017-02-12T13:22:16Z</time>
      </trkpt>
      <trkpt lat="45.66409" lon="4.46766">
        <ele>701.9</ele>
        <time>2017-02-12T13:22:45Z</time>
      </trkpt>
      <trkpt lat="45.6641" lon="4.46768">
        <ele>701.42</ele>
        <time>2017-02-12T13:23:12Z</time>
      </trkpt>
      <trkpt lat="45.66415" lon="4.46781">
        <ele>702.38</ele>
        <time>2017-02-12T13:23:25Z</time>
      </trkpt>
      <trkpt lat="45.66419" lon="4.468">
        <ele>705.26</ele>
        <time>2017-02-12T13:23:39Z</time>
      </trkpt>
      <trkpt lat="45.66426" lon="4.46831">
        <ele>705.75</ele>
        <time>2017-02-12T13:23:58Z</time>
      </trkpt>
      <trkpt lat="45.66428" lon="4.46845">
        <ele>704.78</ele>
        <time>2017-02-12T13:24:06Z</time>
      </trkpt>
      <trkpt lat="45.66432" lon="4.46878">
        <ele>703.34</ele>
        <time>2017-02-12T13:24:24Z</time>
      </trkpt>
      <trkpt lat="45.66432" lon="4.46884">
        <ele>703.34</ele>
        <time>2017-02-12T13:24:27Z</time>
      </trkpt>
      <trkpt lat="45.66441" lon="4.46915">
        <ele>701.42</ele>
        <time>2017-02-12T13:24:45Z</time>
      </trkpt>
      <trkpt lat="45.6645" lon="4.46942">
        <ele>699.02</ele>
        <time>2017-02-12T13:25:01Z</time>
      </trkpt>
      <trkpt lat="45.66463" lon="4.4697">
        <ele>698.05</ele>
        <time>2017-02-12T13:25:19Z</time>
      </trkpt>
      <trkpt lat="45.66474" lon="4.47001">
        <ele>697.09</ele>
        <time>2017-02-12T13:25:36Z</time>
      </trkpt>
      <trkpt lat="45.66476" lon="4.47023">
        <ele>696.61</ele>
        <time>2017-02-12T13:25:48Z</time>
      </trkpt>
      <trkpt lat="45.66475" lon="4.47057">
        <ele>697.09</ele>
        <time>2017-02-12T13:26:06Z</time>
      </trkpt>
      <trkpt lat="45.66472" lon="4.47091">
        <ele>697.09</ele>
        <time>2017-02-12T13:26:23Z</time>
      </trkpt>
      <trkpt lat="45.6648" lon="4.47126">
        <ele>696.13</ele>
        <time>2017-02-12T13:26:41Z</time>
      </trkpt>
      <trkpt lat="45.66495" lon="4.47155">
        <ele>697.57</ele>
        <time>2017-02-12T13:27:00Z</time>
      </trkpt>
      <trkpt lat="45.66511" lon="4.47179">
        <ele>698.53</ele>
        <time>2017-02-12T13:27:17Z</time>
      </trkpt>
      <trkpt lat="45.66526" lon="4.472">
        <ele>698.53</ele>
        <time>2017-02-12T13:27:34Z</time>
      </trkpt>
      <trkpt lat="45.66543" lon="4.47225">
        <ele>699.02</ele>
        <time>2017-02-12T13:27:52Z</time>
      </trkpt>
      <trkpt lat="45.66565" lon="4.47246">
        <ele>699.02</ele>
        <time>2017-02-12T13:28:12Z</time>
      </trkpt>
      <trkpt lat="45.66592" lon="4.47269">
        <ele>699.5</ele>
        <time>2017-02-12T13:28:36Z</time>
      </trkpt>
      <trkpt lat="45.66618" lon="4.47274">
        <ele>700.94</ele>
        <time>2017-02-12T13:28:56Z</time>
      </trkpt>
      <trkpt lat="45.66643" lon="4.47274">
        <ele>702.86</ele>
        <time>2017-02-12T13:29:17Z</time>
      </trkpt>
      <trkpt lat="45.66665" lon="4.47277">
        <ele>704.78</ele>
        <time>2017-02-12T13:29:35Z</time>
      </trkpt>
      <trkpt lat="45.66684" lon="4.47278">
        <ele>706.71</ele>
        <time>2017-02-12T13:29:51Z</time>
      </trkpt>
      <trkpt lat="45.66704" lon="4.47286">
        <ele>708.63</ele>
        <time>2017-02-12T13:30:08Z</time>
      </trkpt>
      <trkpt lat="45.66707" lon="4.47289">
        <ele>709.11</ele>
        <time>2017-02-12T13:30:11Z</time>
      </trkpt>
      <trkpt lat="45.66719" lon="4.47322">
        <ele>712.47</ele>
        <time>2017-02-12T13:30:32Z</time>
      </trkpt>
      <trkpt lat="45.66726" lon="4.47348">
        <ele>712.95</ele>
        <time>2017-02-12T13:30:48Z</time>
      </trkpt>
      <trkpt lat="45.66728" lon="4.47355">
        <ele>713.44</ele>
        <time>2017-02-12T13:31:00Z</time>
      </trkpt>
      <trkpt lat="45.66728" lon="4.47355">
        <ele>712.95</ele>
        <time>2017-02-12T13:31:18Z</time>
      </trkpt>
      <trkpt lat="45.66729" lon="4.47357">
        <ele>712.95</ele>
        <time>2017-02-12T13:31:31Z</time>
      </trkpt>
      <trkpt lat="45.66729" lon="4.47357">
        <ele>712.95</ele>
        <time>2017-02-12T13:31:51Z</time>
      </trkpt>
      <trkpt lat="45.66729" lon="4.47357">
        <ele>712.95</ele>
        <time>2017-02-12T13:32:16Z</time>
      </trkpt>
      <trkpt lat="45.66729" lon="4.47357">
        <ele>712.47</ele>
        <time>2017-02-12T13:32:41Z</time>
      </trkpt>
      <trkpt lat="45.66729" lon="4.47357">
        <ele>712.47</ele>
        <time>2017-02-12T13:33:05Z</time>
      </trkpt>
      <trkpt lat="45.66729" lon="4.47357">
        <ele>712.47</ele>
        <time>2017-02-12T13:33:20Z</time>
      </trkpt>
      <trkpt lat="45.6673" lon="4.47356">
        <ele>711.99</ele>
        <time>2017-02-12T13:33:38Z</time>
      </trkpt>
      <trkpt lat="45.6673" lon="4.47358">
        <ele>712.95</ele>
        <time>2017-02-12T13:33:54Z</time>
      </trkpt>
      <trkpt lat="45.66726" lon="4.47366">
        <ele>711.99</ele>
        <time>2017-02-12T13:34:01Z</time>
      </trkpt>
      <trkpt lat="45.66717" lon="4.47389">
        <ele>708.15</ele>
        <time>2017-02-12T13:34:17Z</time>
      </trkpt>
      <trkpt lat="45.66708" lon="4.47418">
        <ele>705.26</ele>
        <time>2017-02-12T13:34:34Z</time>
      </trkpt>
      <trkpt lat="45.66699" lon="4.47444">
        <ele>702.86</ele>
        <time>2017-02-12T13:34:48Z</time>
      </trkpt>
      <trkpt lat="45.66681" lon="4.47469">
        <ele>701.42</ele>
        <time>2017-02-12T13:35:06Z</time>
      </trkpt>
      <trkpt lat="45.66659" lon="4.47482">
        <ele>699.02</ele>
        <time>2017-02-12T13:35:23Z</time>
      </trkpt>
      <trkpt lat="45.6664" lon="4.47493">
        <ele>696.61</ele>
        <time>2017-02-12T13:35:38Z</time>
      </trkpt>
      <trkpt lat="45.66618" lon="4.47511">
        <ele>693.73</ele>
        <time>2017-02-12T13:35:56Z</time>
      </trkpt>
      <trkpt lat="45.666" lon="4.47536">
        <ele>689.88</ele>
        <time>2017-02-12T13:36:16Z</time>
      </trkpt>
      <trkpt lat="45.66586" lon="4.47551">
        <ele>690.36</ele>
        <time>2017-02-12T13:36:31Z</time>
      </trkpt>
      <trkpt lat="45.66573" lon="4.47556">
        <ele>692.29</ele>
        <time>2017-02-12T13:36:47Z</time>
      </trkpt>
      <trkpt lat="45.66568" lon="4.47556">
        <ele>693.25</ele>
        <time>2017-02-12T13:36:57Z</time>
      </trkpt>
      <trkpt lat="45.66563" lon="4.47557">
        <ele>694.69</ele>
        <time>2017-02-12T13:37:03Z</time>
      </trkpt>
      <trkpt lat="45.66538" lon="4.47549">
        <ele>695.17</ele>
        <time>2017-02-12T13:37:22Z</time>
      </trkpt>
      <trkpt lat="45.66513" lon="4.4754">
        <ele>693.25</ele>
        <time>2017-02-12T13:37:41Z</time>
      </trkpt>
      <trkpt lat="45.66496" lon="4.47533">
        <ele>691.81</ele>
        <time>2017-02-12T13:37:57Z</time>
      </trkpt>
      <trkpt lat="45.66482" lon="4.47525">
        <ele>689.88</ele>
        <time>2017-02-12T13:38:08Z</time>
      </trkpt>
      <trkpt lat="45.66463" lon="4.47518">
        <ele>688.92</ele>
        <time>2017-02-12T13:38:23Z</time>
      </trkpt>
      <trkpt lat="45.66439" lon="4.47507">
        <ele>688.44</ele>
        <time>2017-02-12T13:38:39Z</time>
      </trkpt>
      <trkpt lat="45.66423" lon="4.47501">
        <ele>687.96</ele>
        <time>2017-02-12T13:38:50Z</time>
      </trkpt>
      <trkpt lat="45.66407" lon="4.47491">
        <ele>687.96</ele>
        <time>2017-02-12T13:39:04Z</time>
      </trkpt>
      <trkpt lat="45.66382" lon="4.47475">
        <ele>689.4</ele>
        <time>2017-02-12T13:39:24Z</time>
      </trkpt>
      <trkpt lat="45.66363" lon="4.47459">
        <ele>691.81</ele>
        <time>2017-02-12T13:39:42Z</time>
      </trkpt>
      <trkpt lat="45.66344" lon="4.47441">
        <ele>693.25</ele>
        <time>2017-02-12T13:40:01Z</time>
      </trkpt>
      <trkpt lat="45.66325" lon="4.4744">
        <ele>694.69</ele>
        <time>2017-02-12T13:40:18Z</time>
      </trkpt>
      <trkpt lat="45.66322" lon="4.47446">
        <ele>695.17</ele>
        <time>2017-02-12T13:40:22Z</time>
      </trkpt>
      <trkpt lat="45.66319" lon="4.47452">
        <ele>696.13</ele>
        <time>2017-02-12T13:40:26Z</time>
      </trkpt>
      <trkpt lat="45.66311" lon="4.47474">
        <ele>698.53</ele>
        <time>2017-02-12T13:40:41Z</time>
      </trkpt>
      <trkpt lat="45.66298" lon="4.47499">
        <ele>699.02</ele>
        <time>2017-02-12T13:40:59Z</time>
      </trkpt>
      <trkpt lat="45.66284" lon="4.47528">
        <ele>697.09</ele>
        <time>2017-02-12T13:41:18Z</time>
      </trkpt>
      <trkpt lat="45.66277" lon="4.47565">
        <ele>695.17</ele>
        <time>2017-02-12T13:41:38Z</time>
      </trkpt>
      <trkpt lat="45.66268" lon="4.47611">
        <ele>692.29</ele>
        <time>2017-02-12T13:42:02Z</time>
      </trkpt>
      <trkpt lat="45.66262" lon="4.47654">
        <ele>690.84</ele>
        <time>2017-02-12T13:42:25Z</time>
      </trkpt>
      <trkpt lat="45.66254" lon="4.47695">
        <ele>689.4</ele>
        <time>2017-02-12T13:42:47Z</time>
      </trkpt>
      <trkpt lat="45.66247" lon="4.47738">
        <ele>687</ele>
        <time>2017-02-12T13:43:10Z</time>
      </trkpt>
      <trkpt lat="45.6624" lon="4.47779">
        <ele>685.56</ele>
        <time>2017-02-12T13:43:33Z</time>
      </trkpt>
      <trkpt lat="45.66235" lon="4.47815">
        <ele>685.08</ele>
        <time>2017-02-12T13:43:54Z</time>
      </trkpt>
      <trkpt lat="45.66229" lon="4.47844">
        <ele>682.67</ele>
        <time>2017-02-12T13:44:12Z</time>
      </trkpt>
      <trkpt lat="45.66224" lon="4.47853">
        <ele>681.71</ele>
        <time>2017-02-12T13:44:20Z</time>
      </trkpt>
      <trkpt lat="45.66215" lon="4.47865">
        <ele>681.71</ele>
        <time>2017-02-12T13:44:36Z</time>
      </trkpt>
      <trkpt lat="45.66215" lon="4.47867">
        <ele>681.71</ele>
        <time>2017-02-12T13:44:53Z</time>
      </trkpt>
      <trkpt lat="45.66215" lon="4.47867">
        <ele>681.71</ele>
        <time>2017-02-12T13:45:05Z</time>
      </trkpt>
      <trkpt lat="45.66214" lon="4.47867">
        <ele>682.19</ele>
        <time>2017-02-12T13:45:22Z</time>
      </trkpt>
      <trkpt lat="45.66214" lon="4.47867">
        <ele>682.19</ele>
        <time>2017-02-12T13:45:43Z</time>
      </trkpt>
      <trkpt lat="45.66215" lon="4.47867">
        <ele>681.71</ele>
        <time>2017-02-12T13:46:07Z</time>
      </trkpt>
      <trkpt lat="45.66214" lon="4.47869">
        <ele>681.71</ele>
        <time>2017-02-12T13:46:24Z</time>
      </trkpt>
      <trkpt lat="45.66208" lon="4.47898">
        <ele>680.75</ele>
        <time>2017-02-12T13:46:43Z</time>
      </trkpt>
      <trkpt lat="45.66203" lon="4.47926">
        <ele>678.83</ele>
        <time>2017-02-12T13:47:00Z</time>
      </trkpt>
      <trkpt lat="45.66197" lon="4.47962">
        <ele>675.94</ele>
        <time>2017-02-12T13:47:21Z</time>
      </trkpt>
      <trkpt lat="45.66192" lon="4.47997">
        <ele>673.06</ele>
        <time>2017-02-12T13:47:40Z</time>
      </trkpt>
      <trkpt lat="45.66184" lon="4.48038">
        <ele>670.18</ele>
        <time>2017-02-12T13:48:02Z</time>
      </trkpt>
      <trkpt lat="45.66176" lon="4.48073">
        <ele>669.22</ele>
        <time>2017-02-12T13:48:21Z</time>
      </trkpt>
      <trkpt lat="45.66173" lon="4.48112">
        <ele>670.18</ele>
        <time>2017-02-12T13:48:42Z</time>
      </trkpt>
      <trkpt lat="45.66174" lon="4.48136">
        <ele>670.66</ele>
        <time>2017-02-12T13:48:55Z</time>
      </trkpt>
      <trkpt lat="45.66174" lon="4.48166">
        <ele>672.58</ele>
        <time>2017-02-12T13:49:12Z</time>
      </trkpt>
      <trkpt lat="45.66181" lon="4.48197">
        <ele>673.54</ele>
        <time>2017-02-12T13:49:30Z</time>
      </trkpt>
      <trkpt lat="45.66192" lon="4.48227">
        <ele>673.54</ele>
        <time>2017-02-12T13:49:49Z</time>
      </trkpt>
      <trkpt lat="45.66206" lon="4.48254">
        <ele>672.1</ele>
        <time>2017-02-12T13:50:07Z</time>
      </trkpt>
      <trkpt lat="45.66215" lon="4.48266">
        <ele>674.02</ele>
        <time>2017-02-12T13:50:17Z</time>
      </trkpt>
      <trkpt lat="45.66224" lon="4.48295">
        <ele>676.42</ele>
        <time>2017-02-12T13:50:36Z</time>
      </trkpt>
      <trkpt lat="45.66231" lon="4.48326">
        <ele>674.02</ele>
        <time>2017-02-12T13:50:53Z</time>
      </trkpt>
      <trkpt lat="45.66239" lon="4.4836">
        <ele>673.06</ele>
        <time>2017-02-12T13:51:12Z</time>
      </trkpt>
      <trkpt lat="45.66231" lon="4.48391">
        <ele>674.5</ele>
        <time>2017-02-12T13:51:30Z</time>
      </trkpt>
      <trkpt lat="45.66211" lon="4.48422">
        <ele>671.62</ele>
        <time>2017-02-12T13:51:51Z</time>
      </trkpt>
      <trkpt lat="45.66215" lon="4.48456">
        <ele>671.14</ele>
        <time>2017-02-12T13:52:09Z</time>
      </trkpt>
      <trkpt lat="45.66228" lon="4.48477">
        <ele>673.06</ele>
        <time>2017-02-12T13:52:25Z</time>
      </trkpt>
      <trkpt lat="45.66215" lon="4.48503">
        <ele>674.5</ele>
        <time>2017-02-12T13:52:41Z</time>
      </trkpt>
      <trkpt lat="45.662" lon="4.48518">
        <ele>676.42</ele>
        <time>2017-02-12T13:52:55Z</time>
      </trkpt>
      <trkpt lat="45.66176" lon="4.48538">
        <ele>674.98</ele>
        <time>2017-02-12T13:53:15Z</time>
      </trkpt>
      <trkpt lat="45.66155" lon="4.48537">
        <ele>674.5</ele>
        <time>2017-02-12T13:53:32Z</time>
      </trkpt>
      <trkpt lat="45.66133" lon="4.4854">
        <ele>674.98</ele>
        <time>2017-02-12T13:53:51Z</time>
      </trkpt>
      <trkpt lat="45.66127" lon="4.4854">
        <ele>676.42</ele>
        <time>2017-02-12T13:54:07Z</time>
      </trkpt>
      <trkpt lat="45.66126" lon="4.4854">
        <ele>676.91</ele>
        <time>2017-02-12T13:54:24Z</time>
      </trkpt>
      <trkpt lat="45.66125" lon="4.48541">
        <ele>677.39</ele>
        <time>2017-02-12T13:54:46Z</time>
      </trkpt>
      <trkpt lat="45.66125" lon="4.48546">
        <ele>677.87</ele>
        <time>2017-02-12T13:54:53Z</time>
      </trkpt>
      <trkpt lat="45.66125" lon="4.48555">
        <ele>678.35</ele>
        <time>2017-02-12T13:54:59Z</time>
      </trkpt>
      <trkpt lat="45.66125" lon="4.48569">
        <ele>679.79</ele>
        <time>2017-02-12T13:55:09Z</time>
      </trkpt>
      <trkpt lat="45.66118" lon="4.48594">
        <ele>683.15</ele>
        <time>2017-02-12T13:55:26Z</time>
      </trkpt>
      <trkpt lat="45.66104" lon="4.48614">
        <ele>684.6</ele>
        <time>2017-02-12T13:55:43Z</time>
      </trkpt>
      <trkpt lat="45.66094" lon="4.48631">
        <ele>687.48</ele>
        <time>2017-02-12T13:55:58Z</time>
      </trkpt>
      <trkpt lat="45.66092" lon="4.4865">
        <ele>691.33</ele>
        <time>2017-02-12T13:56:13Z</time>
      </trkpt>
      <trkpt lat="45.66093" lon="4.48652">
        <ele>691.81</ele>
        <time>2017-02-12T13:56:15Z</time>
      </trkpt>
      <trkpt lat="45.66093" lon="4.48676">
        <ele>697.57</ele>
        <time>2017-02-12T13:56:32Z</time>
      </trkpt>
      <trkpt lat="45.66087" lon="4.48697">
        <ele>699.5</ele>
        <time>2017-02-12T13:56:48Z</time>
      </trkpt>
      <trkpt lat="45.66086" lon="4.48701">
        <ele>699.98</ele>
        <time>2017-02-12T13:56:51Z</time>
      </trkpt>
      <trkpt lat="45.6608" lon="4.48719">
        <ele>701.9</ele>
        <time>2017-02-12T13:57:04Z</time>
      </trkpt>
      <trkpt lat="45.66079" lon="4.48722">
        <ele>702.38</ele>
        <time>2017-02-12T13:57:06Z</time>
      </trkpt>
      <trkpt lat="45.66071" lon="4.48745">
        <ele>705.75</ele>
        <time>2017-02-12T13:57:22Z</time>
      </trkpt>
      <trkpt lat="45.66066" lon="4.48766">
        <ele>705.75</ele>
        <time>2017-02-12T13:57:38Z</time>
      </trkpt>
      <trkpt lat="45.66068" lon="4.48793">
        <ele>707.19</ele>
        <time>2017-02-12T13:57:55Z</time>
      </trkpt>
      <trkpt lat="45.66062" lon="4.48821">
        <ele>708.15</ele>
        <time>2017-02-12T13:58:12Z</time>
      </trkpt>
      <trkpt lat="45.66051" lon="4.48849">
        <ele>710.55</ele>
        <time>2017-02-12T13:58:30Z</time>
      </trkpt>
      <trkpt lat="45.66043" lon="4.48866">
        <ele>711.03</ele>
        <time>2017-02-12T13:58:43Z</time>
      </trkpt>
      <trkpt lat="45.66038" lon="4.48874">
        <ele>711.99</ele>
        <time>2017-02-12T13:58:49Z</time>
      </trkpt>
      <trkpt lat="45.66022" lon="4.48897">
        <ele>712.95</ele>
        <time>2017-02-12T13:59:08Z</time>
      </trkpt>
      <trkpt lat="45.6601" lon="4.48917">
        <ele>715.36</ele>
        <time>2017-02-12T13:59:25Z</time>
      </trkpt>
      <trkpt lat="45.66002" lon="4.48932">
        <ele>716.32</ele>
        <time>2017-02-12T13:59:39Z</time>
      </trkpt>
      <trkpt lat="45.66002" lon="4.48933">
        <ele>716.8</ele>
        <time>2017-02-12T13:59:40Z</time>
      </trkpt>
      <trkpt lat="45.65998" lon="4.48954">
        <ele>720.16</ele>
        <time>2017-02-12T13:59:56Z</time>
      </trkpt>
      <trkpt lat="45.65994" lon="4.48974">
        <ele>724.01</ele>
        <time>2017-02-12T14:00:12Z</time>
      </trkpt>
      <trkpt lat="45.65991" lon="4.48991">
        <ele>728.34</ele>
        <time>2017-02-12T14:00:25Z</time>
      </trkpt>
      <trkpt lat="45.65988" lon="4.49009">
        <ele>729.3</ele>
        <time>2017-02-12T14:00:37Z</time>
      </trkpt>
      <trkpt lat="45.65987" lon="4.4902">
        <ele>728.82</ele>
        <time>2017-02-12T14:00:50Z</time>
      </trkpt>
      <trkpt lat="45.65988" lon="4.49021">
        <ele>727.86</ele>
        <time>2017-02-12T14:01:02Z</time>
      </trkpt>
      <trkpt lat="45.65988" lon="4.4902">
        <ele>727.86</ele>
        <time>2017-02-12T14:01:30Z</time>
      </trkpt>
      <trkpt lat="45.65988" lon="4.4902">
        <ele>727.86</ele>
        <time>2017-02-12T14:01:50Z</time>
      </trkpt>
      <trkpt lat="45.65987" lon="4.4902">
        <ele>727.37</ele>
        <time>2017-02-12T14:02:14Z</time>
      </trkpt>
      <trkpt lat="45.65986" lon="4.4902">
        <ele>727.37</ele>
        <time>2017-02-12T14:02:37Z</time>
      </trkpt>
      <trkpt lat="45.6597" lon="4.49021">
        <ele>726.41</ele>
        <time>2017-02-12T14:02:52Z</time>
      </trkpt>
      <trkpt lat="45.65948" lon="4.49025">
        <ele>725.45</ele>
        <time>2017-02-12T14:03:11Z</time>
      </trkpt>
      <trkpt lat="45.65944" lon="4.49026">
        <ele>724.97</ele>
        <time>2017-02-12T14:03:14Z</time>
      </trkpt>
      <trkpt lat="45.65934" lon="4.49029">
        <ele>725.45</ele>
        <time>2017-02-12T14:03:23Z</time>
      </trkpt>
      <trkpt lat="45.65919" lon="4.49028">
        <ele>725.93</ele>
        <time>2017-02-12T14:03:36Z</time>
      </trkpt>
      <trkpt lat="45.65915" lon="4.49028">
        <ele>725.93</ele>
        <time>2017-02-12T14:03:40Z</time>
      </trkpt>
      <trkpt lat="45.6591" lon="4.49029">
        <ele>726.41</ele>
        <time>2017-02-12T14:03:44Z</time>
      </trkpt>
      <trkpt lat="45.65891" lon="4.49034">
        <ele>728.82</ele>
        <time>2017-02-12T14:04:01Z</time>
      </trkpt>
      <trkpt lat="45.65866" lon="4.49039">
        <ele>729.78</ele>
        <time>2017-02-12T14:04:20Z</time>
      </trkpt>
      <trkpt lat="45.65845" lon="4.49046">
        <ele>727.86</ele>
        <time>2017-02-12T14:04:38Z</time>
      </trkpt>
      <trkpt lat="45.65826" lon="4.49061">
        <ele>724.97</ele>
        <time>2017-02-12T14:04:55Z</time>
      </trkpt>
      <trkpt lat="45.65825" lon="4.49062">
        <ele>724.97</ele>
        <time>2017-02-12T14:04:56Z</time>
      </trkpt>
      <trkpt lat="45.6581" lon="4.49062">
        <ele>722.57</ele>
        <time>2017-02-12T14:05:11Z</time>
      </trkpt>
      <trkpt lat="45.65794" lon="4.49069">
        <ele>722.09</ele>
        <time>2017-02-12T14:05:27Z</time>
      </trkpt>
      <trkpt lat="45.65793" lon="4.49075">
        <ele>721.61</ele>
        <time>2017-02-12T14:05:31Z</time>
      </trkpt>
      <trkpt lat="45.65797" lon="4.49101">
        <ele>723.53</ele>
        <time>2017-02-12T14:05:47Z</time>
      </trkpt>
      <trkpt lat="45.65809" lon="4.49121">
        <ele>725.45</ele>
        <time>2017-02-12T14:06:02Z</time>
      </trkpt>
      <trkpt lat="45.65812" lon="4.49123">
        <ele>725.45</ele>
        <time>2017-02-12T14:06:05Z</time>
      </trkpt>
      <trkpt lat="45.65834" lon="4.4913">
        <ele>726.41</ele>
        <time>2017-02-12T14:06:25Z</time>
      </trkpt>
      <trkpt lat="45.65857" lon="4.49144">
        <ele>726.89</ele>
        <time>2017-02-12T14:06:44Z</time>
      </trkpt>
      <trkpt lat="45.65879" lon="4.49158">
        <ele>726.89</ele>
        <time>2017-02-12T14:07:02Z</time>
      </trkpt>
      <trkpt lat="45.65901" lon="4.49173">
        <ele>725.93</ele>
        <time>2017-02-12T14:07:21Z</time>
      </trkpt>
      <trkpt lat="45.65927" lon="4.49197">
        <ele>726.41</ele>
        <time>2017-02-12T14:07:45Z</time>
      </trkpt>
      <trkpt lat="45.65949" lon="4.49223">
        <ele>726.89</ele>
        <time>2017-02-12T14:08:07Z</time>
      </trkpt>
      <trkpt lat="45.65971" lon="4.49246">
        <ele>725.93</ele>
        <time>2017-02-12T14:08:28Z</time>
      </trkpt>
      <trkpt lat="45.65986" lon="4.49266">
        <ele>725.45</ele>
        <time>2017-02-12T14:08:44Z</time>
      </trkpt>
      <trkpt lat="45.65993" lon="4.49295">
        <ele>726.89</ele>
        <time>2017-02-12T14:09:02Z</time>
      </trkpt>
      <trkpt lat="45.65998" lon="4.49331">
        <ele>729.3</ele>
        <time>2017-02-12T14:09:22Z</time>
      </trkpt>
      <trkpt lat="45.6601" lon="4.4936">
        <ele>729.78</ele>
        <time>2017-02-12T14:09:41Z</time>
      </trkpt>
      <trkpt lat="45.66023" lon="4.49388">
        <ele>728.82</ele>
        <time>2017-02-12T14:09:59Z</time>
      </trkpt>
      <trkpt lat="45.66034" lon="4.49414">
        <ele>728.34</ele>
        <time>2017-02-12T14:10:16Z</time>
      </trkpt>
      <trkpt lat="45.6605" lon="4.49441">
        <ele>730.26</ele>
        <time>2017-02-12T14:10:36Z</time>
      </trkpt>
      <trkpt lat="45.66062" lon="4.49463">
        <ele>730.26</ele>
        <time>2017-02-12T14:10:51Z</time>
      </trkpt>
      <trkpt lat="45.66077" lon="4.49486">
        <ele>730.74</ele>
        <time>2017-02-12T14:11:08Z</time>
      </trkpt>
      <trkpt lat="45.66088" lon="4.49508">
        <ele>732.18</ele>
        <time>2017-02-12T14:11:24Z</time>
      </trkpt>
      <trkpt lat="45.66096" lon="4.49529">
        <ele>735.07</ele>
        <time>2017-02-12T14:11:41Z</time>
      </trkpt>
      <trkpt lat="45.66098" lon="4.49541">
        <ele>737.47</ele>
        <time>2017-02-12T14:11:49Z</time>
      </trkpt>
      <trkpt lat="45.66103" lon="4.49565">
        <ele>740.35</ele>
        <time>2017-02-12T14:12:05Z</time>
      </trkpt>
      <trkpt lat="45.66111" lon="4.49583">
        <ele>743.72</ele>
        <time>2017-02-12T14:12:21Z</time>
      </trkpt>
      <trkpt lat="45.66121" lon="4.49601">
        <ele>747.08</ele>
        <time>2017-02-12T14:12:36Z</time>
      </trkpt>
      <trkpt lat="45.66129" lon="4.49615">
        <ele>749.97</ele>
        <time>2017-02-12T14:12:49Z</time>
      </trkpt>
      <trkpt lat="45.66137" lon="4.49633">
        <ele>751.89</ele>
        <time>2017-02-12T14:13:04Z</time>
      </trkpt>
      <trkpt lat="45.6614" lon="4.49643">
        <ele>753.81</ele>
        <time>2017-02-12T14:13:12Z</time>
      </trkpt>
      <trkpt lat="45.66144" lon="4.49661">
        <ele>759.58</ele>
        <time>2017-02-12T14:13:25Z</time>
      </trkpt>
      <trkpt lat="45.66146" lon="4.49684">
        <ele>767.27</ele>
        <time>2017-02-12T14:13:40Z</time>
      </trkpt>
      <trkpt lat="45.66147" lon="4.49697">
        <ele>770.63</ele>
        <time>2017-02-12T14:13:47Z</time>
      </trkpt>
      <trkpt lat="45.66146" lon="4.49727">
        <ele>774.48</ele>
        <time>2017-02-12T14:14:04Z</time>
      </trkpt>
      <trkpt lat="45.66146" lon="4.49757">
        <ele>774</ele>
        <time>2017-02-12T14:14:20Z</time>
      </trkpt>
      <trkpt lat="45.66149" lon="4.49792">
        <ele>769.67</ele>
        <time>2017-02-12T14:14:38Z</time>
      </trkpt>
      <trkpt lat="45.66151" lon="4.49828">
        <ele>769.19</ele>
        <time>2017-02-12T14:14:57Z</time>
      </trkpt>
      <trkpt lat="45.66151" lon="4.49844">
        <ele>767.75</ele>
        <time>2017-02-12T14:15:07Z</time>
      </trkpt>
      <trkpt lat="45.66137" lon="4.49859">
        <ele>769.67</ele>
        <time>2017-02-12T14:15:24Z</time>
      </trkpt>
      <trkpt lat="45.66127" lon="4.49879">
        <ele>770.15</ele>
        <time>2017-02-12T14:15:38Z</time>
      </trkpt>
      <trkpt lat="45.66125" lon="4.49896">
        <ele>770.63</ele>
        <time>2017-02-12T14:15:53Z</time>
      </trkpt>
      <trkpt lat="45.66126" lon="4.499">
        <ele>771.11</ele>
        <time>2017-02-12T14:16:06Z</time>
      </trkpt>
      <trkpt lat="45.66127" lon="4.499">
        <ele>771.11</ele>
        <time>2017-02-12T14:16:19Z</time>
      </trkpt>
      <trkpt lat="45.66126" lon="4.499">
        <ele>770.63</ele>
        <time>2017-02-12T14:16:35Z</time>
      </trkpt>
      <trkpt lat="45.66126" lon="4.49901">
        <ele>770.63</ele>
        <time>2017-02-12T14:16:51Z</time>
      </trkpt>
      <trkpt lat="45.66126" lon="4.49901">
        <ele>770.63</ele>
        <time>2017-02-12T14:17:10Z</time>
      </trkpt>
      <trkpt lat="45.66125" lon="4.499">
        <ele>770.63</ele>
        <time>2017-02-12T14:17:23Z</time>
      </trkpt>
      <trkpt lat="45.66125" lon="4.499">
        <ele>771.11</ele>
        <time>2017-02-12T14:17:43Z</time>
      </trkpt>
      <trkpt lat="45.66125" lon="4.49901">
        <ele>771.11</ele>
        <time>2017-02-12T14:18:06Z</time>
      </trkpt>
      <trkpt lat="45.66125" lon="4.49901">
        <ele>771.11</ele>
        <time>2017-02-12T14:18:33Z</time>
      </trkpt>
      <trkpt lat="45.66124" lon="4.499">
        <ele>770.63</ele>
        <time>2017-02-12T14:18:48Z</time>
      </trkpt>
      <trkpt lat="45.66124" lon="4.499">
        <ele>770.15</ele>
        <time>2017-02-12T14:19:05Z</time>
      </trkpt>
      <trkpt lat="45.66124" lon="4.499">
        <ele>770.15</ele>
        <time>2017-02-12T14:19:29Z</time>
      </trkpt>
      <trkpt lat="45.66124" lon="4.49901">
        <ele>769.67</ele>
        <time>2017-02-12T14:19:58Z</time>
      </trkpt>
      <trkpt lat="45.66123" lon="4.499">
        <ele>769.67</ele>
        <time>2017-02-12T14:20:15Z</time>
      </trkpt>
      <trkpt lat="45.66123" lon="4.49899">
        <ele>769.19</ele>
        <time>2017-02-12T14:20:34Z</time>
      </trkpt>
      <trkpt lat="45.66125" lon="4.499">
        <ele>769.19</ele>
        <time>2017-02-12T14:20:38Z</time>
      </trkpt>
      <trkpt lat="45.66131" lon="4.49901">
        <ele>769.19</ele>
        <time>2017-02-12T14:20:43Z</time>
      </trkpt>
      <trkpt lat="45.66137" lon="4.49902">
        <ele>769.19</ele>
        <time>2017-02-12T14:20:48Z</time>
      </trkpt>
      <trkpt lat="45.66144" lon="4.49905">
        <ele>769.19</ele>
        <time>2017-02-12T14:20:54Z</time>
      </trkpt>
      <trkpt lat="45.66167" lon="4.49901">
        <ele>769.19</ele>
        <time>2017-02-12T14:21:12Z</time>
      </trkpt>
      <trkpt lat="45.66184" lon="4.49916">
        <ele>769.19</ele>
        <time>2017-02-12T14:21:30Z</time>
      </trkpt>
      <trkpt lat="45.662" lon="4.49945">
        <ele>770.15</ele>
        <time>2017-02-12T14:21:50Z</time>
      </trkpt>
      <trkpt lat="45.66213" lon="4.49972">
        <ele>770.63</ele>
        <time>2017-02-12T14:22:08Z</time>
      </trkpt>
      <trkpt lat="45.66234" lon="4.50004">
        <ele>770.63</ele>
        <time>2017-02-12T14:22:31Z</time>
      </trkpt>
      <trkpt lat="45.66258" lon="4.50021">
        <ele>770.15</ele>
        <time>2017-02-12T14:22:50Z</time>
      </trkpt>
      <trkpt lat="45.66286" lon="4.50043">
        <ele>770.15</ele>
        <time>2017-02-12T14:23:13Z</time>
      </trkpt>
      <trkpt lat="45.66304" lon="4.50058">
        <ele>770.63</ele>
        <time>2017-02-12T14:23:28Z</time>
      </trkpt>
      <trkpt lat="45.66322" lon="4.50076">
        <ele>772.08</ele>
        <time>2017-02-12T14:23:45Z</time>
      </trkpt>
      <trkpt lat="45.66336" lon="4.50095">
        <ele>774.48</ele>
        <time>2017-02-12T14:24:01Z</time>
      </trkpt>
      <trkpt lat="45.66349" lon="4.5012">
        <ele>775.92</ele>
        <time>2017-02-12T14:24:19Z</time>
      </trkpt>
      <trkpt lat="45.66362" lon="4.50143">
        <ele>776.4</ele>
        <time>2017-02-12T14:24:35Z</time>
      </trkpt>
      <trkpt lat="45.66378" lon="4.50167">
        <ele>777.84</ele>
        <time>2017-02-12T14:24:52Z</time>
      </trkpt>
      <trkpt lat="45.6639" lon="4.50187">
        <ele>778.32</ele>
        <time>2017-02-12T14:25:08Z</time>
      </trkpt>
      <trkpt lat="45.66396" lon="4.50189">
        <ele>779.29</ele>
        <time>2017-02-12T14:25:13Z</time>
      </trkpt>
      <trkpt lat="45.66398" lon="4.50189">
        <ele>780.25</ele>
        <time>2017-02-12T14:25:15Z</time>
      </trkpt>
      <trkpt lat="45.66402" lon="4.50197">
        <ele>782.65</ele>
        <time>2017-02-12T14:25:20Z</time>
      </trkpt>
      <trkpt lat="45.66419" lon="4.5022">
        <ele>785.05</ele>
        <time>2017-02-12T14:25:37Z</time>
      </trkpt>
      <trkpt lat="45.66434" lon="4.50236">
        <ele>786.02</ele>
        <time>2017-02-12T14:25:54Z</time>
      </trkpt>
      <trkpt lat="45.66442" lon="4.50252">
        <ele>788.42</ele>
        <time>2017-02-12T14:26:08Z</time>
      </trkpt>
      <trkpt lat="45.66452" lon="4.50263">
        <ele>789.38</ele>
        <time>2017-02-12T14:26:23Z</time>
      </trkpt>
      <trkpt lat="45.66461" lon="4.50268">
        <ele>789.38</ele>
        <time>2017-02-12T14:26:33Z</time>
      </trkpt>
      <trkpt lat="45.66479" lon="4.50273">
        <ele>789.38</ele>
        <time>2017-02-12T14:26:49Z</time>
      </trkpt>
      <trkpt lat="45.66483" lon="4.50275">
        <ele>789.38</ele>
        <time>2017-02-12T14:27:01Z</time>
      </trkpt>
      <trkpt lat="45.66484" lon="4.50275">
        <ele>789.38</ele>
        <time>2017-02-12T14:27:02Z</time>
      </trkpt>
      <trkpt lat="45.66503" lon="4.50272">
        <ele>788.42</ele>
        <time>2017-02-12T14:27:20Z</time>
      </trkpt>
      <trkpt lat="45.66522" lon="4.5026">
        <ele>787.46</ele>
        <time>2017-02-12T14:27:38Z</time>
      </trkpt>
      <trkpt lat="45.66538" lon="4.50249">
        <ele>786.98</ele>
        <time>2017-02-12T14:27:53Z</time>
      </trkpt>
      <trkpt lat="45.66556" lon="4.50245">
        <ele>789.38</ele>
        <time>2017-02-12T14:28:11Z</time>
      </trkpt>
      <trkpt lat="45.66558" lon="4.50244">
        <ele>789.86</ele>
        <time>2017-02-12T14:28:13Z</time>
      </trkpt>
      <trkpt lat="45.6657" lon="4.50236">
        <ele>790.34</ele>
        <time>2017-02-12T14:28:27Z</time>
      </trkpt>
      <trkpt lat="45.66585" lon="4.50227">
        <ele>792.26</ele>
        <time>2017-02-12T14:28:42Z</time>
      </trkpt>
      <trkpt lat="45.66601" lon="4.5022">
        <ele>792.74</ele>
        <time>2017-02-12T14:28:57Z</time>
      </trkpt>
      <trkpt lat="45.66622" lon="4.50214">
        <ele>792.26</ele>
        <time>2017-02-12T14:29:13Z</time>
      </trkpt>
      <trkpt lat="45.66643" lon="4.50212">
        <ele>789.38</ele>
        <time>2017-02-12T14:29:29Z</time>
      </trkpt>
      <trkpt lat="45.66652" lon="4.5021">
        <ele>787.94</ele>
        <time>2017-02-12T14:29:38Z</time>
      </trkpt>
      <trkpt lat="45.66672" lon="4.50214">
        <ele>785.53</ele>
        <time>2017-02-12T14:29:54Z</time>
      </trkpt>
      <trkpt lat="45.66697" lon="4.50216">
        <ele>783.61</ele>
        <time>2017-02-12T14:30:11Z</time>
      </trkpt>
      <trkpt lat="45.66714" lon="4.50216">
        <ele>785.05</ele>
        <time>2017-02-12T14:30:25Z</time>
      </trkpt>
      <trkpt lat="45.66731" lon="4.50222">
        <ele>784.09</ele>
        <time>2017-02-12T14:30:41Z</time>
      </trkpt>
      <trkpt lat="45.66737" lon="4.50225">
        <ele>784.09</ele>
        <time>2017-02-12T14:30:46Z</time>
      </trkpt>
      <trkpt lat="45.66754" lon="4.50224">
        <ele>785.53</ele>
        <time>2017-02-12T14:31:02Z</time>
      </trkpt>
      <trkpt lat="45.66765" lon="4.50212">
        <ele>788.9</ele>
        <time>2017-02-12T14:31:15Z</time>
      </trkpt>
      <trkpt lat="45.66776" lon="4.50189">
        <ele>790.34</ele>
        <time>2017-02-12T14:31:32Z</time>
      </trkpt>
      <trkpt lat="45.66777" lon="4.50188">
        <ele>790.34</ele>
        <time>2017-02-12T14:31:33Z</time>
      </trkpt>
      <trkpt lat="45.6679" lon="4.50162">
        <ele>790.34</ele>
        <time>2017-02-12T14:31:49Z</time>
      </trkpt>
      <trkpt lat="45.66797" lon="4.50146">
        <ele>789.86</ele>
        <time>2017-02-12T14:32:01Z</time>
      </trkpt>
      <trkpt lat="45.66805" lon="4.50125">
        <ele>788.42</ele>
        <time>2017-02-12T14:32:15Z</time>
      </trkpt>
      <trkpt lat="45.66808" lon="4.50116">
        <ele>787.94</ele>
        <time>2017-02-12T14:32:19Z</time>
      </trkpt>
      <trkpt lat="45.66815" lon="4.50103">
        <ele>784.09</ele>
        <time>2017-02-12T14:32:33Z</time>
      </trkpt>
      <trkpt lat="45.66817" lon="4.50101">
        <ele>783.13</ele>
        <time>2017-02-12T14:32:52Z</time>
      </trkpt>
      <trkpt lat="45.66816" lon="4.501">
        <ele>783.61</ele>
        <time>2017-02-12T14:33:10Z</time>
      </trkpt>
      <trkpt lat="45.66817" lon="4.50099">
        <ele>783.61</ele>
        <time>2017-02-12T14:33:30Z</time>
      </trkpt>
      <trkpt lat="45.66817" lon="4.50098">
        <ele>783.13</ele>
        <time>2017-02-12T14:33:55Z</time>
      </trkpt>
      <trkpt lat="45.66817" lon="4.50098">
        <ele>783.61</ele>
        <time>2017-02-12T14:34:16Z</time>
      </trkpt>
      <trkpt lat="45.66816" lon="4.50099">
        <ele>783.13</ele>
        <time>2017-02-12T14:34:34Z</time>
      </trkpt>
      <trkpt lat="45.66816" lon="4.50095">
        <ele>783.13</ele>
        <time>2017-02-12T14:34:40Z</time>
      </trkpt>
      <trkpt lat="45.66823" lon="4.50074">
        <ele>784.57</ele>
        <time>2017-02-12T14:34:56Z</time>
      </trkpt>
      <trkpt lat="45.66831" lon="4.5005">
        <ele>785.05</ele>
        <time>2017-02-12T14:35:13Z</time>
      </trkpt>
      <trkpt lat="45.66838" lon="4.50027">
        <ele>786.98</ele>
        <time>2017-02-12T14:35:30Z</time>
      </trkpt>
      <trkpt lat="45.66847" lon="4.49999">
        <ele>788.9</ele>
        <time>2017-02-12T14:35:49Z</time>
      </trkpt>
      <trkpt lat="45.66856" lon="4.49971">
        <ele>788.9</ele>
        <time>2017-02-12T14:36:07Z</time>
      </trkpt>
      <trkpt lat="45.66861" lon="4.49962">
        <ele>789.38</ele>
        <time>2017-02-12T14:36:20Z</time>
      </trkpt>
      <trkpt lat="45.66861" lon="4.49961">
        <ele>789.86</ele>
        <time>2017-02-12T14:36:33Z</time>
      </trkpt>
      <trkpt lat="45.66867" lon="4.49935">
        <ele>791.3</ele>
        <time>2017-02-12T14:36:51Z</time>
      </trkpt>
      <trkpt lat="45.66871" lon="4.49921">
        <ele>791.3</ele>
        <time>2017-02-12T14:37:00Z</time>
      </trkpt>
      <trkpt lat="45.66881" lon="4.499">
        <ele>791.3</ele>
        <time>2017-02-12T14:37:16Z</time>
      </trkpt>
      <trkpt lat="45.66888" lon="4.49889">
        <ele>793.71</ele>
        <time>2017-02-12T14:37:28Z</time>
      </trkpt>
      <trkpt lat="45.66897" lon="4.49873">
        <ele>797.55</ele>
        <time>2017-02-12T14:37:42Z</time>
      </trkpt>
      <trkpt lat="45.66903" lon="4.49861">
        <ele>800.44</ele>
        <time>2017-02-12T14:37:56Z</time>
      </trkpt>
      <trkpt lat="45.66915" lon="4.49842">
        <ele>805.72</ele>
        <time>2017-02-12T14:38:13Z</time>
      </trkpt>
      <trkpt lat="45.66921" lon="4.4983">
        <ele>811.01</ele>
        <time>2017-02-12T14:38:25Z</time>
      </trkpt>
      <trkpt lat="45.66932" lon="4.4981">
        <ele>816.3</ele>
        <time>2017-02-12T14:38:39Z</time>
      </trkpt>
      <trkpt lat="45.66941" lon="4.49797">
        <ele>821.58</ele>
        <time>2017-02-12T14:38:54Z</time>
      </trkpt>
      <trkpt lat="45.6695" lon="4.49789">
        <ele>826.39</ele>
        <time>2017-02-12T14:39:09Z</time>
      </trkpt>
      <trkpt lat="45.66962" lon="4.49779">
        <ele>827.35</ele>
        <time>2017-02-12T14:39:22Z</time>
      </trkpt>
      <trkpt lat="45.66968" lon="4.49776">
        <ele>826.87</ele>
        <time>2017-02-12T14:39:35Z</time>
      </trkpt>
      <trkpt lat="45.66977" lon="4.4977">
        <ele>828.79</ele>
        <time>2017-02-12T14:39:50Z</time>
      </trkpt>
      <trkpt lat="45.66991" lon="4.49764">
        <ele>829.76</ele>
        <time>2017-02-12T14:40:05Z</time>
      </trkpt>
      <trkpt lat="45.67005" lon="4.49754">
        <ele>834.08</ele>
        <time>2017-02-12T14:40:19Z</time>
      </trkpt>
      <trkpt lat="45.67017" lon="4.49748">
        <ele>836</ele>
        <time>2017-02-12T14:40:34Z</time>
      </trkpt>
      <trkpt lat="45.67028" lon="4.49745">
        <ele>838.89</ele>
        <time>2017-02-12T14:40:49Z</time>
      </trkpt>
      <trkpt lat="45.67046" lon="4.4974">
        <ele>842.73</ele>
        <time>2017-02-12T14:41:05Z</time>
      </trkpt>
      <trkpt lat="45.6706" lon="4.49738">
        <ele>842.25</ele>
        <time>2017-02-12T14:41:19Z</time>
      </trkpt>
      <trkpt lat="45.6707" lon="4.49737">
        <ele>843.69</ele>
        <time>2017-02-12T14:41:34Z</time>
      </trkpt>
      <trkpt lat="45.67088" lon="4.49739">
        <ele>844.18</ele>
        <time>2017-02-12T14:41:46Z</time>
      </trkpt>
      <trkpt lat="45.67104" lon="4.49741">
        <ele>843.69</ele>
        <time>2017-02-12T14:42:01Z</time>
      </trkpt>
      <trkpt lat="45.67123" lon="4.49742">
        <ele>843.21</ele>
        <time>2017-02-12T14:42:15Z</time>
      </trkpt>
      <trkpt lat="45.67142" lon="4.49738">
        <ele>842.73</ele>
        <time>2017-02-12T14:42:29Z</time>
      </trkpt>
      <trkpt lat="45.67162" lon="4.49742">
        <ele>841.77</ele>
        <time>2017-02-12T14:42:45Z</time>
      </trkpt>
      <trkpt lat="45.67171" lon="4.49746">
        <ele>840.81</ele>
        <time>2017-02-12T14:43:00Z</time>
      </trkpt>
      <trkpt lat="45.67181" lon="4.49756">
        <ele>839.37</ele>
        <time>2017-02-12T14:43:11Z</time>
      </trkpt>
      <trkpt lat="45.6719" lon="4.49759">
        <ele>837.93</ele>
        <time>2017-02-12T14:43:18Z</time>
      </trkpt>
      <trkpt lat="45.67209" lon="4.49764">
        <ele>835.52</ele>
        <time>2017-02-12T14:43:30Z</time>
      </trkpt>
      <trkpt lat="45.67234" lon="4.49764">
        <ele>835.52</ele>
        <time>2017-02-12T14:43:48Z</time>
      </trkpt>
      <trkpt lat="45.67256" lon="4.49762">
        <ele>833.12</ele>
        <time>2017-02-12T14:44:06Z</time>
      </trkpt>
      <trkpt lat="45.67267" lon="4.49765">
        <ele>832.64</ele>
        <time>2017-02-12T14:44:20Z</time>
      </trkpt>
      <trkpt lat="45.67278" lon="4.4977">
        <ele>834.08</ele>
        <time>2017-02-12T14:44:35Z</time>
      </trkpt>
      <trkpt lat="45.67286" lon="4.49776">
        <ele>836</ele>
        <time>2017-02-12T14:44:49Z</time>
      </trkpt>
      <trkpt lat="45.67292" lon="4.49785">
        <ele>839.85</ele>
        <time>2017-02-12T14:45:03Z</time>
      </trkpt>
      <trkpt lat="45.67292" lon="4.49787">
        <ele>840.33</ele>
        <time>2017-02-12T14:45:17Z</time>
      </trkpt>
      <trkpt lat="45.67293" lon="4.49787">
        <ele>839.85</ele>
        <time>2017-02-12T14:45:27Z</time>
      </trkpt>
      <trkpt lat="45.67294" lon="4.49787">
        <ele>839.85</ele>
        <time>2017-02-12T14:45:42Z</time>
      </trkpt>
      <trkpt lat="45.67294" lon="4.49787">
        <ele>839.85</ele>
        <time>2017-02-12T14:45:59Z</time>
      </trkpt>
      <trkpt lat="45.67294" lon="4.49786">
        <ele>839.85</ele>
        <time>2017-02-12T14:46:26Z</time>
      </trkpt>
      <trkpt lat="45.67294" lon="4.49786">
        <ele>839.85</ele>
        <time>2017-02-12T14:46:42Z</time>
      </trkpt>
      <trkpt lat="45.67294" lon="4.49786">
        <ele>839.85</ele>
        <time>2017-02-12T14:46:59Z</time>
      </trkpt>
      <trkpt lat="45.67294" lon="4.49786">
        <ele>840.33</ele>
        <time>2017-02-12T14:47:21Z</time>
      </trkpt>
      <trkpt lat="45.67294" lon="4.49785">
        <ele>840.33</ele>
        <time>2017-02-12T14:47:42Z</time>
      </trkpt>
      <trkpt lat="45.67295" lon="4.49785">
        <ele>840.33</ele>
        <time>2017-02-12T14:48:01Z</time>
      </trkpt>
      <trkpt lat="45.67294" lon="4.49785">
        <ele>840.33</ele>
        <time>2017-02-12T14:48:17Z</time>
      </trkpt>
      <trkpt lat="45.67295" lon="4.49785">
        <ele>839.37</ele>
        <time>2017-02-12T14:48:33Z</time>
      </trkpt>
      <trkpt lat="45.67296" lon="4.49779">
        <ele>840.33</ele>
        <time>2017-02-12T14:48:47Z</time>
      </trkpt>
      <trkpt lat="45.67302" lon="4.4976">
        <ele>839.85</ele>
        <time>2017-02-12T14:49:02Z</time>
      </trkpt>
      <trkpt lat="45.67309" lon="4.49739">
        <ele>837.93</ele>
        <time>2017-02-12T14:49:17Z</time>
      </trkpt>
      <trkpt lat="45.67315" lon="4.49715">
        <ele>840.81</ele>
        <time>2017-02-12T14:49:34Z</time>
      </trkpt>
      <trkpt lat="45.67321" lon="4.49688">
        <ele>841.77</ele>
        <time>2017-02-12T14:49:50Z</time>
      </trkpt>
      <trkpt lat="45.67327" lon="4.49659">
        <ele>841.77</ele>
        <time>2017-02-12T14:50:06Z</time>
      </trkpt>
      <trkpt lat="45.67328" lon="4.49632">
        <ele>841.77</ele>
        <time>2017-02-12T14:50:21Z</time>
      </trkpt>
      <trkpt lat="45.67327" lon="4.49623">
        <ele>841.77</ele>
        <time>2017-02-12T14:50:26Z</time>
      </trkpt>
      <trkpt lat="45.67324" lon="4.49612">
        <ele>841.77</ele>
        <time>2017-02-12T14:50:32Z</time>
      </trkpt>
      <trkpt lat="45.67319" lon="4.49589">
        <ele>841.29</ele>
        <time>2017-02-12T14:50:44Z</time>
      </trkpt>
      <trkpt lat="45.67318" lon="4.49578">
        <ele>841.29</ele>
        <time>2017-02-12T14:50:49Z</time>
      </trkpt>
      <trkpt lat="45.67324" lon="4.49544">
        <ele>836.96</ele>
        <time>2017-02-12T14:51:08Z</time>
      </trkpt>
      <trkpt lat="45.67336" lon="4.49517">
        <ele>836</ele>
        <time>2017-02-12T14:51:26Z</time>
      </trkpt>
      <trkpt lat="45.67349" lon="4.49481">
        <ele>834.08</ele>
        <time>2017-02-12T14:51:47Z</time>
      </trkpt>
      <trkpt lat="45.67363" lon="4.49453">
        <ele>832.64</ele>
        <time>2017-02-12T14:52:06Z</time>
      </trkpt>
      <trkpt lat="45.67375" lon="4.49426">
        <ele>831.68</ele>
        <time>2017-02-12T14:52:23Z</time>
      </trkpt>
      <trkpt lat="45.67387" lon="4.49399">
        <ele>830.72</ele>
        <time>2017-02-12T14:52:40Z</time>
      </trkpt>
      <trkpt lat="45.67405" lon="4.49363">
        <ele>828.79</ele>
        <time>2017-02-12T14:53:03Z</time>
      </trkpt>
      <trkpt lat="45.67421" lon="4.49335">
        <ele>826.87</ele>
        <time>2017-02-12T14:53:23Z</time>
      </trkpt>
      <trkpt lat="45.67433" lon="4.49306">
        <ele>824.95</ele>
        <time>2017-02-12T14:53:42Z</time>
      </trkpt>
      <trkpt lat="45.6744" lon="4.49295">
        <ele>823.03</ele>
        <time>2017-02-12T14:53:51Z</time>
      </trkpt>
      <trkpt lat="45.67462" lon="4.49283">
        <ele>819.66</ele>
        <time>2017-02-12T14:54:12Z</time>
      </trkpt>
      <trkpt lat="45.67485" lon="4.49279">
        <ele>818.22</ele>
        <time>2017-02-12T14:54:30Z</time>
      </trkpt>
      <trkpt lat="45.6751" lon="4.49273">
        <ele>817.74</ele>
        <time>2017-02-12T14:54:51Z</time>
      </trkpt>
      <trkpt lat="45.67525" lon="4.4926">
        <ele>817.26</ele>
        <time>2017-02-12T14:55:08Z</time>
      </trkpt>
      <trkpt lat="45.67525" lon="4.49257">
        <ele>817.26</ele>
        <time>2017-02-12T14:55:20Z</time>
      </trkpt>
      <trkpt lat="45.67529" lon="4.49245">
        <ele>816.3</ele>
        <time>2017-02-12T14:55:33Z</time>
      </trkpt>
      <trkpt lat="45.67539" lon="4.49218">
        <ele>814.37</ele>
        <time>2017-02-12T14:55:51Z</time>
      </trkpt>
      <trkpt lat="45.67553" lon="4.49185">
        <ele>810.53</ele>
        <time>2017-02-12T14:56:11Z</time>
      </trkpt>
      <trkpt lat="45.67564" lon="4.49158">
        <ele>809.57</ele>
        <time>2017-02-12T14:56:28Z</time>
      </trkpt>
      <trkpt lat="45.67578" lon="4.49125">
        <ele>808.61</ele>
        <time>2017-02-12T14:56:48Z</time>
      </trkpt>
      <trkpt lat="45.6759" lon="4.49099">
        <ele>808.61</ele>
        <time>2017-02-12T14:57:05Z</time>
      </trkpt>
      <trkpt lat="45.67606" lon="4.49069">
        <ele>808.61</ele>
        <time>2017-02-12T14:57:25Z</time>
      </trkpt>
      <trkpt lat="45.6762" lon="4.49044">
        <ele>809.09</ele>
        <time>2017-02-12T14:57:43Z</time>
      </trkpt>
      <trkpt lat="45.67631" lon="4.49019">
        <ele>809.09</ele>
        <time>2017-02-12T14:57:59Z</time>
      </trkpt>
      <trkpt lat="45.67639" lon="4.48989">
        <ele>810.53</ele>
        <time>2017-02-12T14:58:16Z</time>
      </trkpt>
      <trkpt lat="45.67643" lon="4.48956">
        <ele>811.97</ele>
        <time>2017-02-12T14:58:35Z</time>
      </trkpt>
      <trkpt lat="45.67647" lon="4.48923">
        <ele>811.01</ele>
        <time>2017-02-12T14:58:53Z</time>
      </trkpt>
      <trkpt lat="45.67652" lon="4.48891">
        <ele>811.01</ele>
        <time>2017-02-12T14:59:11Z</time>
      </trkpt>
      <trkpt lat="45.67664" lon="4.48862">
        <ele>809.09</ele>
        <time>2017-02-12T14:59:30Z</time>
      </trkpt>
      <trkpt lat="45.67677" lon="4.48835">
        <ele>806.68</ele>
        <time>2017-02-12T14:59:48Z</time>
      </trkpt>
      <trkpt lat="45.6769" lon="4.48809">
        <ele>804.28</ele>
        <time>2017-02-12T15:00:06Z</time>
      </trkpt>
      <trkpt lat="45.67704" lon="4.48782">
        <ele>801.88</ele>
        <time>2017-02-12T15:00:24Z</time>
      </trkpt>
      <trkpt lat="45.67717" lon="4.48754">
        <ele>798.51</ele>
        <time>2017-02-12T15:00:41Z</time>
      </trkpt>
      <trkpt lat="45.67729" lon="4.48728">
        <ele>795.63</ele>
        <time>2017-02-12T15:00:58Z</time>
      </trkpt>
      <trkpt lat="45.67735" lon="4.48723">
        <ele>795.15</ele>
        <time>2017-02-12T15:01:03Z</time>
      </trkpt>
      <trkpt lat="45.67754" lon="4.48705">
        <ele>791.3</ele>
        <time>2017-02-12T15:01:21Z</time>
      </trkpt>
      <trkpt lat="45.67765" lon="4.48692">
        <ele>787.94</ele>
        <time>2017-02-12T15:01:35Z</time>
      </trkpt>
      <trkpt lat="45.67773" lon="4.48682">
        <ele>785.53</ele>
        <time>2017-02-12T15:01:45Z</time>
      </trkpt>
      <trkpt lat="45.67784" lon="4.48657">
        <ele>782.65</ele>
        <time>2017-02-12T15:02:02Z</time>
      </trkpt>
      <trkpt lat="45.67791" lon="4.48626">
        <ele>782.17</ele>
        <time>2017-02-12T15:02:20Z</time>
      </trkpt>
      <trkpt lat="45.67792" lon="4.48594">
        <ele>780.25</ele>
        <time>2017-02-12T15:02:38Z</time>
      </trkpt>
      <trkpt lat="45.67792" lon="4.48589">
        <ele>780.25</ele>
        <time>2017-02-12T15:02:41Z</time>
      </trkpt>
      <trkpt lat="45.67788" lon="4.48572">
        <ele>777.84</ele>
        <time>2017-02-12T15:02:57Z</time>
      </trkpt>
      <trkpt lat="45.67786" lon="4.48568">
        <ele>777.84</ele>
        <time>2017-02-12T15:03:01Z</time>
      </trkpt>
      <trkpt lat="45.67783" lon="4.48564">
        <ele>777.36</ele>
        <time>2017-02-12T15:03:05Z</time>
      </trkpt>
      <trkpt lat="45.67781" lon="4.48541">
        <ele>773.52</ele>
        <time>2017-02-12T15:03:21Z</time>
      </trkpt>
      <trkpt lat="45.67787" lon="4.48536">
        <ele>771.6</ele>
        <time>2017-02-12T15:03:28Z</time>
      </trkpt>
      <trkpt lat="45.67802" lon="4.4852">
        <ele>765.83</ele>
        <time>2017-02-12T15:03:46Z</time>
      </trkpt>
      <trkpt lat="45.67821" lon="4.48501">
        <ele>763.9</ele>
        <time>2017-02-12T15:04:04Z</time>
      </trkpt>
      <trkpt lat="45.67839" lon="4.48483">
        <ele>763.42</ele>
        <time>2017-02-12T15:04:20Z</time>
      </trkpt>
      <trkpt lat="45.67854" lon="4.48462">
        <ele>764.39</ele>
        <time>2017-02-12T15:04:36Z</time>
      </trkpt>
      <trkpt lat="45.67863" lon="4.4845">
        <ele>766.31</ele>
        <time>2017-02-12T15:04:48Z</time>
      </trkpt>
      <trkpt lat="45.6787" lon="4.48437">
        <ele>767.75</ele>
        <time>2017-02-12T15:05:01Z</time>
      </trkpt>
      <trkpt lat="45.67876" lon="4.48424">
        <ele>768.23</ele>
        <time>2017-02-12T15:05:17Z</time>
      </trkpt>
      <trkpt lat="45.67879" lon="4.48413">
        <ele>767.75</ele>
        <time>2017-02-12T15:05:25Z</time>
      </trkpt>
      <trkpt lat="45.67881" lon="4.48378">
        <ele>767.27</ele>
        <time>2017-02-12T15:05:44Z</time>
      </trkpt>
      <trkpt lat="45.67874" lon="4.48347">
        <ele>768.23</ele>
        <time>2017-02-12T15:06:03Z</time>
      </trkpt>
      <trkpt lat="45.67872" lon="4.48329">
        <ele>770.15</ele>
        <time>2017-02-12T15:06:18Z</time>
      </trkpt>
      <trkpt lat="45.67872" lon="4.48317">
        <ele>770.63</ele>
        <time>2017-02-12T15:06:32Z</time>
      </trkpt>
      <trkpt lat="45.67872" lon="4.48303">
        <ele>771.6</ele>
        <time>2017-02-12T15:06:40Z</time>
      </trkpt>
      <trkpt lat="45.67875" lon="4.48272">
        <ele>771.6</ele>
        <time>2017-02-12T15:06:59Z</time>
      </trkpt>
      <trkpt lat="45.6788" lon="4.48248">
        <ele>771.6</ele>
        <time>2017-02-12T15:07:15Z</time>
      </trkpt>
      <trkpt lat="45.67881" lon="4.48243">
        <ele>771.6</ele>
        <time>2017-02-12T15:07:31Z</time>
      </trkpt>
      <trkpt lat="45.67883" lon="4.48238">
        <ele>771.6</ele>
        <time>2017-02-12T15:07:48Z</time>
      </trkpt>
      <trkpt lat="45.67885" lon="4.48219">
        <ele>774</ele>
        <time>2017-02-12T15:08:01Z</time>
      </trkpt>
      <trkpt lat="45.67886" lon="4.48205">
        <ele>774.96</ele>
        <time>2017-02-12T15:08:10Z</time>
      </trkpt>
      <trkpt lat="45.67889" lon="4.48191">
        <ele>775.92</ele>
        <time>2017-02-12T15:08:23Z</time>
      </trkpt>
      <trkpt lat="45.6789" lon="4.48179">
        <ele>776.88</ele>
        <time>2017-02-12T15:08:38Z</time>
      </trkpt>
      <trkpt lat="45.67891" lon="4.48172">
        <ele>777.36</ele>
        <time>2017-02-12T15:08:50Z</time>
      </trkpt>
      <trkpt lat="45.67892" lon="4.48162">
        <ele>777.84</ele>
        <time>2017-02-12T15:09:03Z</time>
      </trkpt>
      <trkpt lat="45.67893" lon="4.4816">
        <ele>778.32</ele>
        <time>2017-02-12T15:09:05Z</time>
      </trkpt>
      <trkpt lat="45.67897" lon="4.48131">
        <ele>779.77</ele>
        <time>2017-02-12T15:09:21Z</time>
      </trkpt>
      <trkpt lat="45.679" lon="4.48108">
        <ele>780.25</ele>
        <time>2017-02-12T15:09:33Z</time>
      </trkpt>
      <trkpt lat="45.67901" lon="4.48073">
        <ele>780.73</ele>
        <time>2017-02-12T15:09:51Z</time>
      </trkpt>
      <trkpt lat="45.67902" lon="4.48042">
        <ele>780.25</ele>
        <time>2017-02-12T15:10:07Z</time>
      </trkpt>
      <trkpt lat="45.679" lon="4.48012">
        <ele>780.73</ele>
        <time>2017-02-12T15:10:23Z</time>
      </trkpt>
      <trkpt lat="45.679" lon="4.47998">
        <ele>780.73</ele>
        <time>2017-02-12T15:10:31Z</time>
      </trkpt>
      <trkpt lat="45.679" lon="4.47968">
        <ele>778.81</ele>
        <time>2017-02-12T15:10:47Z</time>
      </trkpt>
      <trkpt lat="45.67903" lon="4.47936">
        <ele>778.32</ele>
        <time>2017-02-12T15:11:04Z</time>
      </trkpt>
      <trkpt lat="45.67919" lon="4.47917">
        <ele>778.81</ele>
        <time>2017-02-12T15:11:20Z</time>
      </trkpt>
      <trkpt lat="45.6793" lon="4.47895">
        <ele>778.81</ele>
        <time>2017-02-12T15:11:37Z</time>
      </trkpt>
      <trkpt lat="45.67944" lon="4.47873">
        <ele>780.73</ele>
        <time>2017-02-12T15:11:53Z</time>
      </trkpt>
      <trkpt lat="45.67965" lon="4.4785">
        <ele>783.61</ele>
        <time>2017-02-12T15:12:11Z</time>
      </trkpt>
      <trkpt lat="45.67982" lon="4.47828">
        <ele>782.17</ele>
        <time>2017-02-12T15:12:28Z</time>
      </trkpt>
      <trkpt lat="45.68005" lon="4.47813">
        <ele>781.69</ele>
        <time>2017-02-12T15:12:46Z</time>
      </trkpt>
      <trkpt lat="45.68031" lon="4.47802">
        <ele>785.05</ele>
        <time>2017-02-12T15:13:05Z</time>
      </trkpt>
      <trkpt lat="45.68058" lon="4.4779">
        <ele>787.94</ele>
        <time>2017-02-12T15:13:25Z</time>
      </trkpt>
      <trkpt lat="45.6808" lon="4.47781">
        <ele>786.98</ele>
        <time>2017-02-12T15:13:42Z</time>
      </trkpt>
      <trkpt lat="45.68095" lon="4.47776">
        <ele>786.02</ele>
        <time>2017-02-12T15:13:58Z</time>
      </trkpt>
      <trkpt lat="45.68116" lon="4.47771">
        <ele>786.5</ele>
        <time>2017-02-12T15:14:16Z</time>
      </trkpt>
      <trkpt lat="45.68118" lon="4.4777">
        <ele>786.5</ele>
        <time>2017-02-12T15:14:32Z</time>
      </trkpt>
      <trkpt lat="45.68118" lon="4.47769">
        <ele>786.5</ele>
        <time>2017-02-12T15:14:45Z</time>
      </trkpt>
      <trkpt lat="45.68122" lon="4.47768">
        <ele>786.5</ele>
        <time>2017-02-12T15:15:02Z</time>
      </trkpt>
      <trkpt lat="45.68133" lon="4.47768">
        <ele>786.98</ele>
        <time>2017-02-12T15:15:14Z</time>
      </trkpt>
      <trkpt lat="45.68145" lon="4.47764">
        <ele>789.86</ele>
        <time>2017-02-12T15:15:26Z</time>
      </trkpt>
      <trkpt lat="45.68157" lon="4.47762">
        <ele>792.26</ele>
        <time>2017-02-12T15:15:37Z</time>
      </trkpt>
      <trkpt lat="45.6816" lon="4.4776">
        <ele>792.74</ele>
        <time>2017-02-12T15:15:41Z</time>
      </trkpt>
      <trkpt lat="45.68162" lon="4.47758">
        <ele>792.74</ele>
        <time>2017-02-12T15:15:43Z</time>
      </trkpt>
      <trkpt lat="45.6817" lon="4.47756">
        <ele>793.22</ele>
        <time>2017-02-12T15:15:48Z</time>
      </trkpt>
      <trkpt lat="45.68175" lon="4.47753">
        <ele>793.71</ele>
        <time>2017-02-12T15:15:52Z</time>
      </trkpt>
      <trkpt lat="45.68192" lon="4.47745">
        <ele>793.71</ele>
        <time>2017-02-12T15:16:06Z</time>
      </trkpt>
      <trkpt lat="45.6821" lon="4.47739">
        <ele>793.22</ele>
        <time>2017-02-12T15:16:21Z</time>
      </trkpt>
      <trkpt lat="45.68228" lon="4.47728">
        <ele>794.67</ele>
        <time>2017-02-12T15:16:35Z</time>
      </trkpt>
      <trkpt lat="45.68247" lon="4.47713">
        <ele>796.11</ele>
        <time>2017-02-12T15:16:50Z</time>
      </trkpt>
      <trkpt lat="45.68257" lon="4.47706">
        <ele>795.15</ele>
        <time>2017-02-12T15:16:59Z</time>
      </trkpt>
      <trkpt lat="45.68259" lon="4.47704">
        <ele>795.15</ele>
        <time>2017-02-12T15:17:01Z</time>
      </trkpt>
      <trkpt lat="45.68264" lon="4.47705">
        <ele>794.67</ele>
        <time>2017-02-12T15:17:13Z</time>
      </trkpt>
      <trkpt lat="45.68265" lon="4.47706">
        <ele>794.19</ele>
        <time>2017-02-12T15:17:24Z</time>
      </trkpt>
      <trkpt lat="45.68266" lon="4.47706">
        <ele>785.53</ele>
        <time>2017-02-12T15:17:44Z</time>
      </trkpt>
      <trkpt lat="45.68264" lon="4.47706">
        <ele>782.65</ele>
        <time>2017-02-12T15:17:45Z</time>
      </trkpt>
      <trkpt lat="45.68261" lon="4.47705">
        <ele>780.73</ele>
        <time>2017-02-12T15:17:48Z</time>
      </trkpt>
    </trkseg>
  </trk>
</gpx>